<?xml version="1.0" encoding="UTF-8" standalone="no" ?>
<gpx xmlns="http://www.topografix.com/GPX/1/1" xmlns:xsi="http://www.w3.org/2001/XMLSchema-instance" xsi:schemaLocation="http://www.topografix.com/GPX/1/1 http://www.topografix.com/GPX/1/1/gpx.xsd" version="1.1" creator="VisuGPX - https://www.visugpx.com">
  <metadata>
    <name>Marche Sylvie</name>
    <desc><![CDATA[Itinéraire marche sortie du 14 mai Sylvie]]></desc>
  </metadata>
  <trk>
    <name><![CDATA[marcheurs]]></name>
    <trkseg>
      <trkpt lat="45.76406" lon="4.33296">
        <ele>539</ele>
      </trkpt>
      <trkpt lat="45.76463" lon="4.33157">
        <ele>545</ele>
      </trkpt>
      <trkpt lat="45.76578" lon="4.32974">
        <ele>552</ele>
      </trkpt>
      <trkpt lat="45.76662" lon="4.32829">
        <ele>559</ele>
      </trkpt>
      <trkpt lat="45.76704" lon="4.32767">
        <ele>565</ele>
      </trkpt>
      <trkpt lat="45.76758" lon="4.32743">
        <ele>570</ele>
      </trkpt>
      <trkpt lat="45.76791" lon="4.32667">
        <ele>577</ele>
      </trkpt>
      <trkpt lat="45.76833" lon="4.32559">
        <ele>582</ele>
      </trkpt>
      <trkpt lat="45.76914" lon="4.32549">
        <ele>587</ele>
      </trkpt>
      <trkpt lat="45.77014" lon="4.32514">
        <ele>592</ele>
      </trkpt>
      <trkpt lat="45.77098" lon="4.32363">
        <ele>591</ele>
      </trkpt>
      <trkpt lat="45.77116" lon="4.3237">
        <ele>592</ele>
      </trkpt>
      <trkpt lat="45.76967" lon="4.32133">
        <ele>574</ele>
      </trkpt>
      <trkpt lat="45.76945" lon="4.32094">
        <ele>572</ele>
      </trkpt>
      <trkpt lat="45.7695" lon="4.31798">
        <ele>552</ele>
      </trkpt>
      <trkpt lat="45.76952" lon="4.31702">
        <ele>550</ele>
      </trkpt>
      <trkpt lat="45.76957" lon="4.31651">
        <ele>549</ele>
      </trkpt>
      <trkpt lat="45.7694" lon="4.31592">
        <ele>550</ele>
      </trkpt>
      <trkpt lat="45.76855" lon="4.3157">
        <ele>546</ele>
      </trkpt>
      <trkpt lat="45.76725" lon="4.31565">
        <ele>544</ele>
      </trkpt>
      <trkpt lat="45.76671" lon="4.31563">
        <ele>542</ele>
      </trkpt>
      <trkpt lat="45.7656" lon="4.3145">
        <ele>542</ele>
      </trkpt>
      <trkpt lat="45.76512" lon="4.31371">
        <ele>543</ele>
      </trkpt>
      <trkpt lat="45.76393" lon="4.31251">
        <ele>541</ele>
      </trkpt>
      <trkpt lat="45.76278" lon="4.31118">
        <ele>538</ele>
      </trkpt>
      <trkpt lat="45.76163" lon="4.31031">
        <ele>537</ele>
      </trkpt>
      <trkpt lat="45.76069" lon="4.30989">
        <ele>531</ele>
      </trkpt>
      <trkpt lat="45.76047" lon="4.30975">
        <ele>529</ele>
      </trkpt>
      <trkpt lat="45.75963" lon="4.30856">
        <ele>517</ele>
      </trkpt>
      <trkpt lat="45.75984" lon="4.30716">
        <ele>509</ele>
      </trkpt>
      <trkpt lat="45.75983" lon="4.30529">
        <ele>498</ele>
      </trkpt>
      <trkpt lat="45.75993" lon="4.30472">
        <ele>491</ele>
      </trkpt>
      <trkpt lat="45.75981" lon="4.30355">
        <ele>480</ele>
      </trkpt>
      <trkpt lat="45.75978" lon="4.30291">
        <ele>470</ele>
      </trkpt>
      <trkpt lat="45.76008" lon="4.30131">
        <ele>457</ele>
      </trkpt>
      <trkpt lat="45.76022" lon="4.30061">
        <ele>458</ele>
      </trkpt>
      <trkpt lat="45.76113" lon="4.3">
        <ele>475</ele>
      </trkpt>
      <trkpt lat="45.76107" lon="4.29859">
        <ele>464</ele>
      </trkpt>
      <trkpt lat="45.76058" lon="4.29799">
        <ele>453</ele>
      </trkpt>
      <trkpt lat="45.76023" lon="4.29766">
        <ele>444</ele>
      </trkpt>
      <trkpt lat="45.76052" lon="4.29664">
        <ele>444</ele>
      </trkpt>
      <trkpt lat="45.76082" lon="4.29485">
        <ele>436</ele>
      </trkpt>
      <trkpt lat="45.76065" lon="4.29401">
        <ele>435</ele>
      </trkpt>
      <trkpt lat="45.76171" lon="4.29276">
        <ele>425</ele>
      </trkpt>
      <trkpt lat="45.76264" lon="4.29118">
        <ele>411</ele>
      </trkpt>
      <trkpt lat="45.76275" lon="4.29069">
        <ele>343</ele>
        <time>2017-04-13T09:28:43Z</time>
      </trkpt>
      <trkpt lat="45.76276" lon="4.29083">
        <ele>343</ele>
        <time>2017-04-13T09:28:46Z</time>
      </trkpt>
      <trkpt lat="45.76275" lon="4.29092">
        <ele>343</ele>
        <time>2017-04-13T09:28:48Z</time>
      </trkpt>
      <trkpt lat="45.76276" lon="4.291">
        <ele>343</ele>
        <time>2017-04-13T09:28:50Z</time>
      </trkpt>
      <trkpt lat="45.7628" lon="4.29111">
        <ele>343</ele>
        <time>2017-04-13T09:28:53Z</time>
      </trkpt>
      <trkpt lat="45.76281" lon="4.29119">
        <ele>343</ele>
        <time>2017-04-13T09:28:55Z</time>
      </trkpt>
      <trkpt lat="45.76282" lon="4.29127">
        <ele>343</ele>
        <time>2017-04-13T09:28:57Z</time>
      </trkpt>
      <trkpt lat="45.76286" lon="4.2914">
        <ele>344</ele>
        <time>2017-04-13T09:29:00Z</time>
      </trkpt>
      <trkpt lat="45.76293" lon="4.29148">
        <ele>344</ele>
        <time>2017-04-13T09:29:03Z</time>
      </trkpt>
      <trkpt lat="45.76298" lon="4.29151">
        <ele>344</ele>
        <time>2017-04-13T09:29:05Z</time>
      </trkpt>
      <trkpt lat="45.76304" lon="4.29155">
        <ele>344</ele>
        <time>2017-04-13T09:29:07Z</time>
      </trkpt>
      <trkpt lat="45.76313" lon="4.2916">
        <ele>344</ele>
        <time>2017-04-13T09:29:10Z</time>
      </trkpt>
      <trkpt lat="45.76325" lon="4.29166">
        <ele>344</ele>
        <time>2017-04-13T09:29:13Z</time>
      </trkpt>
      <trkpt lat="45.76339" lon="4.29171">
        <ele>344</ele>
        <time>2017-04-13T09:29:16Z</time>
      </trkpt>
      <trkpt lat="45.76347" lon="4.29174">
        <ele>344</ele>
        <time>2017-04-13T09:29:18Z</time>
      </trkpt>
      <trkpt lat="45.76355" lon="4.29176">
        <ele>344</ele>
        <time>2017-04-13T09:29:20Z</time>
      </trkpt>
      <trkpt lat="45.76361" lon="4.29178">
        <ele>344</ele>
        <time>2017-04-13T09:29:22Z</time>
      </trkpt>
      <trkpt lat="45.76368" lon="4.2918">
        <ele>344</ele>
        <time>2017-04-13T09:29:24Z</time>
      </trkpt>
      <trkpt lat="45.76378" lon="4.29183">
        <ele>343</ele>
        <time>2017-04-13T09:29:27Z</time>
      </trkpt>
      <trkpt lat="45.76384" lon="4.29185">
        <ele>343</ele>
        <time>2017-04-13T09:29:29Z</time>
      </trkpt>
      <trkpt lat="45.76393" lon="4.29186">
        <ele>343</ele>
        <time>2017-04-13T09:29:32Z</time>
      </trkpt>
      <trkpt lat="45.76398" lon="4.29187">
        <ele>344</ele>
        <time>2017-04-13T09:29:34Z</time>
      </trkpt>
      <trkpt lat="45.76405" lon="4.29188">
        <ele>344</ele>
        <time>2017-04-13T09:29:37Z</time>
      </trkpt>
      <trkpt lat="45.76408" lon="4.29189">
        <ele>344</ele>
        <time>2017-04-13T09:29:39Z</time>
      </trkpt>
      <trkpt lat="45.76413" lon="4.2919">
        <ele>344</ele>
        <time>2017-04-13T09:29:41Z</time>
      </trkpt>
      <trkpt lat="45.76417" lon="4.2919">
        <ele>344</ele>
        <time>2017-04-13T09:29:43Z</time>
      </trkpt>
      <trkpt lat="45.76421" lon="4.29191">
        <ele>343</ele>
        <time>2017-04-13T09:29:45Z</time>
      </trkpt>
      <trkpt lat="45.76426" lon="4.29192">
        <ele>343</ele>
        <time>2017-04-13T09:29:48Z</time>
      </trkpt>
      <trkpt lat="45.76432" lon="4.29192">
        <ele>344</ele>
        <time>2017-04-13T09:29:51Z</time>
      </trkpt>
      <trkpt lat="45.76435" lon="4.29192">
        <ele>344</ele>
        <time>2017-04-13T09:29:53Z</time>
      </trkpt>
      <trkpt lat="45.7644" lon="4.29192">
        <ele>344</ele>
        <time>2017-04-13T09:29:56Z</time>
      </trkpt>
      <trkpt lat="45.76445" lon="4.29192">
        <ele>344</ele>
        <time>2017-04-13T09:29:59Z</time>
      </trkpt>
      <trkpt lat="45.76448" lon="4.29192">
        <ele>344</ele>
        <time>2017-04-13T09:30:01Z</time>
      </trkpt>
      <trkpt lat="45.76452" lon="4.29192">
        <ele>344</ele>
        <time>2017-04-13T09:30:03Z</time>
      </trkpt>
      <trkpt lat="45.76457" lon="4.29192">
        <ele>344</ele>
        <time>2017-04-13T09:30:06Z</time>
      </trkpt>
      <trkpt lat="45.76461" lon="4.29192">
        <ele>344</ele>
        <time>2017-04-13T09:30:09Z</time>
      </trkpt>
      <trkpt lat="45.76463" lon="4.29192">
        <ele>344</ele>
        <time>2017-04-13T09:30:11Z</time>
      </trkpt>
      <trkpt lat="45.76467" lon="4.29192">
        <ele>344</ele>
        <time>2017-04-13T09:30:13Z</time>
      </trkpt>
      <trkpt lat="45.76471" lon="4.29191">
        <ele>344</ele>
        <time>2017-04-13T09:30:15Z</time>
      </trkpt>
      <trkpt lat="45.76473" lon="4.29191">
        <ele>344</ele>
        <time>2017-04-13T09:30:17Z</time>
      </trkpt>
      <trkpt lat="45.76476" lon="4.29191">
        <ele>344</ele>
        <time>2017-04-13T09:30:19Z</time>
      </trkpt>
      <trkpt lat="45.7648" lon="4.29191">
        <ele>344</ele>
        <time>2017-04-13T09:30:22Z</time>
      </trkpt>
      <trkpt lat="45.76482" lon="4.29191">
        <ele>344</ele>
        <time>2017-04-13T09:30:24Z</time>
      </trkpt>
      <trkpt lat="45.76485" lon="4.29192">
        <ele>344</ele>
        <time>2017-04-13T09:30:26Z</time>
      </trkpt>
      <trkpt lat="45.76488" lon="4.29192">
        <ele>344</ele>
        <time>2017-04-13T09:30:29Z</time>
      </trkpt>
      <trkpt lat="45.76491" lon="4.29192">
        <ele>344</ele>
        <time>2017-04-13T09:30:32Z</time>
      </trkpt>
      <trkpt lat="45.76494" lon="4.29192">
        <ele>344</ele>
        <time>2017-04-13T09:30:34Z</time>
      </trkpt>
      <trkpt lat="45.76498" lon="4.29193">
        <ele>344</ele>
        <time>2017-04-13T09:30:37Z</time>
      </trkpt>
      <trkpt lat="45.76503" lon="4.29192">
        <ele>345</ele>
        <time>2017-04-13T09:30:40Z</time>
      </trkpt>
      <trkpt lat="45.76506" lon="4.29191">
        <ele>346</ele>
        <time>2017-04-13T09:30:42Z</time>
      </trkpt>
      <trkpt lat="45.76509" lon="4.2919">
        <ele>346</ele>
        <time>2017-04-13T09:30:45Z</time>
      </trkpt>
      <trkpt lat="45.76512" lon="4.29189">
        <ele>346</ele>
        <time>2017-04-13T09:30:47Z</time>
      </trkpt>
      <trkpt lat="45.76516" lon="4.29186">
        <ele>346</ele>
        <time>2017-04-13T09:30:50Z</time>
      </trkpt>
      <trkpt lat="45.76519" lon="4.29183">
        <ele>347</ele>
        <time>2017-04-13T09:30:52Z</time>
      </trkpt>
      <trkpt lat="45.76522" lon="4.29181">
        <ele>347</ele>
        <time>2017-04-13T09:30:54Z</time>
      </trkpt>
      <trkpt lat="45.76524" lon="4.29178">
        <ele>347</ele>
        <time>2017-04-13T09:30:56Z</time>
      </trkpt>
      <trkpt lat="45.76527" lon="4.29174">
        <ele>347</ele>
        <time>2017-04-13T09:30:59Z</time>
      </trkpt>
      <trkpt lat="45.76529" lon="4.2917">
        <ele>347</ele>
        <time>2017-04-13T09:31:01Z</time>
      </trkpt>
      <trkpt lat="45.76532" lon="4.29164">
        <ele>347</ele>
        <time>2017-04-13T09:31:04Z</time>
      </trkpt>
      <trkpt lat="45.76535" lon="4.29161">
        <ele>347</ele>
        <time>2017-04-13T09:31:06Z</time>
      </trkpt>
      <trkpt lat="45.76538" lon="4.29159">
        <ele>347</ele>
        <time>2017-04-13T09:31:09Z</time>
      </trkpt>
      <trkpt lat="45.76542" lon="4.29157">
        <ele>347</ele>
        <time>2017-04-13T09:31:12Z</time>
      </trkpt>
      <trkpt lat="45.76544" lon="4.29156">
        <ele>347</ele>
        <time>2017-04-13T09:31:14Z</time>
      </trkpt>
      <trkpt lat="45.76546" lon="4.29155">
        <ele>347</ele>
        <time>2017-04-13T09:31:16Z</time>
      </trkpt>
      <trkpt lat="45.76548" lon="4.29154">
        <ele>346</ele>
        <time>2017-04-13T09:31:19Z</time>
      </trkpt>
      <trkpt lat="45.76552" lon="4.29153">
        <ele>345</ele>
        <time>2017-04-13T09:31:22Z</time>
      </trkpt>
      <trkpt lat="45.76555" lon="4.29152">
        <ele>345</ele>
        <time>2017-04-13T09:31:25Z</time>
      </trkpt>
      <trkpt lat="45.76557" lon="4.2915">
        <ele>345</ele>
        <time>2017-04-13T09:31:28Z</time>
      </trkpt>
      <trkpt lat="45.76559" lon="4.29149">
        <ele>345</ele>
        <time>2017-04-13T09:31:30Z</time>
      </trkpt>
      <trkpt lat="45.76563" lon="4.29147">
        <ele>344</ele>
        <time>2017-04-13T09:31:33Z</time>
      </trkpt>
      <trkpt lat="45.76564" lon="4.29147">
        <ele>344</ele>
        <time>2017-04-13T09:31:35Z</time>
      </trkpt>
      <trkpt lat="45.76569" lon="4.29145">
        <ele>344</ele>
        <time>2017-04-13T09:31:38Z</time>
      </trkpt>
      <trkpt lat="45.76571" lon="4.29143">
        <ele>344</ele>
        <time>2017-04-13T09:31:40Z</time>
      </trkpt>
      <trkpt lat="45.76575" lon="4.29142">
        <ele>344</ele>
        <time>2017-04-13T09:31:43Z</time>
      </trkpt>
      <trkpt lat="45.76578" lon="4.29142">
        <ele>345</ele>
        <time>2017-04-13T09:31:45Z</time>
      </trkpt>
      <trkpt lat="45.76582" lon="4.29141">
        <ele>345</ele>
        <time>2017-04-13T09:31:48Z</time>
      </trkpt>
      <trkpt lat="45.76585" lon="4.29142">
        <ele>345</ele>
        <time>2017-04-13T09:31:50Z</time>
      </trkpt>
      <trkpt lat="45.76589" lon="4.29142">
        <ele>344</ele>
        <time>2017-04-13T09:31:53Z</time>
      </trkpt>
      <trkpt lat="45.76594" lon="4.29142">
        <ele>344</ele>
        <time>2017-04-13T09:31:56Z</time>
      </trkpt>
      <trkpt lat="45.76598" lon="4.29141">
        <ele>344</ele>
        <time>2017-04-13T09:31:58Z</time>
      </trkpt>
      <trkpt lat="45.76601" lon="4.2914">
        <ele>345</ele>
        <time>2017-04-13T09:32:00Z</time>
      </trkpt>
      <trkpt lat="45.76606" lon="4.2914">
        <ele>345</ele>
        <time>2017-04-13T09:32:03Z</time>
      </trkpt>
      <trkpt lat="45.76611" lon="4.29139">
        <ele>345</ele>
        <time>2017-04-13T09:32:06Z</time>
      </trkpt>
      <trkpt lat="45.76616" lon="4.29138">
        <ele>345</ele>
        <time>2017-04-13T09:32:09Z</time>
      </trkpt>
      <trkpt lat="45.7662" lon="4.29138">
        <ele>345</ele>
        <time>2017-04-13T09:32:12Z</time>
      </trkpt>
      <trkpt lat="45.76625" lon="4.29138">
        <ele>345</ele>
        <time>2017-04-13T09:32:15Z</time>
      </trkpt>
      <trkpt lat="45.76631" lon="4.29138">
        <ele>345</ele>
        <time>2017-04-13T09:32:18Z</time>
      </trkpt>
      <trkpt lat="45.76633" lon="4.29138">
        <ele>345</ele>
        <time>2017-04-13T09:32:20Z</time>
      </trkpt>
      <trkpt lat="45.76637" lon="4.29138">
        <ele>345</ele>
        <time>2017-04-13T09:32:22Z</time>
      </trkpt>
      <trkpt lat="45.7664" lon="4.29138">
        <ele>345</ele>
        <time>2017-04-13T09:32:24Z</time>
      </trkpt>
      <trkpt lat="45.76643" lon="4.29138">
        <ele>345</ele>
        <time>2017-04-13T09:32:26Z</time>
      </trkpt>
      <trkpt lat="45.76649" lon="4.29138">
        <ele>345</ele>
        <time>2017-04-13T09:32:29Z</time>
      </trkpt>
      <trkpt lat="45.76654" lon="4.29138">
        <ele>344</ele>
        <time>2017-04-13T09:32:32Z</time>
      </trkpt>
      <trkpt lat="45.76659" lon="4.29138">
        <ele>344</ele>
        <time>2017-04-13T09:32:35Z</time>
      </trkpt>
      <trkpt lat="45.76662" lon="4.29138">
        <ele>345</ele>
        <time>2017-04-13T09:32:37Z</time>
      </trkpt>
      <trkpt lat="45.76666" lon="4.29138">
        <ele>345</ele>
        <time>2017-04-13T09:32:39Z</time>
      </trkpt>
      <trkpt lat="45.76671" lon="4.29138">
        <ele>345</ele>
        <time>2017-04-13T09:32:42Z</time>
      </trkpt>
      <trkpt lat="45.76674" lon="4.29138">
        <ele>344</ele>
        <time>2017-04-13T09:32:44Z</time>
      </trkpt>
      <trkpt lat="45.76677" lon="4.29137">
        <ele>344</ele>
        <time>2017-04-13T09:32:46Z</time>
      </trkpt>
      <trkpt lat="45.76683" lon="4.29137">
        <ele>344</ele>
        <time>2017-04-13T09:32:49Z</time>
      </trkpt>
      <trkpt lat="45.76686" lon="4.29137">
        <ele>344</ele>
        <time>2017-04-13T09:32:51Z</time>
      </trkpt>
      <trkpt lat="45.7669" lon="4.29136">
        <ele>344</ele>
        <time>2017-04-13T09:32:53Z</time>
      </trkpt>
      <trkpt lat="45.76693" lon="4.29136">
        <ele>344</ele>
        <time>2017-04-13T09:32:55Z</time>
      </trkpt>
      <trkpt lat="45.76698" lon="4.29136">
        <ele>344</ele>
        <time>2017-04-13T09:32:58Z</time>
      </trkpt>
      <trkpt lat="45.76702" lon="4.29136">
        <ele>345</ele>
        <time>2017-04-13T09:33:01Z</time>
      </trkpt>
      <trkpt lat="45.76706" lon="4.29135">
        <ele>345</ele>
        <time>2017-04-13T09:33:03Z</time>
      </trkpt>
      <trkpt lat="45.76709" lon="4.29135">
        <ele>345</ele>
        <time>2017-04-13T09:33:05Z</time>
      </trkpt>
      <trkpt lat="45.76714" lon="4.29135">
        <ele>345</ele>
        <time>2017-04-13T09:33:08Z</time>
      </trkpt>
      <trkpt lat="45.7672" lon="4.29135">
        <ele>345</ele>
        <time>2017-04-13T09:33:11Z</time>
      </trkpt>
      <trkpt lat="45.76724" lon="4.29134">
        <ele>345</ele>
        <time>2017-04-13T09:33:14Z</time>
      </trkpt>
      <trkpt lat="45.76728" lon="4.29134">
        <ele>345</ele>
        <time>2017-04-13T09:33:16Z</time>
      </trkpt>
      <trkpt lat="45.76733" lon="4.29134">
        <ele>344</ele>
        <time>2017-04-13T09:33:19Z</time>
      </trkpt>
      <trkpt lat="45.76737" lon="4.29133">
        <ele>345</ele>
        <time>2017-04-13T09:33:22Z</time>
      </trkpt>
      <trkpt lat="45.76741" lon="4.29133">
        <ele>345</ele>
        <time>2017-04-13T09:33:24Z</time>
      </trkpt>
      <trkpt lat="45.76744" lon="4.29132">
        <ele>345</ele>
        <time>2017-04-13T09:33:26Z</time>
      </trkpt>
      <trkpt lat="45.76749" lon="4.29132">
        <ele>345</ele>
        <time>2017-04-13T09:33:29Z</time>
      </trkpt>
      <trkpt lat="45.76752" lon="4.29132">
        <ele>345</ele>
        <time>2017-04-13T09:33:31Z</time>
      </trkpt>
      <trkpt lat="45.76757" lon="4.29132">
        <ele>345</ele>
        <time>2017-04-13T09:33:34Z</time>
      </trkpt>
      <trkpt lat="45.76759" lon="4.29132">
        <ele>346</ele>
        <time>2017-04-13T09:33:36Z</time>
      </trkpt>
      <trkpt lat="45.76762" lon="4.29132">
        <ele>346</ele>
        <time>2017-04-13T09:33:38Z</time>
      </trkpt>
      <trkpt lat="45.76765" lon="4.29134">
        <ele>346</ele>
        <time>2017-04-13T09:33:40Z</time>
      </trkpt>
      <trkpt lat="45.7677" lon="4.29133">
        <ele>346</ele>
        <time>2017-04-13T09:33:43Z</time>
      </trkpt>
      <trkpt lat="45.76773" lon="4.29133">
        <ele>346</ele>
        <time>2017-04-13T09:33:45Z</time>
      </trkpt>
      <trkpt lat="45.76777" lon="4.29132">
        <ele>345</ele>
        <time>2017-04-13T09:33:48Z</time>
      </trkpt>
      <trkpt lat="45.7678" lon="4.29131">
        <ele>345</ele>
        <time>2017-04-13T09:33:50Z</time>
      </trkpt>
      <trkpt lat="45.76783" lon="4.29129">
        <ele>346</ele>
        <time>2017-04-13T09:33:52Z</time>
      </trkpt>
      <trkpt lat="45.76786" lon="4.29128">
        <ele>346</ele>
        <time>2017-04-13T09:33:54Z</time>
      </trkpt>
      <trkpt lat="45.76789" lon="4.29127">
        <ele>346</ele>
        <time>2017-04-13T09:33:57Z</time>
      </trkpt>
      <trkpt lat="45.76792" lon="4.29125">
        <ele>346</ele>
        <time>2017-04-13T09:33:59Z</time>
      </trkpt>
      <trkpt lat="45.76796" lon="4.29123">
        <ele>346</ele>
        <time>2017-04-13T09:34:02Z</time>
      </trkpt>
      <trkpt lat="45.76799" lon="4.29121">
        <ele>346</ele>
        <time>2017-04-13T09:34:04Z</time>
      </trkpt>
      <trkpt lat="45.76802" lon="4.2912">
        <ele>346</ele>
        <time>2017-04-13T09:34:06Z</time>
      </trkpt>
      <trkpt lat="45.76805" lon="4.29118">
        <ele>346</ele>
        <time>2017-04-13T09:34:08Z</time>
      </trkpt>
      <trkpt lat="45.76809" lon="4.29117">
        <ele>347</ele>
        <time>2017-04-13T09:34:10Z</time>
      </trkpt>
      <trkpt lat="45.76814" lon="4.29114">
        <ele>347</ele>
        <time>2017-04-13T09:34:13Z</time>
      </trkpt>
      <trkpt lat="45.76818" lon="4.29112">
        <ele>347</ele>
        <time>2017-04-13T09:34:16Z</time>
      </trkpt>
      <trkpt lat="45.76822" lon="4.2911">
        <ele>347</ele>
        <time>2017-04-13T09:34:18Z</time>
      </trkpt>
      <trkpt lat="45.76825" lon="4.29108">
        <ele>347</ele>
        <time>2017-04-13T09:34:20Z</time>
      </trkpt>
      <trkpt lat="45.76827" lon="4.29107">
        <ele>347</ele>
        <time>2017-04-13T09:34:22Z</time>
      </trkpt>
      <trkpt lat="45.76829" lon="4.29105">
        <ele>347</ele>
        <time>2017-04-13T09:34:24Z</time>
      </trkpt>
      <trkpt lat="45.76832" lon="4.29103">
        <ele>348</ele>
        <time>2017-04-13T09:34:26Z</time>
      </trkpt>
      <trkpt lat="45.76835" lon="4.291">
        <ele>348</ele>
        <time>2017-04-13T09:34:29Z</time>
      </trkpt>
      <trkpt lat="45.76839" lon="4.29098">
        <ele>348</ele>
        <time>2017-04-13T09:34:32Z</time>
      </trkpt>
      <trkpt lat="45.76843" lon="4.29095">
        <ele>347</ele>
        <time>2017-04-13T09:34:35Z</time>
      </trkpt>
      <trkpt lat="45.76846" lon="4.29093">
        <ele>348</ele>
        <time>2017-04-13T09:34:37Z</time>
      </trkpt>
      <trkpt lat="45.76848" lon="4.2909">
        <ele>348</ele>
        <time>2017-04-13T09:34:39Z</time>
      </trkpt>
      <trkpt lat="45.76853" lon="4.29087">
        <ele>348</ele>
        <time>2017-04-13T09:34:42Z</time>
      </trkpt>
      <trkpt lat="45.76858" lon="4.29084">
        <ele>348</ele>
        <time>2017-04-13T09:34:45Z</time>
      </trkpt>
      <trkpt lat="45.7686" lon="4.29083">
        <ele>348</ele>
        <time>2017-04-13T09:34:47Z</time>
      </trkpt>
      <trkpt lat="45.76865" lon="4.2908">
        <ele>348</ele>
        <time>2017-04-13T09:34:50Z</time>
      </trkpt>
      <trkpt lat="45.76867" lon="4.29078">
        <ele>348</ele>
        <time>2017-04-13T09:34:52Z</time>
      </trkpt>
      <trkpt lat="45.7687" lon="4.29076">
        <ele>348</ele>
        <time>2017-04-13T09:34:54Z</time>
      </trkpt>
      <trkpt lat="45.76873" lon="4.29074">
        <ele>348</ele>
        <time>2017-04-13T09:34:57Z</time>
      </trkpt>
      <trkpt lat="45.76874" lon="4.29073">
        <ele>348</ele>
        <time>2017-04-13T09:34:59Z</time>
      </trkpt>
      <trkpt lat="45.76876" lon="4.29071">
        <ele>348</ele>
        <time>2017-04-13T09:35:01Z</time>
      </trkpt>
      <trkpt lat="45.7688" lon="4.29069">
        <ele>348</ele>
        <time>2017-04-13T09:35:04Z</time>
      </trkpt>
      <trkpt lat="45.76882" lon="4.29067">
        <ele>348</ele>
        <time>2017-04-13T09:35:06Z</time>
      </trkpt>
      <trkpt lat="45.76886" lon="4.29065">
        <ele>348</ele>
        <time>2017-04-13T09:35:09Z</time>
      </trkpt>
      <trkpt lat="45.76887" lon="4.29065">
        <ele>348</ele>
        <time>2017-04-13T09:35:12Z</time>
      </trkpt>
      <trkpt lat="45.76889" lon="4.29063">
        <ele>348</ele>
        <time>2017-04-13T09:35:14Z</time>
      </trkpt>
      <trkpt lat="45.76893" lon="4.2906">
        <ele>348</ele>
        <time>2017-04-13T09:35:17Z</time>
      </trkpt>
      <trkpt lat="45.76896" lon="4.29057">
        <ele>348</ele>
        <time>2017-04-13T09:35:19Z</time>
      </trkpt>
      <trkpt lat="45.76898" lon="4.29055">
        <ele>348</ele>
        <time>2017-04-13T09:35:21Z</time>
      </trkpt>
      <trkpt lat="45.76901" lon="4.29053">
        <ele>348</ele>
        <time>2017-04-13T09:35:23Z</time>
      </trkpt>
      <trkpt lat="45.76905" lon="4.29051">
        <ele>348</ele>
        <time>2017-04-13T09:35:26Z</time>
      </trkpt>
      <trkpt lat="45.76908" lon="4.29049">
        <ele>348</ele>
        <time>2017-04-13T09:35:28Z</time>
      </trkpt>
      <trkpt lat="45.7691" lon="4.29047">
        <ele>348</ele>
        <time>2017-04-13T09:35:30Z</time>
      </trkpt>
      <trkpt lat="45.76914" lon="4.29044">
        <ele>348</ele>
        <time>2017-04-13T09:35:33Z</time>
      </trkpt>
      <trkpt lat="45.76916" lon="4.29042">
        <ele>348</ele>
        <time>2017-04-13T09:35:35Z</time>
      </trkpt>
      <trkpt lat="45.76919" lon="4.2904">
        <ele>348</ele>
        <time>2017-04-13T09:35:37Z</time>
      </trkpt>
      <trkpt lat="45.76922" lon="4.29039">
        <ele>348</ele>
        <time>2017-04-13T09:35:39Z</time>
      </trkpt>
      <trkpt lat="45.76926" lon="4.29036">
        <ele>348</ele>
        <time>2017-04-13T09:35:42Z</time>
      </trkpt>
      <trkpt lat="45.76929" lon="4.29035">
        <ele>348</ele>
        <time>2017-04-13T09:35:44Z</time>
      </trkpt>
      <trkpt lat="45.76932" lon="4.29033">
        <ele>348</ele>
        <time>2017-04-13T09:35:46Z</time>
      </trkpt>
      <trkpt lat="45.76936" lon="4.2903">
        <ele>348</ele>
        <time>2017-04-13T09:35:49Z</time>
      </trkpt>
      <trkpt lat="45.76941" lon="4.29028">
        <ele>348</ele>
        <time>2017-04-13T09:35:52Z</time>
      </trkpt>
      <trkpt lat="45.76943" lon="4.29026">
        <ele>348</ele>
        <time>2017-04-13T09:35:54Z</time>
      </trkpt>
      <trkpt lat="45.76945" lon="4.29025">
        <ele>348</ele>
        <time>2017-04-13T09:35:56Z</time>
      </trkpt>
      <trkpt lat="45.76949" lon="4.29023">
        <ele>348</ele>
        <time>2017-04-13T09:35:59Z</time>
      </trkpt>
      <trkpt lat="45.76952" lon="4.2902">
        <ele>348</ele>
        <time>2017-04-13T09:36:01Z</time>
      </trkpt>
      <trkpt lat="45.76955" lon="4.29019">
        <ele>348</ele>
        <time>2017-04-13T09:36:03Z</time>
      </trkpt>
      <trkpt lat="45.76958" lon="4.29017">
        <ele>348</ele>
        <time>2017-04-13T09:36:05Z</time>
      </trkpt>
      <trkpt lat="45.76963" lon="4.29015">
        <ele>348</ele>
        <time>2017-04-13T09:36:08Z</time>
      </trkpt>
      <trkpt lat="45.76966" lon="4.29013">
        <ele>348</ele>
        <time>2017-04-13T09:36:10Z</time>
      </trkpt>
      <trkpt lat="45.7697" lon="4.2901">
        <ele>348</ele>
        <time>2017-04-13T09:36:13Z</time>
      </trkpt>
      <trkpt lat="45.76974" lon="4.29008">
        <ele>348</ele>
        <time>2017-04-13T09:36:16Z</time>
      </trkpt>
      <trkpt lat="45.76977" lon="4.29006">
        <ele>349</ele>
        <time>2017-04-13T09:36:18Z</time>
      </trkpt>
      <trkpt lat="45.76981" lon="4.29004">
        <ele>349</ele>
        <time>2017-04-13T09:36:21Z</time>
      </trkpt>
      <trkpt lat="45.76985" lon="4.29001">
        <ele>349</ele>
        <time>2017-04-13T09:36:24Z</time>
      </trkpt>
      <trkpt lat="45.76987" lon="4.29">
        <ele>349</ele>
        <time>2017-04-13T09:36:26Z</time>
      </trkpt>
      <trkpt lat="45.7699" lon="4.28997">
        <ele>349</ele>
        <time>2017-04-13T09:36:29Z</time>
      </trkpt>
      <trkpt lat="45.76992" lon="4.28996">
        <ele>349</ele>
        <time>2017-04-13T09:36:31Z</time>
      </trkpt>
      <trkpt lat="45.76995" lon="4.28994">
        <ele>349</ele>
        <time>2017-04-13T09:36:34Z</time>
      </trkpt>
      <trkpt lat="45.76998" lon="4.28993">
        <ele>349</ele>
        <time>2017-04-13T09:36:36Z</time>
      </trkpt>
      <trkpt lat="45.77002" lon="4.2899">
        <ele>349</ele>
        <time>2017-04-13T09:36:39Z</time>
      </trkpt>
      <trkpt lat="45.77005" lon="4.28989">
        <ele>349</ele>
        <time>2017-04-13T09:36:41Z</time>
      </trkpt>
      <trkpt lat="45.77009" lon="4.28987">
        <ele>349</ele>
        <time>2017-04-13T09:36:44Z</time>
      </trkpt>
      <trkpt lat="45.77012" lon="4.28985">
        <ele>349</ele>
        <time>2017-04-13T09:36:46Z</time>
      </trkpt>
      <trkpt lat="45.77015" lon="4.28984">
        <ele>349</ele>
        <time>2017-04-13T09:36:48Z</time>
      </trkpt>
      <trkpt lat="45.77018" lon="4.28983">
        <ele>349</ele>
        <time>2017-04-13T09:36:50Z</time>
      </trkpt>
      <trkpt lat="45.77023" lon="4.2898">
        <ele>349</ele>
        <time>2017-04-13T09:36:53Z</time>
      </trkpt>
      <trkpt lat="45.77027" lon="4.28978">
        <ele>349</ele>
        <time>2017-04-13T09:36:56Z</time>
      </trkpt>
      <trkpt lat="45.77032" lon="4.28976">
        <ele>349</ele>
        <time>2017-04-13T09:36:59Z</time>
      </trkpt>
      <trkpt lat="45.77035" lon="4.28975">
        <ele>349</ele>
        <time>2017-04-13T09:37:01Z</time>
      </trkpt>
      <trkpt lat="45.77038" lon="4.28973">
        <ele>349</ele>
        <time>2017-04-13T09:37:03Z</time>
      </trkpt>
      <trkpt lat="45.77042" lon="4.28971">
        <ele>349</ele>
        <time>2017-04-13T09:37:06Z</time>
      </trkpt>
      <trkpt lat="45.77046" lon="4.28968">
        <ele>349</ele>
        <time>2017-04-13T09:37:09Z</time>
      </trkpt>
      <trkpt lat="45.77049" lon="4.28967">
        <ele>349</ele>
        <time>2017-04-13T09:37:11Z</time>
      </trkpt>
      <trkpt lat="45.77052" lon="4.28966">
        <ele>349</ele>
        <time>2017-04-13T09:37:13Z</time>
      </trkpt>
      <trkpt lat="45.77055" lon="4.28965">
        <ele>349</ele>
        <time>2017-04-13T09:37:15Z</time>
      </trkpt>
      <trkpt lat="45.77058" lon="4.28963">
        <ele>349</ele>
        <time>2017-04-13T09:37:18Z</time>
      </trkpt>
      <trkpt lat="45.77059" lon="4.28962">
        <ele>349</ele>
        <time>2017-04-13T09:37:20Z</time>
      </trkpt>
      <trkpt lat="45.7706" lon="4.28962">
        <ele>350</ele>
        <time>2017-04-13T09:37:22Z</time>
      </trkpt>
      <trkpt lat="45.77061" lon="4.28962">
        <ele>349</ele>
        <time>2017-04-13T09:37:24Z</time>
      </trkpt>
      <trkpt lat="45.77063" lon="4.28961">
        <ele>349</ele>
        <time>2017-04-13T09:37:26Z</time>
      </trkpt>
      <trkpt lat="45.77066" lon="4.2896">
        <ele>350</ele>
        <time>2017-04-13T09:37:28Z</time>
      </trkpt>
      <trkpt lat="45.7707" lon="4.28958">
        <ele>349</ele>
        <time>2017-04-13T09:37:31Z</time>
      </trkpt>
      <trkpt lat="45.77075" lon="4.28956">
        <ele>349</ele>
        <time>2017-04-13T09:37:34Z</time>
      </trkpt>
      <trkpt lat="45.77079" lon="4.28954">
        <ele>349</ele>
        <time>2017-04-13T09:37:37Z</time>
      </trkpt>
      <trkpt lat="45.77082" lon="4.28953">
        <ele>350</ele>
        <time>2017-04-13T09:37:39Z</time>
      </trkpt>
      <trkpt lat="45.77085" lon="4.28952">
        <ele>350</ele>
        <time>2017-04-13T09:37:41Z</time>
      </trkpt>
      <trkpt lat="45.7709" lon="4.2895">
        <ele>350</ele>
        <time>2017-04-13T09:37:44Z</time>
      </trkpt>
      <trkpt lat="45.77093" lon="4.28949">
        <ele>350</ele>
        <time>2017-04-13T09:37:46Z</time>
      </trkpt>
      <trkpt lat="45.77097" lon="4.28947">
        <ele>350</ele>
        <time>2017-04-13T09:37:49Z</time>
      </trkpt>
      <trkpt lat="45.771" lon="4.28946">
        <ele>350</ele>
        <time>2017-04-13T09:37:51Z</time>
      </trkpt>
      <trkpt lat="45.77104" lon="4.28945">
        <ele>350</ele>
        <time>2017-04-13T09:37:54Z</time>
      </trkpt>
      <trkpt lat="45.77108" lon="4.28943">
        <ele>350</ele>
        <time>2017-04-13T09:37:57Z</time>
      </trkpt>
      <trkpt lat="45.77111" lon="4.28942">
        <ele>350</ele>
        <time>2017-04-13T09:38:00Z</time>
      </trkpt>
      <trkpt lat="45.77114" lon="4.28941">
        <ele>350</ele>
        <time>2017-04-13T09:38:02Z</time>
      </trkpt>
      <trkpt lat="45.77117" lon="4.28941">
        <ele>350</ele>
        <time>2017-04-13T09:38:04Z</time>
      </trkpt>
      <trkpt lat="45.77119" lon="4.2894">
        <ele>350</ele>
        <time>2017-04-13T09:38:06Z</time>
      </trkpt>
      <trkpt lat="45.77121" lon="4.28939">
        <ele>350</ele>
        <time>2017-04-13T09:38:08Z</time>
      </trkpt>
      <trkpt lat="45.77125" lon="4.28937">
        <ele>350</ele>
        <time>2017-04-13T09:38:11Z</time>
      </trkpt>
      <trkpt lat="45.7713" lon="4.28936">
        <ele>350</ele>
        <time>2017-04-13T09:38:14Z</time>
      </trkpt>
      <trkpt lat="45.77135" lon="4.28935">
        <ele>351</ele>
        <time>2017-04-13T09:38:17Z</time>
      </trkpt>
      <trkpt lat="45.77139" lon="4.28934">
        <ele>351</ele>
        <time>2017-04-13T09:38:20Z</time>
      </trkpt>
      <trkpt lat="45.77141" lon="4.28934">
        <ele>351</ele>
        <time>2017-04-13T09:38:22Z</time>
      </trkpt>
      <trkpt lat="45.77144" lon="4.28933">
        <ele>351</ele>
        <time>2017-04-13T09:38:24Z</time>
      </trkpt>
      <trkpt lat="45.77147" lon="4.28932">
        <ele>350</ele>
        <time>2017-04-13T09:38:26Z</time>
      </trkpt>
      <trkpt lat="45.7715" lon="4.28932">
        <ele>351</ele>
        <time>2017-04-13T09:38:28Z</time>
      </trkpt>
      <trkpt lat="45.77152" lon="4.28932">
        <ele>351</ele>
        <time>2017-04-13T09:38:30Z</time>
      </trkpt>
      <trkpt lat="45.77156" lon="4.28932">
        <ele>351</ele>
        <time>2017-04-13T09:38:33Z</time>
      </trkpt>
      <trkpt lat="45.7716" lon="4.28932">
        <ele>351</ele>
        <time>2017-04-13T09:38:35Z</time>
      </trkpt>
      <trkpt lat="45.77164" lon="4.28931">
        <ele>351</ele>
        <time>2017-04-13T09:38:37Z</time>
      </trkpt>
      <trkpt lat="45.77171" lon="4.2893">
        <ele>351</ele>
        <time>2017-04-13T09:38:40Z</time>
      </trkpt>
      <trkpt lat="45.77174" lon="4.28929">
        <ele>351</ele>
        <time>2017-04-13T09:38:42Z</time>
      </trkpt>
      <trkpt lat="45.77177" lon="4.28928">
        <ele>351</ele>
        <time>2017-04-13T09:38:44Z</time>
      </trkpt>
      <trkpt lat="45.7718" lon="4.28927">
        <ele>351</ele>
        <time>2017-04-13T09:38:46Z</time>
      </trkpt>
      <trkpt lat="45.77185" lon="4.28926">
        <ele>351</ele>
        <time>2017-04-13T09:38:49Z</time>
      </trkpt>
      <trkpt lat="45.77188" lon="4.28925">
        <ele>351</ele>
        <time>2017-04-13T09:38:51Z</time>
      </trkpt>
      <trkpt lat="45.77192" lon="4.28924">
        <ele>351</ele>
        <time>2017-04-13T09:38:53Z</time>
      </trkpt>
      <trkpt lat="45.77196" lon="4.28922">
        <ele>351</ele>
        <time>2017-04-13T09:38:56Z</time>
      </trkpt>
      <trkpt lat="45.77199" lon="4.28922">
        <ele>351</ele>
        <time>2017-04-13T09:38:58Z</time>
      </trkpt>
      <trkpt lat="45.77201" lon="4.28921">
        <ele>351</ele>
        <time>2017-04-13T09:39:00Z</time>
      </trkpt>
      <trkpt lat="45.77205" lon="4.2892">
        <ele>352</ele>
        <time>2017-04-13T09:39:03Z</time>
      </trkpt>
      <trkpt lat="45.77208" lon="4.28919">
        <ele>352</ele>
        <time>2017-04-13T09:39:05Z</time>
      </trkpt>
      <trkpt lat="45.77212" lon="4.28918">
        <ele>352</ele>
        <time>2017-04-13T09:39:08Z</time>
      </trkpt>
      <trkpt lat="45.77215" lon="4.28918">
        <ele>352</ele>
        <time>2017-04-13T09:39:10Z</time>
      </trkpt>
      <trkpt lat="45.77219" lon="4.28917">
        <ele>352</ele>
        <time>2017-04-13T09:39:13Z</time>
      </trkpt>
      <trkpt lat="45.77221" lon="4.28917">
        <ele>352</ele>
        <time>2017-04-13T09:39:15Z</time>
      </trkpt>
      <trkpt lat="45.77223" lon="4.28916">
        <ele>352</ele>
        <time>2017-04-13T09:39:17Z</time>
      </trkpt>
      <trkpt lat="45.77228" lon="4.28914">
        <ele>352</ele>
        <time>2017-04-13T09:39:20Z</time>
      </trkpt>
      <trkpt lat="45.77232" lon="4.28913">
        <ele>352</ele>
        <time>2017-04-13T09:39:23Z</time>
      </trkpt>
      <trkpt lat="45.77235" lon="4.28912">
        <ele>352</ele>
        <time>2017-04-13T09:39:25Z</time>
      </trkpt>
      <trkpt lat="45.77237" lon="4.28912">
        <ele>352</ele>
        <time>2017-04-13T09:39:27Z</time>
      </trkpt>
      <trkpt lat="45.7724" lon="4.28912">
        <ele>352</ele>
        <time>2017-04-13T09:39:29Z</time>
      </trkpt>
      <trkpt lat="45.77242" lon="4.28912">
        <ele>352</ele>
        <time>2017-04-13T09:39:31Z</time>
      </trkpt>
      <trkpt lat="45.77245" lon="4.28912">
        <ele>352</ele>
        <time>2017-04-13T09:39:33Z</time>
      </trkpt>
      <trkpt lat="45.77249" lon="4.28912">
        <ele>352</ele>
        <time>2017-04-13T09:39:36Z</time>
      </trkpt>
      <trkpt lat="45.77254" lon="4.28911">
        <ele>352</ele>
        <time>2017-04-13T09:39:39Z</time>
      </trkpt>
      <trkpt lat="45.77258" lon="4.28911">
        <ele>352</ele>
        <time>2017-04-13T09:39:42Z</time>
      </trkpt>
      <trkpt lat="45.77261" lon="4.2891">
        <ele>353</ele>
        <time>2017-04-13T09:39:45Z</time>
      </trkpt>
      <trkpt lat="45.77264" lon="4.28909">
        <ele>353</ele>
        <time>2017-04-13T09:39:47Z</time>
      </trkpt>
      <trkpt lat="45.77266" lon="4.28909">
        <ele>353</ele>
        <time>2017-04-13T09:39:49Z</time>
      </trkpt>
      <trkpt lat="45.77268" lon="4.28907">
        <ele>353</ele>
        <time>2017-04-13T09:39:52Z</time>
      </trkpt>
      <trkpt lat="45.77271" lon="4.28904">
        <ele>353</ele>
        <time>2017-04-13T09:39:55Z</time>
      </trkpt>
      <trkpt lat="45.77274" lon="4.28902">
        <ele>353</ele>
        <time>2017-04-13T09:39:57Z</time>
      </trkpt>
      <trkpt lat="45.77277" lon="4.28897">
        <ele>353</ele>
        <time>2017-04-13T09:40:00Z</time>
      </trkpt>
      <trkpt lat="45.7728" lon="4.28895">
        <ele>353</ele>
        <time>2017-04-13T09:40:02Z</time>
      </trkpt>
      <trkpt lat="45.77283" lon="4.28892">
        <ele>353</ele>
        <time>2017-04-13T09:40:05Z</time>
      </trkpt>
      <trkpt lat="45.77285" lon="4.28889">
        <ele>353</ele>
        <time>2017-04-13T09:40:07Z</time>
      </trkpt>
      <trkpt lat="45.77288" lon="4.28885">
        <ele>354</ele>
        <time>2017-04-13T09:40:10Z</time>
      </trkpt>
      <trkpt lat="45.77291" lon="4.2888">
        <ele>354</ele>
        <time>2017-04-13T09:40:13Z</time>
      </trkpt>
      <trkpt lat="45.77294" lon="4.28877">
        <ele>354</ele>
        <time>2017-04-13T09:40:15Z</time>
      </trkpt>
      <trkpt lat="45.77297" lon="4.28874">
        <ele>353</ele>
        <time>2017-04-13T09:40:18Z</time>
      </trkpt>
      <trkpt lat="45.77301" lon="4.28871">
        <ele>353</ele>
        <time>2017-04-13T09:40:21Z</time>
      </trkpt>
      <trkpt lat="45.77304" lon="4.28867">
        <ele>354</ele>
        <time>2017-04-13T09:40:23Z</time>
      </trkpt>
      <trkpt lat="45.77308" lon="4.28864">
        <ele>354</ele>
        <time>2017-04-13T09:40:26Z</time>
      </trkpt>
      <trkpt lat="45.7731" lon="4.28861">
        <ele>354</ele>
        <time>2017-04-13T09:40:28Z</time>
      </trkpt>
      <trkpt lat="45.77313" lon="4.28859">
        <ele>354</ele>
        <time>2017-04-13T09:40:30Z</time>
      </trkpt>
      <trkpt lat="45.77315" lon="4.28856">
        <ele>354</ele>
        <time>2017-04-13T09:40:32Z</time>
      </trkpt>
      <trkpt lat="45.77318" lon="4.28853">
        <ele>354</ele>
        <time>2017-04-13T09:40:34Z</time>
      </trkpt>
      <trkpt lat="45.77321" lon="4.2885">
        <ele>354</ele>
        <time>2017-04-13T09:40:36Z</time>
      </trkpt>
      <trkpt lat="45.77326" lon="4.28846">
        <ele>353</ele>
        <time>2017-04-13T09:40:39Z</time>
      </trkpt>
      <trkpt lat="45.77329" lon="4.28844">
        <ele>354</ele>
        <time>2017-04-13T09:40:41Z</time>
      </trkpt>
      <trkpt lat="45.77334" lon="4.2884">
        <ele>354</ele>
        <time>2017-04-13T09:40:44Z</time>
      </trkpt>
      <trkpt lat="45.77337" lon="4.28838">
        <ele>354</ele>
        <time>2017-04-13T09:40:46Z</time>
      </trkpt>
      <trkpt lat="45.7734" lon="4.28835">
        <ele>354</ele>
        <time>2017-04-13T09:40:48Z</time>
      </trkpt>
      <trkpt lat="45.77342" lon="4.28832">
        <ele>354</ele>
        <time>2017-04-13T09:40:50Z</time>
      </trkpt>
      <trkpt lat="45.77346" lon="4.28829">
        <ele>354</ele>
        <time>2017-04-13T09:40:53Z</time>
      </trkpt>
      <trkpt lat="45.77349" lon="4.28825">
        <ele>354</ele>
        <time>2017-04-13T09:40:56Z</time>
      </trkpt>
      <trkpt lat="45.77352" lon="4.28824">
        <ele>354</ele>
        <time>2017-04-13T09:40:58Z</time>
      </trkpt>
      <trkpt lat="45.77356" lon="4.28822">
        <ele>354</ele>
        <time>2017-04-13T09:41:01Z</time>
      </trkpt>
      <trkpt lat="45.7736" lon="4.28819">
        <ele>354</ele>
        <time>2017-04-13T09:41:04Z</time>
      </trkpt>
      <trkpt lat="45.77364" lon="4.28817">
        <ele>354</ele>
        <time>2017-04-13T09:41:07Z</time>
      </trkpt>
      <trkpt lat="45.77367" lon="4.28816">
        <ele>354</ele>
        <time>2017-04-13T09:41:09Z</time>
      </trkpt>
      <trkpt lat="45.7737" lon="4.28815">
        <ele>354</ele>
        <time>2017-04-13T09:41:11Z</time>
      </trkpt>
      <trkpt lat="45.77375" lon="4.28813">
        <ele>354</ele>
        <time>2017-04-13T09:41:14Z</time>
      </trkpt>
      <trkpt lat="45.77379" lon="4.28813">
        <ele>354</ele>
        <time>2017-04-13T09:41:16Z</time>
      </trkpt>
      <trkpt lat="45.77383" lon="4.28813">
        <ele>354</ele>
        <time>2017-04-13T09:41:19Z</time>
      </trkpt>
      <trkpt lat="45.77384" lon="4.28812">
        <ele>354</ele>
        <time>2017-04-13T09:41:21Z</time>
      </trkpt>
      <trkpt lat="45.77386" lon="4.28812">
        <ele>354</ele>
        <time>2017-04-13T09:41:23Z</time>
      </trkpt>
      <trkpt lat="45.77389" lon="4.28811">
        <ele>354</ele>
        <time>2017-04-13T09:41:25Z</time>
      </trkpt>
      <trkpt lat="45.77392" lon="4.28811">
        <ele>354</ele>
        <time>2017-04-13T09:41:27Z</time>
      </trkpt>
      <trkpt lat="45.77398" lon="4.28811">
        <ele>354</ele>
        <time>2017-04-13T09:41:30Z</time>
      </trkpt>
      <trkpt lat="45.77402" lon="4.28811">
        <ele>354</ele>
        <time>2017-04-13T09:41:32Z</time>
      </trkpt>
      <trkpt lat="45.77405" lon="4.28812">
        <ele>354</ele>
        <time>2017-04-13T09:41:34Z</time>
      </trkpt>
      <trkpt lat="45.77409" lon="4.28813">
        <ele>354</ele>
        <time>2017-04-13T09:41:37Z</time>
      </trkpt>
      <trkpt lat="45.77414" lon="4.28814">
        <ele>354</ele>
        <time>2017-04-13T09:41:40Z</time>
      </trkpt>
      <trkpt lat="45.77418" lon="4.28816">
        <ele>354</ele>
        <time>2017-04-13T09:41:43Z</time>
      </trkpt>
      <trkpt lat="45.7742" lon="4.28817">
        <ele>354</ele>
        <time>2017-04-13T09:41:45Z</time>
      </trkpt>
      <trkpt lat="45.77424" lon="4.28819">
        <ele>355</ele>
        <time>2017-04-13T09:41:48Z</time>
      </trkpt>
      <trkpt lat="45.77426" lon="4.2882">
        <ele>355</ele>
        <time>2017-04-13T09:41:50Z</time>
      </trkpt>
      <trkpt lat="45.7743" lon="4.28822">
        <ele>354</ele>
        <time>2017-04-13T09:41:53Z</time>
      </trkpt>
      <trkpt lat="45.77433" lon="4.28824">
        <ele>355</ele>
        <time>2017-04-13T09:41:55Z</time>
      </trkpt>
      <trkpt lat="45.77438" lon="4.28827">
        <ele>355</ele>
        <time>2017-04-13T09:41:58Z</time>
      </trkpt>
      <trkpt lat="45.77441" lon="4.28829">
        <ele>355</ele>
        <time>2017-04-13T09:42:00Z</time>
      </trkpt>
      <trkpt lat="45.77444" lon="4.28831">
        <ele>355</ele>
        <time>2017-04-13T09:42:02Z</time>
      </trkpt>
      <trkpt lat="45.77448" lon="4.28833">
        <ele>355</ele>
        <time>2017-04-13T09:42:04Z</time>
      </trkpt>
      <trkpt lat="45.77453" lon="4.28835">
        <ele>354</ele>
        <time>2017-04-13T09:42:07Z</time>
      </trkpt>
      <trkpt lat="45.77458" lon="4.28838">
        <ele>355</ele>
        <time>2017-04-13T09:42:10Z</time>
      </trkpt>
      <trkpt lat="45.77462" lon="4.28839">
        <ele>355</ele>
        <time>2017-04-13T09:42:12Z</time>
      </trkpt>
      <trkpt lat="45.77468" lon="4.28841">
        <ele>355</ele>
        <time>2017-04-13T09:42:15Z</time>
      </trkpt>
      <trkpt lat="45.77473" lon="4.28844">
        <ele>356</ele>
        <time>2017-04-13T09:42:18Z</time>
      </trkpt>
      <trkpt lat="45.77477" lon="4.28846">
        <ele>356</ele>
        <time>2017-04-13T09:42:21Z</time>
      </trkpt>
      <trkpt lat="45.77482" lon="4.28849">
        <ele>356</ele>
        <time>2017-04-13T09:42:24Z</time>
      </trkpt>
      <trkpt lat="45.77485" lon="4.2885">
        <ele>356</ele>
        <time>2017-04-13T09:42:26Z</time>
      </trkpt>
      <trkpt lat="45.77489" lon="4.28853">
        <ele>356</ele>
        <time>2017-04-13T09:42:29Z</time>
      </trkpt>
      <trkpt lat="45.77491" lon="4.28854">
        <ele>356</ele>
        <time>2017-04-13T09:42:31Z</time>
      </trkpt>
      <trkpt lat="45.77496" lon="4.28856">
        <ele>356</ele>
        <time>2017-04-13T09:42:34Z</time>
      </trkpt>
      <trkpt lat="45.77497" lon="4.28857">
        <ele>356</ele>
        <time>2017-04-13T09:42:36Z</time>
      </trkpt>
      <trkpt lat="45.775" lon="4.28859">
        <ele>356</ele>
        <time>2017-04-13T09:42:39Z</time>
      </trkpt>
      <trkpt lat="45.77504" lon="4.28861">
        <ele>356</ele>
        <time>2017-04-13T09:42:42Z</time>
      </trkpt>
      <trkpt lat="45.77507" lon="4.28862">
        <ele>357</ele>
        <time>2017-04-13T09:42:44Z</time>
      </trkpt>
      <trkpt lat="45.7751" lon="4.28865">
        <ele>357</ele>
        <time>2017-04-13T09:42:46Z</time>
      </trkpt>
      <trkpt lat="45.77513" lon="4.28866">
        <ele>357</ele>
        <time>2017-04-13T09:42:49Z</time>
      </trkpt>
      <trkpt lat="45.77515" lon="4.28867">
        <ele>357</ele>
        <time>2017-04-13T09:42:51Z</time>
      </trkpt>
      <trkpt lat="45.7752" lon="4.2887">
        <ele>357</ele>
        <time>2017-04-13T09:42:54Z</time>
      </trkpt>
      <trkpt lat="45.77524" lon="4.28871">
        <ele>357</ele>
        <time>2017-04-13T09:42:56Z</time>
      </trkpt>
      <trkpt lat="45.77527" lon="4.28873">
        <ele>357</ele>
        <time>2017-04-13T09:42:58Z</time>
      </trkpt>
      <trkpt lat="45.77529" lon="4.28874">
        <ele>357</ele>
        <time>2017-04-13T09:43:00Z</time>
      </trkpt>
      <trkpt lat="45.77532" lon="4.28876">
        <ele>357</ele>
        <time>2017-04-13T09:43:02Z</time>
      </trkpt>
      <trkpt lat="45.77535" lon="4.28877">
        <ele>357</ele>
        <time>2017-04-13T09:43:04Z</time>
      </trkpt>
      <trkpt lat="45.7754" lon="4.28879">
        <ele>358</ele>
        <time>2017-04-13T09:43:07Z</time>
      </trkpt>
      <trkpt lat="45.77544" lon="4.28881">
        <ele>357</ele>
        <time>2017-04-13T09:43:10Z</time>
      </trkpt>
      <trkpt lat="45.77547" lon="4.28881">
        <ele>358</ele>
        <time>2017-04-13T09:43:12Z</time>
      </trkpt>
      <trkpt lat="45.77552" lon="4.28883">
        <ele>358</ele>
        <time>2017-04-13T09:43:15Z</time>
      </trkpt>
      <trkpt lat="45.77554" lon="4.28883">
        <ele>358</ele>
        <time>2017-04-13T09:43:17Z</time>
      </trkpt>
      <trkpt lat="45.77557" lon="4.28883">
        <ele>358</ele>
        <time>2017-04-13T09:43:19Z</time>
      </trkpt>
      <trkpt lat="45.77559" lon="4.28884">
        <ele>358</ele>
        <time>2017-04-13T09:43:21Z</time>
      </trkpt>
      <trkpt lat="45.77563" lon="4.28882">
        <ele>358</ele>
        <time>2017-04-13T09:43:24Z</time>
      </trkpt>
      <trkpt lat="45.77566" lon="4.28882">
        <ele>358</ele>
        <time>2017-04-13T09:43:26Z</time>
      </trkpt>
      <trkpt lat="45.77569" lon="4.28882">
        <ele>358</ele>
        <time>2017-04-13T09:43:28Z</time>
      </trkpt>
      <trkpt lat="45.77573" lon="4.28881">
        <ele>358</ele>
        <time>2017-04-13T09:43:30Z</time>
      </trkpt>
      <trkpt lat="45.77577" lon="4.2888">
        <ele>358</ele>
        <time>2017-04-13T09:43:33Z</time>
      </trkpt>
      <trkpt lat="45.7758" lon="4.28879">
        <ele>358</ele>
        <time>2017-04-13T09:43:35Z</time>
      </trkpt>
      <trkpt lat="45.77585" lon="4.28878">
        <ele>359</ele>
        <time>2017-04-13T09:43:38Z</time>
      </trkpt>
      <trkpt lat="45.77587" lon="4.28878">
        <ele>359</ele>
        <time>2017-04-13T09:43:40Z</time>
      </trkpt>
      <trkpt lat="45.77589" lon="4.28877">
        <ele>359</ele>
        <time>2017-04-13T09:43:42Z</time>
      </trkpt>
      <trkpt lat="45.77591" lon="4.28876">
        <ele>359</ele>
        <time>2017-04-13T09:43:44Z</time>
      </trkpt>
      <trkpt lat="45.77596" lon="4.28874">
        <ele>359</ele>
        <time>2017-04-13T09:43:47Z</time>
      </trkpt>
      <trkpt lat="45.77599" lon="4.28873">
        <ele>359</ele>
        <time>2017-04-13T09:43:50Z</time>
      </trkpt>
      <trkpt lat="45.77602" lon="4.28872">
        <ele>359</ele>
        <time>2017-04-13T09:43:52Z</time>
      </trkpt>
      <trkpt lat="45.77607" lon="4.28869">
        <ele>359</ele>
        <time>2017-04-13T09:43:55Z</time>
      </trkpt>
      <trkpt lat="45.77611" lon="4.28868">
        <ele>359</ele>
        <time>2017-04-13T09:43:57Z</time>
      </trkpt>
      <trkpt lat="45.77615" lon="4.28866">
        <ele>359</ele>
        <time>2017-04-13T09:43:59Z</time>
      </trkpt>
      <trkpt lat="45.77621" lon="4.28864">
        <ele>359</ele>
        <time>2017-04-13T09:44:02Z</time>
      </trkpt>
      <trkpt lat="45.77626" lon="4.28861">
        <ele>360</ele>
        <time>2017-04-13T09:44:05Z</time>
      </trkpt>
      <trkpt lat="45.7763" lon="4.2886">
        <ele>360</ele>
        <time>2017-04-13T09:44:07Z</time>
      </trkpt>
      <trkpt lat="45.77637" lon="4.28857">
        <ele>360</ele>
        <time>2017-04-13T09:44:10Z</time>
      </trkpt>
      <trkpt lat="45.77644" lon="4.28855">
        <ele>360</ele>
        <time>2017-04-13T09:44:13Z</time>
      </trkpt>
      <trkpt lat="45.77648" lon="4.28853">
        <ele>360</ele>
        <time>2017-04-13T09:44:15Z</time>
      </trkpt>
      <trkpt lat="45.77654" lon="4.28849">
        <ele>360</ele>
        <time>2017-04-13T09:44:18Z</time>
      </trkpt>
      <trkpt lat="45.77657" lon="4.28847">
        <ele>360</ele>
        <time>2017-04-13T09:44:20Z</time>
      </trkpt>
      <trkpt lat="45.77662" lon="4.28842">
        <ele>361</ele>
        <time>2017-04-13T09:44:23Z</time>
      </trkpt>
      <trkpt lat="45.77667" lon="4.28839">
        <ele>361</ele>
        <time>2017-04-13T09:44:26Z</time>
      </trkpt>
      <trkpt lat="45.77671" lon="4.28834">
        <ele>362</ele>
        <time>2017-04-13T09:44:29Z</time>
      </trkpt>
      <trkpt lat="45.77674" lon="4.28832">
        <ele>362</ele>
        <time>2017-04-13T09:44:32Z</time>
      </trkpt>
      <trkpt lat="45.77675" lon="4.28831">
        <ele>362</ele>
        <time>2017-04-13T09:44:35Z</time>
      </trkpt>
      <trkpt lat="45.77678" lon="4.28829">
        <ele>361</ele>
        <time>2017-04-13T09:44:38Z</time>
      </trkpt>
      <trkpt lat="45.77681" lon="4.28827">
        <ele>361</ele>
        <time>2017-04-13T09:44:40Z</time>
      </trkpt>
      <trkpt lat="45.77684" lon="4.28824">
        <ele>361</ele>
        <time>2017-04-13T09:44:43Z</time>
      </trkpt>
      <trkpt lat="45.77689" lon="4.2882">
        <ele>361</ele>
        <time>2017-04-13T09:44:46Z</time>
      </trkpt>
      <trkpt lat="45.77693" lon="4.28816">
        <ele>362</ele>
        <time>2017-04-13T09:44:49Z</time>
      </trkpt>
      <trkpt lat="45.77698" lon="4.28812">
        <ele>362</ele>
        <time>2017-04-13T09:44:52Z</time>
      </trkpt>
      <trkpt lat="45.77703" lon="4.28807">
        <ele>362</ele>
        <time>2017-04-13T09:44:55Z</time>
      </trkpt>
      <trkpt lat="45.77706" lon="4.28804">
        <ele>361</ele>
        <time>2017-04-13T09:44:57Z</time>
      </trkpt>
      <trkpt lat="45.77709" lon="4.28801">
        <ele>362</ele>
        <time>2017-04-13T09:44:59Z</time>
      </trkpt>
      <trkpt lat="45.77713" lon="4.28797">
        <ele>362</ele>
        <time>2017-04-13T09:45:02Z</time>
      </trkpt>
      <trkpt lat="45.77717" lon="4.28792">
        <ele>362</ele>
        <time>2017-04-13T09:45:05Z</time>
      </trkpt>
      <trkpt lat="45.77721" lon="4.28788">
        <ele>362</ele>
        <time>2017-04-13T09:45:08Z</time>
      </trkpt>
      <trkpt lat="45.77724" lon="4.28786">
        <ele>362</ele>
        <time>2017-04-13T09:45:10Z</time>
      </trkpt>
      <trkpt lat="45.77726" lon="4.28783">
        <ele>362</ele>
        <time>2017-04-13T09:45:12Z</time>
      </trkpt>
      <trkpt lat="45.77727" lon="4.2878">
        <ele>362</ele>
        <time>2017-04-13T09:45:14Z</time>
      </trkpt>
      <trkpt lat="45.7773" lon="4.28777">
        <ele>362</ele>
        <time>2017-04-13T09:45:17Z</time>
      </trkpt>
      <trkpt lat="45.77733" lon="4.28775">
        <ele>362</ele>
        <time>2017-04-13T09:45:19Z</time>
      </trkpt>
      <trkpt lat="45.77735" lon="4.28772">
        <ele>362</ele>
        <time>2017-04-13T09:45:21Z</time>
      </trkpt>
      <trkpt lat="45.77738" lon="4.28769">
        <ele>362</ele>
        <time>2017-04-13T09:45:24Z</time>
      </trkpt>
      <trkpt lat="45.77741" lon="4.28768">
        <ele>362</ele>
        <time>2017-04-13T09:45:26Z</time>
      </trkpt>
      <trkpt lat="45.77742" lon="4.28766">
        <ele>362</ele>
        <time>2017-04-13T09:45:28Z</time>
      </trkpt>
      <trkpt lat="45.77745" lon="4.28763">
        <ele>362</ele>
        <time>2017-04-13T09:45:31Z</time>
      </trkpt>
      <trkpt lat="45.77748" lon="4.28762">
        <ele>362</ele>
        <time>2017-04-13T09:45:33Z</time>
      </trkpt>
      <trkpt lat="45.77751" lon="4.2876">
        <ele>362</ele>
        <time>2017-04-13T09:45:36Z</time>
      </trkpt>
      <trkpt lat="45.77754" lon="4.28757">
        <ele>362</ele>
        <time>2017-04-13T09:45:39Z</time>
      </trkpt>
      <trkpt lat="45.77756" lon="4.28755">
        <ele>362</ele>
        <time>2017-04-13T09:45:41Z</time>
      </trkpt>
      <trkpt lat="45.77759" lon="4.28754">
        <ele>362</ele>
        <time>2017-04-13T09:45:43Z</time>
      </trkpt>
      <trkpt lat="45.77761" lon="4.28752">
        <ele>362</ele>
        <time>2017-04-13T09:45:45Z</time>
      </trkpt>
      <trkpt lat="45.77766" lon="4.28749">
        <ele>362</ele>
        <time>2017-04-13T09:45:48Z</time>
      </trkpt>
      <trkpt lat="45.77768" lon="4.28746">
        <ele>362</ele>
        <time>2017-04-13T09:45:51Z</time>
      </trkpt>
      <trkpt lat="45.77772" lon="4.28743">
        <ele>362</ele>
        <time>2017-04-13T09:45:54Z</time>
      </trkpt>
      <trkpt lat="45.77776" lon="4.2874">
        <ele>362</ele>
        <time>2017-04-13T09:45:57Z</time>
      </trkpt>
      <trkpt lat="45.77778" lon="4.28738">
        <ele>363</ele>
        <time>2017-04-13T09:45:59Z</time>
      </trkpt>
      <trkpt lat="45.77781" lon="4.28736">
        <ele>363</ele>
        <time>2017-04-13T09:46:01Z</time>
      </trkpt>
      <trkpt lat="45.77785" lon="4.28734">
        <ele>363</ele>
        <time>2017-04-13T09:46:04Z</time>
      </trkpt>
      <trkpt lat="45.77788" lon="4.28732">
        <ele>363</ele>
        <time>2017-04-13T09:46:06Z</time>
      </trkpt>
      <trkpt lat="45.77791" lon="4.28731">
        <ele>363</ele>
        <time>2017-04-13T09:46:08Z</time>
      </trkpt>
      <trkpt lat="45.77795" lon="4.28729">
        <ele>363</ele>
        <time>2017-04-13T09:46:11Z</time>
      </trkpt>
      <trkpt lat="45.77799" lon="4.28727">
        <ele>363</ele>
        <time>2017-04-13T09:46:14Z</time>
      </trkpt>
      <trkpt lat="45.77804" lon="4.28726">
        <ele>364</ele>
        <time>2017-04-13T09:46:17Z</time>
      </trkpt>
      <trkpt lat="45.77809" lon="4.28724">
        <ele>364</ele>
        <time>2017-04-13T09:46:20Z</time>
      </trkpt>
      <trkpt lat="45.77813" lon="4.28723">
        <ele>364</ele>
        <time>2017-04-13T09:46:22Z</time>
      </trkpt>
      <trkpt lat="45.77816" lon="4.28722">
        <ele>364</ele>
        <time>2017-04-13T09:46:24Z</time>
      </trkpt>
      <trkpt lat="45.7782" lon="4.28721">
        <ele>364</ele>
        <time>2017-04-13T09:46:26Z</time>
      </trkpt>
      <trkpt lat="45.77826" lon="4.2872">
        <ele>364</ele>
        <time>2017-04-13T09:46:28Z</time>
      </trkpt>
      <trkpt lat="45.77829" lon="4.2872">
        <ele>365</ele>
        <time>2017-04-13T09:46:31Z</time>
      </trkpt>
      <trkpt lat="45.77833" lon="4.2872">
        <ele>364</ele>
        <time>2017-04-13T09:46:34Z</time>
      </trkpt>
      <trkpt lat="45.77837" lon="4.28719">
        <ele>365</ele>
        <time>2017-04-13T09:46:37Z</time>
      </trkpt>
      <trkpt lat="45.77841" lon="4.28718">
        <ele>365</ele>
        <time>2017-04-13T09:46:39Z</time>
      </trkpt>
      <trkpt lat="45.77843" lon="4.28717">
        <ele>364</ele>
        <time>2017-04-13T09:46:41Z</time>
      </trkpt>
      <trkpt lat="45.77846" lon="4.28716">
        <ele>365</ele>
        <time>2017-04-13T09:46:44Z</time>
      </trkpt>
      <trkpt lat="45.77849" lon="4.28716">
        <ele>364</ele>
        <time>2017-04-13T09:46:46Z</time>
      </trkpt>
      <trkpt lat="45.77854" lon="4.28715">
        <ele>364</ele>
        <time>2017-04-13T09:46:49Z</time>
      </trkpt>
      <trkpt lat="45.77857" lon="4.28713">
        <ele>364</ele>
        <time>2017-04-13T09:46:51Z</time>
      </trkpt>
      <trkpt lat="45.77862" lon="4.28713">
        <ele>364</ele>
        <time>2017-04-13T09:46:53Z</time>
      </trkpt>
      <trkpt lat="45.77866" lon="4.28713">
        <ele>364</ele>
        <time>2017-04-13T09:46:56Z</time>
      </trkpt>
      <trkpt lat="45.7787" lon="4.28712">
        <ele>364</ele>
        <time>2017-04-13T09:46:59Z</time>
      </trkpt>
      <trkpt lat="45.77872" lon="4.28711">
        <ele>364</ele>
        <time>2017-04-13T09:47:01Z</time>
      </trkpt>
      <trkpt lat="45.77876" lon="4.2871">
        <ele>364</ele>
        <time>2017-04-13T09:47:04Z</time>
      </trkpt>
      <trkpt lat="45.77879" lon="4.2871">
        <ele>364</ele>
        <time>2017-04-13T09:47:07Z</time>
      </trkpt>
      <trkpt lat="45.77883" lon="4.28707">
        <ele>364</ele>
        <time>2017-04-13T09:47:10Z</time>
      </trkpt>
      <trkpt lat="45.77887" lon="4.28707">
        <ele>364</ele>
        <time>2017-04-13T09:47:12Z</time>
      </trkpt>
      <trkpt lat="45.77892" lon="4.28707">
        <ele>364</ele>
        <time>2017-04-13T09:47:15Z</time>
      </trkpt>
      <trkpt lat="45.77896" lon="4.28705">
        <ele>365</ele>
        <time>2017-04-13T09:47:18Z</time>
      </trkpt>
      <trkpt lat="45.77899" lon="4.28705">
        <ele>365</ele>
        <time>2017-04-13T09:47:20Z</time>
      </trkpt>
      <trkpt lat="45.77902" lon="4.28704">
        <ele>365</ele>
        <time>2017-04-13T09:47:22Z</time>
      </trkpt>
      <trkpt lat="45.77907" lon="4.28702">
        <ele>365</ele>
        <time>2017-04-13T09:47:24Z</time>
      </trkpt>
      <trkpt lat="45.7791" lon="4.28701">
        <ele>365</ele>
        <time>2017-04-13T09:47:27Z</time>
      </trkpt>
      <trkpt lat="45.77917" lon="4.28699">
        <ele>365</ele>
        <time>2017-04-13T09:47:30Z</time>
      </trkpt>
      <trkpt lat="45.7792" lon="4.28698">
        <ele>365</ele>
        <time>2017-04-13T09:47:32Z</time>
      </trkpt>
      <trkpt lat="45.77924" lon="4.28697">
        <ele>365</ele>
        <time>2017-04-13T09:47:34Z</time>
      </trkpt>
      <trkpt lat="45.77928" lon="4.28696">
        <ele>365</ele>
        <time>2017-04-13T09:47:36Z</time>
      </trkpt>
      <trkpt lat="45.77932" lon="4.28695">
        <ele>365</ele>
        <time>2017-04-13T09:47:38Z</time>
      </trkpt>
      <trkpt lat="45.77937" lon="4.28692">
        <ele>366</ele>
        <time>2017-04-13T09:47:41Z</time>
      </trkpt>
      <trkpt lat="45.77943" lon="4.2869">
        <ele>365</ele>
        <time>2017-04-13T09:47:44Z</time>
      </trkpt>
      <trkpt lat="45.77949" lon="4.28688">
        <ele>366</ele>
        <time>2017-04-13T09:47:47Z</time>
      </trkpt>
      <trkpt lat="45.77954" lon="4.28686">
        <ele>366</ele>
        <time>2017-04-13T09:47:50Z</time>
      </trkpt>
      <trkpt lat="45.77958" lon="4.28684">
        <ele>366</ele>
        <time>2017-04-13T09:47:52Z</time>
      </trkpt>
      <trkpt lat="45.77962" lon="4.28683">
        <ele>366</ele>
        <time>2017-04-13T09:47:54Z</time>
      </trkpt>
      <trkpt lat="45.77966" lon="4.28681">
        <ele>366</ele>
        <time>2017-04-13T09:47:56Z</time>
      </trkpt>
      <trkpt lat="45.77969" lon="4.28679">
        <ele>365</ele>
        <time>2017-04-13T09:47:59Z</time>
      </trkpt>
      <trkpt lat="45.77973" lon="4.28678">
        <ele>366</ele>
        <time>2017-04-13T09:48:02Z</time>
      </trkpt>
      <trkpt lat="45.77977" lon="4.28675">
        <ele>366</ele>
        <time>2017-04-13T09:48:05Z</time>
      </trkpt>
      <trkpt lat="45.77982" lon="4.28673">
        <ele>366</ele>
        <time>2017-04-13T09:48:08Z</time>
      </trkpt>
      <trkpt lat="45.77983" lon="4.28673">
        <ele>366</ele>
        <time>2017-04-13T09:48:10Z</time>
      </trkpt>
      <trkpt lat="45.77987" lon="4.28671">
        <ele>366</ele>
        <time>2017-04-13T09:48:12Z</time>
      </trkpt>
      <trkpt lat="45.7799" lon="4.2867">
        <ele>366</ele>
        <time>2017-04-13T09:48:15Z</time>
      </trkpt>
      <trkpt lat="45.77996" lon="4.28667">
        <ele>366</ele>
        <time>2017-04-13T09:48:18Z</time>
      </trkpt>
      <trkpt lat="45.78001" lon="4.28664">
        <ele>366</ele>
        <time>2017-04-13T09:48:20Z</time>
      </trkpt>
      <trkpt lat="45.78007" lon="4.28661">
        <ele>366</ele>
        <time>2017-04-13T09:48:22Z</time>
      </trkpt>
      <trkpt lat="45.78011" lon="4.2866">
        <ele>366</ele>
        <time>2017-04-13T09:48:25Z</time>
      </trkpt>
      <trkpt lat="45.78014" lon="4.28659">
        <ele>366</ele>
        <time>2017-04-13T09:48:27Z</time>
      </trkpt>
      <trkpt lat="45.78017" lon="4.28658">
        <ele>366</ele>
        <time>2017-04-13T09:48:29Z</time>
      </trkpt>
      <trkpt lat="45.78021" lon="4.28657">
        <ele>366</ele>
        <time>2017-04-13T09:48:31Z</time>
      </trkpt>
      <trkpt lat="45.78025" lon="4.28657">
        <ele>366</ele>
        <time>2017-04-13T09:48:33Z</time>
      </trkpt>
      <trkpt lat="45.78028" lon="4.28657">
        <ele>367</ele>
        <time>2017-04-13T09:48:36Z</time>
      </trkpt>
      <trkpt lat="45.78033" lon="4.28656">
        <ele>366</ele>
        <time>2017-04-13T09:48:38Z</time>
      </trkpt>
      <trkpt lat="45.78034" lon="4.28657">
        <ele>366</ele>
        <time>2017-04-13T09:48:41Z</time>
      </trkpt>
      <trkpt lat="45.78036" lon="4.28656">
        <ele>366</ele>
        <time>2017-04-13T09:48:43Z</time>
      </trkpt>
      <trkpt lat="45.78038" lon="4.28656">
        <ele>366</ele>
        <time>2017-04-13T09:48:45Z</time>
      </trkpt>
      <trkpt lat="45.7804" lon="4.28654">
        <ele>366</ele>
        <time>2017-04-13T09:48:48Z</time>
      </trkpt>
      <trkpt lat="45.7804" lon="4.28654">
        <ele>367</ele>
        <time>2017-04-13T09:48:50Z</time>
      </trkpt>
      <trkpt lat="45.78041" lon="4.28653">
        <ele>366</ele>
        <time>2017-04-13T09:48:53Z</time>
      </trkpt>
      <trkpt lat="45.78043" lon="4.28654">
        <ele>367</ele>
        <time>2017-04-13T09:48:55Z</time>
      </trkpt>
      <trkpt lat="45.78044" lon="4.28654">
        <ele>366</ele>
        <time>2017-04-13T09:48:58Z</time>
      </trkpt>
      <trkpt lat="45.78046" lon="4.28653">
        <ele>367</ele>
        <time>2017-04-13T09:49:01Z</time>
      </trkpt>
      <trkpt lat="45.78048" lon="4.28653">
        <ele>366</ele>
        <time>2017-04-13T09:49:03Z</time>
      </trkpt>
      <trkpt lat="45.78048" lon="4.28653">
        <ele>366</ele>
        <time>2017-04-13T09:49:05Z</time>
      </trkpt>
      <trkpt lat="45.78048" lon="4.28653">
        <ele>366</ele>
        <time>2017-04-13T09:49:08Z</time>
      </trkpt>
      <trkpt lat="45.78049" lon="4.28653">
        <ele>366</ele>
        <time>2017-04-13T09:49:11Z</time>
      </trkpt>
      <trkpt lat="45.78052" lon="4.28652">
        <ele>366</ele>
        <time>2017-04-13T09:49:14Z</time>
      </trkpt>
      <trkpt lat="45.78055" lon="4.28652">
        <ele>366</ele>
        <time>2017-04-13T09:49:16Z</time>
      </trkpt>
      <trkpt lat="45.78058" lon="4.28652">
        <ele>366</ele>
        <time>2017-04-13T09:49:19Z</time>
      </trkpt>
      <trkpt lat="45.78062" lon="4.28652">
        <ele>366</ele>
        <time>2017-04-13T09:49:21Z</time>
      </trkpt>
      <trkpt lat="45.78067" lon="4.28653">
        <ele>366</ele>
        <time>2017-04-13T09:49:23Z</time>
      </trkpt>
      <trkpt lat="45.78071" lon="4.28653">
        <ele>366</ele>
        <time>2017-04-13T09:49:25Z</time>
      </trkpt>
      <trkpt lat="45.78074" lon="4.28654">
        <ele>366</ele>
        <time>2017-04-13T09:49:27Z</time>
      </trkpt>
      <trkpt lat="45.78078" lon="4.28654">
        <ele>366</ele>
        <time>2017-04-13T09:49:30Z</time>
      </trkpt>
      <trkpt lat="45.78083" lon="4.28654">
        <ele>366</ele>
        <time>2017-04-13T09:49:32Z</time>
      </trkpt>
      <trkpt lat="45.78087" lon="4.28654">
        <ele>366</ele>
        <time>2017-04-13T09:49:35Z</time>
      </trkpt>
      <trkpt lat="45.78092" lon="4.28655">
        <ele>366</ele>
        <time>2017-04-13T09:49:37Z</time>
      </trkpt>
      <trkpt lat="45.78096" lon="4.28655">
        <ele>366</ele>
        <time>2017-04-13T09:49:39Z</time>
      </trkpt>
      <trkpt lat="45.78099" lon="4.28655">
        <ele>366</ele>
        <time>2017-04-13T09:49:41Z</time>
      </trkpt>
      <trkpt lat="45.78103" lon="4.28654">
        <ele>366</ele>
        <time>2017-04-13T09:49:44Z</time>
      </trkpt>
      <trkpt lat="45.78108" lon="4.28654">
        <ele>366</ele>
        <time>2017-04-13T09:49:47Z</time>
      </trkpt>
      <trkpt lat="45.78113" lon="4.28655">
        <ele>366</ele>
        <time>2017-04-13T09:49:49Z</time>
      </trkpt>
      <trkpt lat="45.78116" lon="4.28655">
        <ele>366</ele>
        <time>2017-04-13T09:49:52Z</time>
      </trkpt>
      <trkpt lat="45.78121" lon="4.28655">
        <ele>366</ele>
        <time>2017-04-13T09:49:55Z</time>
      </trkpt>
      <trkpt lat="45.78126" lon="4.28656">
        <ele>366</ele>
        <time>2017-04-13T09:49:58Z</time>
      </trkpt>
      <trkpt lat="45.7813" lon="4.28656">
        <ele>366</ele>
        <time>2017-04-13T09:50:00Z</time>
      </trkpt>
      <trkpt lat="45.78134" lon="4.28658">
        <ele>366</ele>
        <time>2017-04-13T09:50:02Z</time>
      </trkpt>
      <trkpt lat="45.78138" lon="4.28659">
        <ele>367</ele>
        <time>2017-04-13T09:50:04Z</time>
      </trkpt>
      <trkpt lat="45.78141" lon="4.2866">
        <ele>367</ele>
        <time>2017-04-13T09:50:07Z</time>
      </trkpt>
      <trkpt lat="45.78146" lon="4.28661">
        <ele>366</ele>
        <time>2017-04-13T09:50:10Z</time>
      </trkpt>
      <trkpt lat="45.78151" lon="4.28663">
        <ele>366</ele>
        <time>2017-04-13T09:50:12Z</time>
      </trkpt>
      <trkpt lat="45.78152" lon="4.28664">
        <ele>366</ele>
        <time>2017-04-13T09:50:14Z</time>
      </trkpt>
      <trkpt lat="45.78155" lon="4.28666">
        <ele>367</ele>
        <time>2017-04-13T09:50:17Z</time>
      </trkpt>
      <trkpt lat="45.78158" lon="4.28667">
        <ele>367</ele>
        <time>2017-04-13T09:50:19Z</time>
      </trkpt>
      <trkpt lat="45.78161" lon="4.2867">
        <ele>367</ele>
        <time>2017-04-13T09:50:21Z</time>
      </trkpt>
      <trkpt lat="45.78163" lon="4.28672">
        <ele>367</ele>
        <time>2017-04-13T09:50:23Z</time>
      </trkpt>
      <trkpt lat="45.78166" lon="4.28674">
        <ele>367</ele>
        <time>2017-04-13T09:50:25Z</time>
      </trkpt>
      <trkpt lat="45.78168" lon="4.28676">
        <ele>367</ele>
        <time>2017-04-13T09:50:27Z</time>
      </trkpt>
      <trkpt lat="45.7817" lon="4.28677">
        <ele>367</ele>
        <time>2017-04-13T09:50:29Z</time>
      </trkpt>
      <trkpt lat="45.78172" lon="4.28678">
        <ele>367</ele>
        <time>2017-04-13T09:50:32Z</time>
      </trkpt>
      <trkpt lat="45.78174" lon="4.28679">
        <ele>367</ele>
        <time>2017-04-13T09:50:34Z</time>
      </trkpt>
      <trkpt lat="45.78175" lon="4.28681">
        <ele>367</ele>
        <time>2017-04-13T09:50:37Z</time>
      </trkpt>
      <trkpt lat="45.78175" lon="4.28683">
        <ele>367</ele>
        <time>2017-04-13T09:50:39Z</time>
      </trkpt>
      <trkpt lat="45.78177" lon="4.28687">
        <ele>367</ele>
        <time>2017-04-13T09:50:41Z</time>
      </trkpt>
      <trkpt lat="45.78179" lon="4.28689">
        <ele>367</ele>
        <time>2017-04-13T09:50:43Z</time>
      </trkpt>
      <trkpt lat="45.78181" lon="4.28691">
        <ele>367</ele>
        <time>2017-04-13T09:50:45Z</time>
      </trkpt>
      <trkpt lat="45.78183" lon="4.28693">
        <ele>367</ele>
        <time>2017-04-13T09:50:47Z</time>
      </trkpt>
      <trkpt lat="45.78187" lon="4.28696">
        <ele>367</ele>
        <time>2017-04-13T09:50:49Z</time>
      </trkpt>
      <trkpt lat="45.78191" lon="4.28698">
        <ele>367</ele>
        <time>2017-04-13T09:50:52Z</time>
      </trkpt>
      <trkpt lat="45.78196" lon="4.28701">
        <ele>367</ele>
        <time>2017-04-13T09:50:54Z</time>
      </trkpt>
      <trkpt lat="45.78198" lon="4.28704">
        <ele>367</ele>
        <time>2017-04-13T09:50:56Z</time>
      </trkpt>
      <trkpt lat="45.78201" lon="4.28706">
        <ele>367</ele>
        <time>2017-04-13T09:50:58Z</time>
      </trkpt>
      <trkpt lat="45.78204" lon="4.28708">
        <ele>367</ele>
        <time>2017-04-13T09:51:00Z</time>
      </trkpt>
      <trkpt lat="45.78206" lon="4.28712">
        <ele>367</ele>
        <time>2017-04-13T09:51:02Z</time>
      </trkpt>
      <trkpt lat="45.78208" lon="4.28716">
        <ele>367</ele>
        <time>2017-04-13T09:51:06Z</time>
      </trkpt>
      <trkpt lat="45.78212" lon="4.28721">
        <ele>367</ele>
        <time>2017-04-13T09:51:08Z</time>
      </trkpt>
      <trkpt lat="45.78215" lon="4.28724">
        <ele>367</ele>
        <time>2017-04-13T09:51:10Z</time>
      </trkpt>
      <trkpt lat="45.78221" lon="4.28729">
        <ele>367</ele>
        <time>2017-04-13T09:51:13Z</time>
      </trkpt>
      <trkpt lat="45.78224" lon="4.28732">
        <ele>366</ele>
        <time>2017-04-13T09:51:15Z</time>
      </trkpt>
      <trkpt lat="45.78228" lon="4.28738">
        <ele>366</ele>
        <time>2017-04-13T09:51:18Z</time>
      </trkpt>
      <trkpt lat="45.78229" lon="4.28741">
        <ele>366</ele>
        <time>2017-04-13T09:51:21Z</time>
      </trkpt>
      <trkpt lat="45.78231" lon="4.28746">
        <ele>366</ele>
        <time>2017-04-13T09:51:23Z</time>
      </trkpt>
      <trkpt lat="45.78232" lon="4.2875">
        <ele>366</ele>
        <time>2017-04-13T09:51:25Z</time>
      </trkpt>
      <trkpt lat="45.78233" lon="4.28754">
        <ele>366</ele>
        <time>2017-04-13T09:51:27Z</time>
      </trkpt>
      <trkpt lat="45.78236" lon="4.28759">
        <ele>366</ele>
        <time>2017-04-13T09:51:30Z</time>
      </trkpt>
      <trkpt lat="45.78237" lon="4.28765">
        <ele>367</ele>
        <time>2017-04-13T09:51:34Z</time>
      </trkpt>
      <trkpt lat="45.78238" lon="4.28771">
        <ele>367</ele>
        <time>2017-04-13T09:51:37Z</time>
      </trkpt>
      <trkpt lat="45.78241" lon="4.28777">
        <ele>367</ele>
        <time>2017-04-13T09:51:39Z</time>
      </trkpt>
      <trkpt lat="45.78243" lon="4.2878">
        <ele>367</ele>
        <time>2017-04-13T09:51:41Z</time>
      </trkpt>
      <trkpt lat="45.78244" lon="4.28784">
        <ele>368</ele>
        <time>2017-04-13T09:51:43Z</time>
      </trkpt>
      <trkpt lat="45.78244" lon="4.28788">
        <ele>368</ele>
        <time>2017-04-13T09:51:45Z</time>
      </trkpt>
      <trkpt lat="45.78241" lon="4.28794">
        <ele>368</ele>
        <time>2017-04-13T09:51:48Z</time>
      </trkpt>
      <trkpt lat="45.78242" lon="4.28798">
        <ele>368</ele>
        <time>2017-04-13T09:51:50Z</time>
      </trkpt>
      <trkpt lat="45.78244" lon="4.28804">
        <ele>368</ele>
        <time>2017-04-13T09:51:53Z</time>
      </trkpt>
      <trkpt lat="45.78247" lon="4.2881">
        <ele>368</ele>
        <time>2017-04-13T09:51:56Z</time>
      </trkpt>
      <trkpt lat="45.78251" lon="4.28815">
        <ele>369</ele>
        <time>2017-04-13T09:51:59Z</time>
      </trkpt>
      <trkpt lat="45.78254" lon="4.28822">
        <ele>369</ele>
        <time>2017-04-13T09:52:02Z</time>
      </trkpt>
      <trkpt lat="45.78253" lon="4.28826">
        <ele>369</ele>
        <time>2017-04-13T09:52:05Z</time>
      </trkpt>
      <trkpt lat="45.78248" lon="4.28835">
        <ele>369</ele>
        <time>2017-04-13T09:52:07Z</time>
      </trkpt>
      <trkpt lat="45.78243" lon="4.28843">
        <ele>370</ele>
        <time>2017-04-13T09:52:10Z</time>
      </trkpt>
      <trkpt lat="45.7824" lon="4.28847">
        <ele>370</ele>
        <time>2017-04-13T09:52:12Z</time>
      </trkpt>
      <trkpt lat="45.78237" lon="4.28851">
        <ele>370</ele>
        <time>2017-04-13T09:52:14Z</time>
      </trkpt>
      <trkpt lat="45.78234" lon="4.28859">
        <ele>370</ele>
        <time>2017-04-13T09:52:17Z</time>
      </trkpt>
      <trkpt lat="45.7823" lon="4.28866">
        <ele>370</ele>
        <time>2017-04-13T09:52:20Z</time>
      </trkpt>
      <trkpt lat="45.78228" lon="4.28873">
        <ele>370</ele>
        <time>2017-04-13T09:52:23Z</time>
      </trkpt>
      <trkpt lat="45.78228" lon="4.28877">
        <ele>370</ele>
        <time>2017-04-13T09:52:25Z</time>
      </trkpt>
      <trkpt lat="45.78226" lon="4.28881">
        <ele>370</ele>
        <time>2017-04-13T09:52:27Z</time>
      </trkpt>
      <trkpt lat="45.78224" lon="4.28885">
        <ele>371</ele>
        <time>2017-04-13T09:52:30Z</time>
      </trkpt>
      <trkpt lat="45.78221" lon="4.2889">
        <ele>371</ele>
        <time>2017-04-13T09:52:32Z</time>
      </trkpt>
      <trkpt lat="45.7822" lon="4.28897">
        <ele>371</ele>
        <time>2017-04-13T09:52:34Z</time>
      </trkpt>
      <trkpt lat="45.7822" lon="4.28901">
        <ele>371</ele>
        <time>2017-04-13T09:52:36Z</time>
      </trkpt>
      <trkpt lat="45.7822" lon="4.28905">
        <ele>371</ele>
        <time>2017-04-13T09:52:38Z</time>
      </trkpt>
      <trkpt lat="45.78219" lon="4.2891">
        <ele>371</ele>
        <time>2017-04-13T09:52:40Z</time>
      </trkpt>
      <trkpt lat="45.78218" lon="4.28917">
        <ele>371</ele>
        <time>2017-04-13T09:52:43Z</time>
      </trkpt>
      <trkpt lat="45.78219" lon="4.28921">
        <ele>370</ele>
        <time>2017-04-13T09:52:45Z</time>
      </trkpt>
      <trkpt lat="45.7822" lon="4.28925">
        <ele>371</ele>
        <time>2017-04-13T09:52:48Z</time>
      </trkpt>
      <trkpt lat="45.78219" lon="4.28932">
        <ele>371</ele>
        <time>2017-04-13T09:52:50Z</time>
      </trkpt>
      <trkpt lat="45.78218" lon="4.28937">
        <ele>371</ele>
        <time>2017-04-13T09:52:52Z</time>
      </trkpt>
      <trkpt lat="45.78217" lon="4.28944">
        <ele>371</ele>
        <time>2017-04-13T09:52:55Z</time>
      </trkpt>
      <trkpt lat="45.78217" lon="4.28951">
        <ele>371</ele>
        <time>2017-04-13T09:52:58Z</time>
      </trkpt>
      <trkpt lat="45.78217" lon="4.28955">
        <ele>371</ele>
        <time>2017-04-13T09:53:00Z</time>
      </trkpt>
      <trkpt lat="45.78218" lon="4.28961">
        <ele>371</ele>
        <time>2017-04-13T09:53:03Z</time>
      </trkpt>
      <trkpt lat="45.78219" lon="4.28967">
        <ele>370</ele>
        <time>2017-04-13T09:53:06Z</time>
      </trkpt>
      <trkpt lat="45.7822" lon="4.28971">
        <ele>370</ele>
        <time>2017-04-13T09:53:08Z</time>
      </trkpt>
      <trkpt lat="45.7822" lon="4.28975">
        <ele>370</ele>
        <time>2017-04-13T09:53:10Z</time>
      </trkpt>
      <trkpt lat="45.7822" lon="4.28982">
        <ele>370</ele>
        <time>2017-04-13T09:53:13Z</time>
      </trkpt>
      <trkpt lat="45.7822" lon="4.28988">
        <ele>369</ele>
        <time>2017-04-13T09:53:15Z</time>
      </trkpt>
      <trkpt lat="45.78218" lon="4.28995">
        <ele>370</ele>
        <time>2017-04-13T09:53:18Z</time>
      </trkpt>
      <trkpt lat="45.78219" lon="4.28999">
        <ele>369</ele>
        <time>2017-04-13T09:53:21Z</time>
      </trkpt>
      <trkpt lat="45.78218" lon="4.29006">
        <ele>370</ele>
        <time>2017-04-13T09:53:23Z</time>
      </trkpt>
      <trkpt lat="45.78219" lon="4.29012">
        <ele>369</ele>
        <time>2017-04-13T09:53:26Z</time>
      </trkpt>
      <trkpt lat="45.7822" lon="4.29014">
        <ele>369</ele>
        <time>2017-04-13T09:53:28Z</time>
      </trkpt>
      <trkpt lat="45.78221" lon="4.29017">
        <ele>369</ele>
        <time>2017-04-13T09:53:30Z</time>
      </trkpt>
      <trkpt lat="45.78225" lon="4.2902">
        <ele>368</ele>
        <time>2017-04-13T09:53:33Z</time>
      </trkpt>
      <trkpt lat="45.78228" lon="4.29022">
        <ele>368</ele>
        <time>2017-04-13T09:53:36Z</time>
      </trkpt>
      <trkpt lat="45.78231" lon="4.29024">
        <ele>368</ele>
        <time>2017-04-13T09:53:38Z</time>
      </trkpt>
      <trkpt lat="45.78233" lon="4.29026">
        <ele>367</ele>
        <time>2017-04-13T09:53:40Z</time>
      </trkpt>
      <trkpt lat="45.78236" lon="4.29028">
        <ele>367</ele>
        <time>2017-04-13T09:53:42Z</time>
      </trkpt>
      <trkpt lat="45.78237" lon="4.2903">
        <ele>367</ele>
        <time>2017-04-13T09:53:44Z</time>
      </trkpt>
      <trkpt lat="45.78238" lon="4.29033">
        <ele>367</ele>
        <time>2017-04-13T09:53:47Z</time>
      </trkpt>
      <trkpt lat="45.78239" lon="4.29036">
        <ele>366</ele>
        <time>2017-04-13T09:53:50Z</time>
      </trkpt>
      <trkpt lat="45.78242" lon="4.2904">
        <ele>366</ele>
        <time>2017-04-13T09:53:53Z</time>
      </trkpt>
      <trkpt lat="45.78243" lon="4.29043">
        <ele>366</ele>
        <time>2017-04-13T09:53:55Z</time>
      </trkpt>
      <trkpt lat="45.78244" lon="4.29046">
        <ele>366</ele>
        <time>2017-04-13T09:53:57Z</time>
      </trkpt>
      <trkpt lat="45.78248" lon="4.29051">
        <ele>367</ele>
        <time>2017-04-13T09:54:00Z</time>
      </trkpt>
      <trkpt lat="45.78251" lon="4.29054">
        <ele>368</ele>
        <time>2017-04-13T09:54:03Z</time>
      </trkpt>
      <trkpt lat="45.78251" lon="4.29055">
        <ele>369</ele>
        <time>2017-04-13T09:54:06Z</time>
      </trkpt>
      <trkpt lat="45.78252" lon="4.29056">
        <ele>369</ele>
        <time>2017-04-13T09:54:08Z</time>
      </trkpt>
      <trkpt lat="45.78252" lon="4.29058">
        <ele>369</ele>
        <time>2017-04-13T09:54:11Z</time>
      </trkpt>
      <trkpt lat="45.7825" lon="4.29058">
        <ele>368</ele>
        <time>2017-04-13T09:54:14Z</time>
      </trkpt>
      <trkpt lat="45.7825" lon="4.29058">
        <ele>368</ele>
        <time>2017-04-13T09:54:16Z</time>
      </trkpt>
      <trkpt lat="45.7825" lon="4.29057">
        <ele>368</ele>
        <time>2017-04-13T09:54:18Z</time>
      </trkpt>
      <trkpt lat="45.78249" lon="4.29056">
        <ele>369</ele>
        <time>2017-04-13T09:54:21Z</time>
      </trkpt>
      <trkpt lat="45.78249" lon="4.29054">
        <ele>369</ele>
        <time>2017-04-13T09:54:24Z</time>
      </trkpt>
      <trkpt lat="45.78248" lon="4.29054">
        <ele>369</ele>
        <time>2017-04-13T09:54:26Z</time>
      </trkpt>
      <trkpt lat="45.78248" lon="4.29053">
        <ele>368</ele>
        <time>2017-04-13T09:54:28Z</time>
      </trkpt>
      <trkpt lat="45.78247" lon="4.29052">
        <ele>368</ele>
        <time>2017-04-13T09:54:31Z</time>
      </trkpt>
      <trkpt lat="45.78247" lon="4.29051">
        <ele>368</ele>
        <time>2017-04-13T09:54:33Z</time>
      </trkpt>
      <trkpt lat="45.78247" lon="4.2905">
        <ele>368</ele>
        <time>2017-04-13T09:54:35Z</time>
      </trkpt>
      <trkpt lat="45.78247" lon="4.29049">
        <ele>368</ele>
        <time>2017-04-13T09:54:37Z</time>
      </trkpt>
      <trkpt lat="45.78247" lon="4.29048">
        <ele>368</ele>
        <time>2017-04-13T09:54:39Z</time>
      </trkpt>
      <trkpt lat="45.78248" lon="4.29048">
        <ele>368</ele>
        <time>2017-04-13T09:54:42Z</time>
      </trkpt>
      <trkpt lat="45.78248" lon="4.29047">
        <ele>368</ele>
        <time>2017-04-13T09:54:45Z</time>
      </trkpt>
      <trkpt lat="45.78248" lon="4.29046">
        <ele>368</ele>
        <time>2017-04-13T09:54:48Z</time>
      </trkpt>
      <trkpt lat="45.78247" lon="4.29045">
        <ele>368</ele>
        <time>2017-04-13T09:54:50Z</time>
      </trkpt>
      <trkpt lat="45.78247" lon="4.29043">
        <ele>368</ele>
        <time>2017-04-13T09:54:53Z</time>
      </trkpt>
      <trkpt lat="45.78247" lon="4.29042">
        <ele>368</ele>
        <time>2017-04-13T09:54:55Z</time>
      </trkpt>
      <trkpt lat="45.78247" lon="4.29042">
        <ele>368</ele>
        <time>2017-04-13T09:54:58Z</time>
      </trkpt>
      <trkpt lat="45.78248" lon="4.29043">
        <ele>368</ele>
        <time>2017-04-13T09:55:00Z</time>
      </trkpt>
      <trkpt lat="45.78248" lon="4.29044">
        <ele>367</ele>
        <time>2017-04-13T09:55:03Z</time>
      </trkpt>
      <trkpt lat="45.7825" lon="4.29046">
        <ele>368</ele>
        <time>2017-04-13T09:55:05Z</time>
      </trkpt>
      <trkpt lat="45.78254" lon="4.29047">
        <ele>368</ele>
        <time>2017-04-13T09:55:08Z</time>
      </trkpt>
      <trkpt lat="45.78257" lon="4.2905">
        <ele>369</ele>
        <time>2017-04-13T09:55:11Z</time>
      </trkpt>
      <trkpt lat="45.78262" lon="4.29051">
        <ele>370</ele>
        <time>2017-04-13T09:55:14Z</time>
      </trkpt>
      <trkpt lat="45.78265" lon="4.29051">
        <ele>370</ele>
        <time>2017-04-13T09:55:17Z</time>
      </trkpt>
      <trkpt lat="45.78268" lon="4.29051">
        <ele>371</ele>
        <time>2017-04-13T09:55:19Z</time>
      </trkpt>
      <trkpt lat="45.78271" lon="4.29053">
        <ele>372</ele>
        <time>2017-04-13T09:55:22Z</time>
      </trkpt>
      <trkpt lat="45.78274" lon="4.29054">
        <ele>372</ele>
        <time>2017-04-13T09:55:24Z</time>
      </trkpt>
      <trkpt lat="45.78277" lon="4.29057">
        <ele>373</ele>
        <time>2017-04-13T09:55:27Z</time>
      </trkpt>
      <trkpt lat="45.7828" lon="4.29058">
        <ele>373</ele>
        <time>2017-04-13T09:55:30Z</time>
      </trkpt>
      <trkpt lat="45.78282" lon="4.2906">
        <ele>374</ele>
        <time>2017-04-13T09:55:32Z</time>
      </trkpt>
      <trkpt lat="45.78283" lon="4.29061">
        <ele>375</ele>
        <time>2017-04-13T09:55:36Z</time>
      </trkpt>
      <trkpt lat="45.78286" lon="4.2906">
        <ele>375</ele>
        <time>2017-04-13T09:55:38Z</time>
      </trkpt>
      <trkpt lat="45.7829" lon="4.29059">
        <ele>376</ele>
        <time>2017-04-13T09:55:41Z</time>
      </trkpt>
      <trkpt lat="45.78292" lon="4.2906">
        <ele>377</ele>
        <time>2017-04-13T09:55:43Z</time>
      </trkpt>
      <trkpt lat="45.78294" lon="4.29065">
        <ele>378</ele>
        <time>2017-04-13T09:55:46Z</time>
      </trkpt>
      <trkpt lat="45.78294" lon="4.29068">
        <ele>378</ele>
        <time>2017-04-13T09:55:48Z</time>
      </trkpt>
      <trkpt lat="45.78293" lon="4.29071">
        <ele>378</ele>
        <time>2017-04-13T09:55:50Z</time>
      </trkpt>
      <trkpt lat="45.78292" lon="4.29074">
        <ele>378</ele>
        <time>2017-04-13T09:55:53Z</time>
      </trkpt>
      <trkpt lat="45.78292" lon="4.29079">
        <ele>379</ele>
        <time>2017-04-13T09:55:55Z</time>
      </trkpt>
      <trkpt lat="45.78292" lon="4.29085">
        <ele>380</ele>
        <time>2017-04-13T09:55:58Z</time>
      </trkpt>
      <trkpt lat="45.78292" lon="4.29088">
        <ele>380</ele>
        <time>2017-04-13T09:56:00Z</time>
      </trkpt>
      <trkpt lat="45.78292" lon="4.29093">
        <ele>381</ele>
        <time>2017-04-13T09:56:03Z</time>
      </trkpt>
      <trkpt lat="45.78293" lon="4.29096">
        <ele>381</ele>
        <time>2017-04-13T09:56:06Z</time>
      </trkpt>
      <trkpt lat="45.78293" lon="4.29102">
        <ele>381</ele>
        <time>2017-04-13T09:56:08Z</time>
      </trkpt>
      <trkpt lat="45.78294" lon="4.29106">
        <ele>381</ele>
        <time>2017-04-13T09:56:10Z</time>
      </trkpt>
      <trkpt lat="45.78294" lon="4.29113">
        <ele>382</ele>
        <time>2017-04-13T09:56:13Z</time>
      </trkpt>
      <trkpt lat="45.78295" lon="4.29117">
        <ele>382</ele>
        <time>2017-04-13T09:56:15Z</time>
      </trkpt>
      <trkpt lat="45.78295" lon="4.29119">
        <ele>382</ele>
        <time>2017-04-13T09:56:17Z</time>
      </trkpt>
      <trkpt lat="45.78296" lon="4.29124">
        <ele>383</ele>
        <time>2017-04-13T09:56:20Z</time>
      </trkpt>
      <trkpt lat="45.78296" lon="4.29131">
        <ele>383</ele>
        <time>2017-04-13T09:56:23Z</time>
      </trkpt>
      <trkpt lat="45.78295" lon="4.29136">
        <ele>383</ele>
        <time>2017-04-13T09:56:25Z</time>
      </trkpt>
      <trkpt lat="45.78294" lon="4.29144">
        <ele>384</ele>
        <time>2017-04-13T09:56:28Z</time>
      </trkpt>
      <trkpt lat="45.78294" lon="4.29149">
        <ele>384</ele>
        <time>2017-04-13T09:56:30Z</time>
      </trkpt>
      <trkpt lat="45.78294" lon="4.29155">
        <ele>385</ele>
        <time>2017-04-13T09:56:33Z</time>
      </trkpt>
      <trkpt lat="45.78293" lon="4.29162">
        <ele>385</ele>
        <time>2017-04-13T09:56:35Z</time>
      </trkpt>
      <trkpt lat="45.78293" lon="4.29167">
        <ele>386</ele>
        <time>2017-04-13T09:56:37Z</time>
      </trkpt>
      <trkpt lat="45.78293" lon="4.29173">
        <ele>387</ele>
        <time>2017-04-13T09:56:40Z</time>
      </trkpt>
      <trkpt lat="45.78293" lon="4.29178">
        <ele>387</ele>
        <time>2017-04-13T09:56:42Z</time>
      </trkpt>
      <trkpt lat="45.78293" lon="4.29183">
        <ele>388</ele>
        <time>2017-04-13T09:56:44Z</time>
      </trkpt>
      <trkpt lat="45.78292" lon="4.2919">
        <ele>388</ele>
        <time>2017-04-13T09:56:47Z</time>
      </trkpt>
      <trkpt lat="45.78293" lon="4.29196">
        <ele>389</ele>
        <time>2017-04-13T09:56:50Z</time>
      </trkpt>
      <trkpt lat="45.78294" lon="4.292">
        <ele>389</ele>
        <time>2017-04-13T09:56:52Z</time>
      </trkpt>
      <trkpt lat="45.78295" lon="4.29205">
        <ele>389</ele>
        <time>2017-04-13T09:56:54Z</time>
      </trkpt>
      <trkpt lat="45.78295" lon="4.29209">
        <ele>389</ele>
        <time>2017-04-13T09:56:56Z</time>
      </trkpt>
      <trkpt lat="45.78296" lon="4.29217">
        <ele>390</ele>
        <time>2017-04-13T09:56:59Z</time>
      </trkpt>
      <trkpt lat="45.78297" lon="4.29221">
        <ele>390</ele>
        <time>2017-04-13T09:57:02Z</time>
      </trkpt>
      <trkpt lat="45.78298" lon="4.29227">
        <ele>390</ele>
        <time>2017-04-13T09:57:04Z</time>
      </trkpt>
      <trkpt lat="45.78297" lon="4.29231">
        <ele>391</ele>
        <time>2017-04-13T09:57:06Z</time>
      </trkpt>
      <trkpt lat="45.78297" lon="4.29235">
        <ele>392</ele>
        <time>2017-04-13T09:57:08Z</time>
      </trkpt>
      <trkpt lat="45.78297" lon="4.29238">
        <ele>392</ele>
        <time>2017-04-13T09:57:10Z</time>
      </trkpt>
      <trkpt lat="45.78297" lon="4.29244">
        <ele>392</ele>
        <time>2017-04-13T09:57:13Z</time>
      </trkpt>
      <trkpt lat="45.78297" lon="4.29248">
        <ele>393</ele>
        <time>2017-04-13T09:57:15Z</time>
      </trkpt>
      <trkpt lat="45.78297" lon="4.29255">
        <ele>393</ele>
        <time>2017-04-13T09:57:18Z</time>
      </trkpt>
      <trkpt lat="45.78297" lon="4.29259">
        <ele>393</ele>
        <time>2017-04-13T09:57:20Z</time>
      </trkpt>
      <trkpt lat="45.78297" lon="4.29263">
        <ele>394</ele>
        <time>2017-04-13T09:57:22Z</time>
      </trkpt>
      <trkpt lat="45.78297" lon="4.29267">
        <ele>395</ele>
        <time>2017-04-13T09:57:24Z</time>
      </trkpt>
      <trkpt lat="45.78297" lon="4.29273">
        <ele>396</ele>
        <time>2017-04-13T09:57:27Z</time>
      </trkpt>
      <trkpt lat="45.78298" lon="4.29279">
        <ele>396</ele>
        <time>2017-04-13T09:57:30Z</time>
      </trkpt>
      <trkpt lat="45.78298" lon="4.29284">
        <ele>397</ele>
        <time>2017-04-13T09:57:32Z</time>
      </trkpt>
      <trkpt lat="45.78297" lon="4.2929">
        <ele>398</ele>
        <time>2017-04-13T09:57:35Z</time>
      </trkpt>
      <trkpt lat="45.78298" lon="4.29295">
        <ele>399</ele>
        <time>2017-04-13T09:57:38Z</time>
      </trkpt>
      <trkpt lat="45.78299" lon="4.29299">
        <ele>399</ele>
        <time>2017-04-13T09:57:40Z</time>
      </trkpt>
      <trkpt lat="45.78302" lon="4.29304">
        <ele>400</ele>
        <time>2017-04-13T09:57:43Z</time>
      </trkpt>
      <trkpt lat="45.78304" lon="4.29307">
        <ele>401</ele>
        <time>2017-04-13T09:57:45Z</time>
      </trkpt>
      <trkpt lat="45.78306" lon="4.2931">
        <ele>401</ele>
        <time>2017-04-13T09:57:47Z</time>
      </trkpt>
      <trkpt lat="45.78307" lon="4.29312">
        <ele>402</ele>
        <time>2017-04-13T09:57:49Z</time>
      </trkpt>
      <trkpt lat="45.78308" lon="4.29314">
        <ele>402</ele>
        <time>2017-04-13T09:57:52Z</time>
      </trkpt>
      <trkpt lat="45.7831" lon="4.29314">
        <ele>403</ele>
        <time>2017-04-13T09:57:54Z</time>
      </trkpt>
      <trkpt lat="45.78313" lon="4.29313">
        <ele>404</ele>
        <time>2017-04-13T09:57:56Z</time>
      </trkpt>
      <trkpt lat="45.78316" lon="4.29312">
        <ele>404</ele>
        <time>2017-04-13T09:57:58Z</time>
      </trkpt>
      <trkpt lat="45.78317" lon="4.29311">
        <ele>405</ele>
        <time>2017-04-13T09:58:00Z</time>
      </trkpt>
      <trkpt lat="45.78321" lon="4.29309">
        <ele>406</ele>
        <time>2017-04-13T09:58:03Z</time>
      </trkpt>
      <trkpt lat="45.78323" lon="4.29309">
        <ele>407</ele>
        <time>2017-04-13T09:58:06Z</time>
      </trkpt>
      <trkpt lat="45.78328" lon="4.2931">
        <ele>407</ele>
        <time>2017-04-13T09:58:08Z</time>
      </trkpt>
      <trkpt lat="45.7833" lon="4.2931">
        <ele>408</ele>
        <time>2017-04-13T09:58:10Z</time>
      </trkpt>
      <trkpt lat="45.78333" lon="4.29312">
        <ele>408</ele>
        <time>2017-04-13T09:58:13Z</time>
      </trkpt>
      <trkpt lat="45.78336" lon="4.29313">
        <ele>409</ele>
        <time>2017-04-13T09:58:15Z</time>
      </trkpt>
      <trkpt lat="45.78338" lon="4.29314">
        <ele>410</ele>
        <time>2017-04-13T09:58:17Z</time>
      </trkpt>
      <trkpt lat="45.78342" lon="4.29316">
        <ele>410</ele>
        <time>2017-04-13T09:58:20Z</time>
      </trkpt>
      <trkpt lat="45.78344" lon="4.29318">
        <ele>411</ele>
        <time>2017-04-13T09:58:22Z</time>
      </trkpt>
      <trkpt lat="45.78345" lon="4.29319">
        <ele>412</ele>
        <time>2017-04-13T09:58:24Z</time>
      </trkpt>
      <trkpt lat="45.78347" lon="4.2932">
        <ele>412</ele>
        <time>2017-04-13T09:58:26Z</time>
      </trkpt>
      <trkpt lat="45.78351" lon="4.29323">
        <ele>413</ele>
        <time>2017-04-13T09:58:29Z</time>
      </trkpt>
      <trkpt lat="45.78353" lon="4.29325">
        <ele>413</ele>
        <time>2017-04-13T09:58:31Z</time>
      </trkpt>
      <trkpt lat="45.78356" lon="4.29326">
        <ele>414</ele>
        <time>2017-04-13T09:58:33Z</time>
      </trkpt>
      <trkpt lat="45.7836" lon="4.29328">
        <ele>414</ele>
        <time>2017-04-13T09:58:36Z</time>
      </trkpt>
      <trkpt lat="45.78363" lon="4.29329">
        <ele>415</ele>
        <time>2017-04-13T09:58:38Z</time>
      </trkpt>
      <trkpt lat="45.78366" lon="4.29329">
        <ele>416</ele>
        <time>2017-04-13T09:58:40Z</time>
      </trkpt>
      <trkpt lat="45.7837" lon="4.29331">
        <ele>416</ele>
        <time>2017-04-13T09:58:43Z</time>
      </trkpt>
      <trkpt lat="45.78373" lon="4.29331">
        <ele>417</ele>
        <time>2017-04-13T09:58:45Z</time>
      </trkpt>
      <trkpt lat="45.78376" lon="4.29332">
        <ele>417</ele>
        <time>2017-04-13T09:58:47Z</time>
      </trkpt>
      <trkpt lat="45.7838" lon="4.29333">
        <ele>418</ele>
        <time>2017-04-13T09:58:50Z</time>
      </trkpt>
      <trkpt lat="45.78383" lon="4.29335">
        <ele>419</ele>
        <time>2017-04-13T09:58:52Z</time>
      </trkpt>
      <trkpt lat="45.78388" lon="4.29336">
        <ele>420</ele>
        <time>2017-04-13T09:58:55Z</time>
      </trkpt>
      <trkpt lat="45.78392" lon="4.29337">
        <ele>421</ele>
        <time>2017-04-13T09:58:58Z</time>
      </trkpt>
      <trkpt lat="45.78395" lon="4.29338">
        <ele>422</ele>
        <time>2017-04-13T09:59:00Z</time>
      </trkpt>
      <trkpt lat="45.784" lon="4.29339">
        <ele>422</ele>
        <time>2017-04-13T09:59:03Z</time>
      </trkpt>
      <trkpt lat="45.78403" lon="4.29339">
        <ele>423</ele>
        <time>2017-04-13T09:59:05Z</time>
      </trkpt>
      <trkpt lat="45.78408" lon="4.2934">
        <ele>424</ele>
        <time>2017-04-13T09:59:08Z</time>
      </trkpt>
      <trkpt lat="45.78411" lon="4.2934">
        <ele>424</ele>
        <time>2017-04-13T09:59:10Z</time>
      </trkpt>
      <trkpt lat="45.78414" lon="4.2934">
        <ele>424</ele>
        <time>2017-04-13T09:59:12Z</time>
      </trkpt>
      <trkpt lat="45.78417" lon="4.2934">
        <ele>425</ele>
        <time>2017-04-13T09:59:14Z</time>
      </trkpt>
      <trkpt lat="45.78423" lon="4.2934">
        <ele>425</ele>
        <time>2017-04-13T09:59:17Z</time>
      </trkpt>
      <trkpt lat="45.78427" lon="4.2934">
        <ele>426</ele>
        <time>2017-04-13T09:59:20Z</time>
      </trkpt>
      <trkpt lat="45.7843" lon="4.29341">
        <ele>427</ele>
        <time>2017-04-13T09:59:22Z</time>
      </trkpt>
      <trkpt lat="45.78433" lon="4.29341">
        <ele>427</ele>
        <time>2017-04-13T09:59:24Z</time>
      </trkpt>
      <trkpt lat="45.78436" lon="4.29341">
        <ele>427</ele>
        <time>2017-04-13T09:59:26Z</time>
      </trkpt>
      <trkpt lat="45.78442" lon="4.2934">
        <ele>427</ele>
        <time>2017-04-13T09:59:29Z</time>
      </trkpt>
      <trkpt lat="45.78445" lon="4.2934">
        <ele>428</ele>
        <time>2017-04-13T09:59:31Z</time>
      </trkpt>
      <trkpt lat="45.78448" lon="4.29339">
        <ele>428</ele>
        <time>2017-04-13T09:59:33Z</time>
      </trkpt>
      <trkpt lat="45.78451" lon="4.29339">
        <ele>428</ele>
        <time>2017-04-13T09:59:35Z</time>
      </trkpt>
      <trkpt lat="45.78455" lon="4.29338">
        <ele>429</ele>
        <time>2017-04-13T09:59:38Z</time>
      </trkpt>
      <trkpt lat="45.78459" lon="4.29338">
        <ele>429</ele>
        <time>2017-04-13T09:59:40Z</time>
      </trkpt>
      <trkpt lat="45.78464" lon="4.29337">
        <ele>429</ele>
        <time>2017-04-13T09:59:43Z</time>
      </trkpt>
      <trkpt lat="45.78467" lon="4.29337">
        <ele>429</ele>
        <time>2017-04-13T09:59:45Z</time>
      </trkpt>
      <trkpt lat="45.7847" lon="4.29336">
        <ele>430</ele>
        <time>2017-04-13T09:59:47Z</time>
      </trkpt>
      <trkpt lat="45.78475" lon="4.29335">
        <ele>430</ele>
        <time>2017-04-13T09:59:50Z</time>
      </trkpt>
      <trkpt lat="45.78478" lon="4.29335">
        <ele>430</ele>
        <time>2017-04-13T09:59:52Z</time>
      </trkpt>
      <trkpt lat="45.78481" lon="4.29334">
        <ele>430</ele>
        <time>2017-04-13T09:59:54Z</time>
      </trkpt>
      <trkpt lat="45.78486" lon="4.29334">
        <ele>431</ele>
        <time>2017-04-13T09:59:57Z</time>
      </trkpt>
      <trkpt lat="45.78489" lon="4.29333">
        <ele>431</ele>
        <time>2017-04-13T09:59:59Z</time>
      </trkpt>
      <trkpt lat="45.78492" lon="4.29332">
        <ele>431</ele>
        <time>2017-04-13T10:00:01Z</time>
      </trkpt>
      <trkpt lat="45.78495" lon="4.29332">
        <ele>432</ele>
        <time>2017-04-13T10:00:03Z</time>
      </trkpt>
      <trkpt lat="45.78498" lon="4.29331">
        <ele>432</ele>
        <time>2017-04-13T10:00:05Z</time>
      </trkpt>
      <trkpt lat="45.78502" lon="4.29331">
        <ele>432</ele>
        <time>2017-04-13T10:00:08Z</time>
      </trkpt>
      <trkpt lat="45.78506" lon="4.2933">
        <ele>432</ele>
        <time>2017-04-13T10:00:10Z</time>
      </trkpt>
      <trkpt lat="45.78511" lon="4.29329">
        <ele>433</ele>
        <time>2017-04-13T10:00:13Z</time>
      </trkpt>
      <trkpt lat="45.78514" lon="4.29328">
        <ele>433</ele>
        <time>2017-04-13T10:00:15Z</time>
      </trkpt>
      <trkpt lat="45.78518" lon="4.29327">
        <ele>433</ele>
        <time>2017-04-13T10:00:17Z</time>
      </trkpt>
      <trkpt lat="45.78521" lon="4.29326">
        <ele>433</ele>
        <time>2017-04-13T10:00:19Z</time>
      </trkpt>
      <trkpt lat="45.78526" lon="4.29325">
        <ele>434</ele>
        <time>2017-04-13T10:00:22Z</time>
      </trkpt>
      <trkpt lat="45.78529" lon="4.29324">
        <ele>434</ele>
        <time>2017-04-13T10:00:24Z</time>
      </trkpt>
      <trkpt lat="45.78532" lon="4.29324">
        <ele>434</ele>
        <time>2017-04-13T10:00:26Z</time>
      </trkpt>
      <trkpt lat="45.78535" lon="4.29323">
        <ele>434</ele>
        <time>2017-04-13T10:00:28Z</time>
      </trkpt>
      <trkpt lat="45.78538" lon="4.29323">
        <ele>435</ele>
        <time>2017-04-13T10:00:30Z</time>
      </trkpt>
      <trkpt lat="45.78541" lon="4.29322">
        <ele>435</ele>
        <time>2017-04-13T10:00:32Z</time>
      </trkpt>
      <trkpt lat="45.78546" lon="4.29321">
        <ele>435</ele>
        <time>2017-04-13T10:00:35Z</time>
      </trkpt>
      <trkpt lat="45.7855" lon="4.29321">
        <ele>435</ele>
        <time>2017-04-13T10:00:38Z</time>
      </trkpt>
      <trkpt lat="45.78554" lon="4.29321">
        <ele>435</ele>
        <time>2017-04-13T10:00:40Z</time>
      </trkpt>
      <trkpt lat="45.78557" lon="4.2932">
        <ele>436</ele>
        <time>2017-04-13T10:00:42Z</time>
      </trkpt>
      <trkpt lat="45.78562" lon="4.2932">
        <ele>436</ele>
        <time>2017-04-13T10:00:45Z</time>
      </trkpt>
      <trkpt lat="45.78565" lon="4.29319">
        <ele>436</ele>
        <time>2017-04-13T10:00:48Z</time>
      </trkpt>
      <trkpt lat="45.78569" lon="4.29319">
        <ele>436</ele>
        <time>2017-04-13T10:00:50Z</time>
      </trkpt>
      <trkpt lat="45.78572" lon="4.29319">
        <ele>436</ele>
        <time>2017-04-13T10:00:52Z</time>
      </trkpt>
      <trkpt lat="45.78576" lon="4.29318">
        <ele>437</ele>
        <time>2017-04-13T10:00:54Z</time>
      </trkpt>
      <trkpt lat="45.78579" lon="4.29318">
        <ele>437</ele>
        <time>2017-04-13T10:00:56Z</time>
      </trkpt>
      <trkpt lat="45.78582" lon="4.29318">
        <ele>437</ele>
        <time>2017-04-13T10:00:58Z</time>
      </trkpt>
      <trkpt lat="45.78585" lon="4.29318">
        <ele>437</ele>
        <time>2017-04-13T10:01:00Z</time>
      </trkpt>
      <trkpt lat="45.78588" lon="4.29318">
        <ele>437</ele>
        <time>2017-04-13T10:01:03Z</time>
      </trkpt>
      <trkpt lat="45.78593" lon="4.29318">
        <ele>437</ele>
        <time>2017-04-13T10:01:05Z</time>
      </trkpt>
      <trkpt lat="45.78596" lon="4.29318">
        <ele>437</ele>
        <time>2017-04-13T10:01:07Z</time>
      </trkpt>
      <trkpt lat="45.78601" lon="4.29317">
        <ele>438</ele>
        <time>2017-04-13T10:01:10Z</time>
      </trkpt>
      <trkpt lat="45.78605" lon="4.29317">
        <ele>438</ele>
        <time>2017-04-13T10:01:13Z</time>
      </trkpt>
      <trkpt lat="45.7861" lon="4.29317">
        <ele>438</ele>
        <time>2017-04-13T10:01:16Z</time>
      </trkpt>
      <trkpt lat="45.78613" lon="4.29316">
        <ele>438</ele>
        <time>2017-04-13T10:01:18Z</time>
      </trkpt>
      <trkpt lat="45.78615" lon="4.29316">
        <ele>438</ele>
        <time>2017-04-13T10:01:20Z</time>
      </trkpt>
      <trkpt lat="45.7862" lon="4.29316">
        <ele>438</ele>
        <time>2017-04-13T10:01:23Z</time>
      </trkpt>
      <trkpt lat="45.78623" lon="4.29316">
        <ele>438</ele>
        <time>2017-04-13T10:01:25Z</time>
      </trkpt>
      <trkpt lat="45.78627" lon="4.29317">
        <ele>439</ele>
        <time>2017-04-13T10:01:27Z</time>
      </trkpt>
      <trkpt lat="45.7863" lon="4.29317">
        <ele>439</ele>
        <time>2017-04-13T10:01:29Z</time>
      </trkpt>
      <trkpt lat="45.78635" lon="4.29318">
        <ele>439</ele>
        <time>2017-04-13T10:01:32Z</time>
      </trkpt>
      <trkpt lat="45.78638" lon="4.29317">
        <ele>439</ele>
        <time>2017-04-13T10:01:34Z</time>
      </trkpt>
      <trkpt lat="45.78641" lon="4.29317">
        <ele>439</ele>
        <time>2017-04-13T10:01:36Z</time>
      </trkpt>
      <trkpt lat="45.78646" lon="4.29316">
        <ele>440</ele>
        <time>2017-04-13T10:01:39Z</time>
      </trkpt>
      <trkpt lat="45.78649" lon="4.29315">
        <ele>440</ele>
        <time>2017-04-13T10:01:41Z</time>
      </trkpt>
      <trkpt lat="45.78653" lon="4.29314">
        <ele>440</ele>
        <time>2017-04-13T10:01:44Z</time>
      </trkpt>
      <trkpt lat="45.78656" lon="4.29313">
        <ele>440</ele>
        <time>2017-04-13T10:01:46Z</time>
      </trkpt>
      <trkpt lat="45.78658" lon="4.29313">
        <ele>440</ele>
        <time>2017-04-13T10:01:48Z</time>
      </trkpt>
      <trkpt lat="45.78661" lon="4.29314">
        <ele>440</ele>
        <time>2017-04-13T10:01:50Z</time>
      </trkpt>
      <trkpt lat="45.78666" lon="4.29314">
        <ele>441</ele>
        <time>2017-04-13T10:01:53Z</time>
      </trkpt>
      <trkpt lat="45.78669" lon="4.29315">
        <ele>441</ele>
        <time>2017-04-13T10:01:55Z</time>
      </trkpt>
      <trkpt lat="45.78673" lon="4.29316">
        <ele>442</ele>
        <time>2017-04-13T10:01:58Z</time>
      </trkpt>
      <trkpt lat="45.78676" lon="4.29317">
        <ele>442</ele>
        <time>2017-04-13T10:02:00Z</time>
      </trkpt>
      <trkpt lat="45.7868" lon="4.29318">
        <ele>442</ele>
        <time>2017-04-13T10:02:03Z</time>
      </trkpt>
      <trkpt lat="45.78685" lon="4.29319">
        <ele>442</ele>
        <time>2017-04-13T10:02:06Z</time>
      </trkpt>
      <trkpt lat="45.78688" lon="4.29319">
        <ele>442</ele>
        <time>2017-04-13T10:02:08Z</time>
      </trkpt>
      <trkpt lat="45.78692" lon="4.2932">
        <ele>443</ele>
        <time>2017-04-13T10:02:11Z</time>
      </trkpt>
      <trkpt lat="45.78696" lon="4.29321">
        <ele>443</ele>
        <time>2017-04-13T10:02:14Z</time>
      </trkpt>
      <trkpt lat="45.78699" lon="4.29322">
        <ele>443</ele>
        <time>2017-04-13T10:02:16Z</time>
      </trkpt>
      <trkpt lat="45.78704" lon="4.29323">
        <ele>443</ele>
        <time>2017-04-13T10:02:19Z</time>
      </trkpt>
      <trkpt lat="45.78706" lon="4.29324">
        <ele>443</ele>
        <time>2017-04-13T10:02:21Z</time>
      </trkpt>
      <trkpt lat="45.78711" lon="4.29325">
        <ele>444</ele>
        <time>2017-04-13T10:02:24Z</time>
      </trkpt>
      <trkpt lat="45.78715" lon="4.29326">
        <ele>444</ele>
        <time>2017-04-13T10:02:26Z</time>
      </trkpt>
      <trkpt lat="45.78719" lon="4.29327">
        <ele>444</ele>
        <time>2017-04-13T10:02:29Z</time>
      </trkpt>
      <trkpt lat="45.78722" lon="4.29327">
        <ele>445</ele>
        <time>2017-04-13T10:02:31Z</time>
      </trkpt>
      <trkpt lat="45.78725" lon="4.29328">
        <ele>445</ele>
        <time>2017-04-13T10:02:33Z</time>
      </trkpt>
      <trkpt lat="45.78728" lon="4.29328">
        <ele>445</ele>
        <time>2017-04-13T10:02:35Z</time>
      </trkpt>
      <trkpt lat="45.78733" lon="4.29329">
        <ele>446</ele>
        <time>2017-04-13T10:02:38Z</time>
      </trkpt>
      <trkpt lat="45.78737" lon="4.2933">
        <ele>446</ele>
        <time>2017-04-13T10:02:41Z</time>
      </trkpt>
      <trkpt lat="45.7874" lon="4.29331">
        <ele>446</ele>
        <time>2017-04-13T10:02:43Z</time>
      </trkpt>
      <trkpt lat="45.78745" lon="4.29331">
        <ele>446</ele>
        <time>2017-04-13T10:02:46Z</time>
      </trkpt>
      <trkpt lat="45.78749" lon="4.29333">
        <ele>447</ele>
        <time>2017-04-13T10:02:49Z</time>
      </trkpt>
      <trkpt lat="45.78752" lon="4.29333">
        <ele>447</ele>
        <time>2017-04-13T10:02:51Z</time>
      </trkpt>
      <trkpt lat="45.78755" lon="4.29334">
        <ele>447</ele>
        <time>2017-04-13T10:02:53Z</time>
      </trkpt>
      <trkpt lat="45.78758" lon="4.29335">
        <ele>448</ele>
        <time>2017-04-13T10:02:55Z</time>
      </trkpt>
      <trkpt lat="45.78761" lon="4.29336">
        <ele>448</ele>
        <time>2017-04-13T10:02:58Z</time>
      </trkpt>
      <trkpt lat="45.78765" lon="4.29337">
        <ele>448</ele>
        <time>2017-04-13T10:03:00Z</time>
      </trkpt>
      <trkpt lat="45.78769" lon="4.29337">
        <ele>448</ele>
        <time>2017-04-13T10:03:02Z</time>
      </trkpt>
      <trkpt lat="45.78773" lon="4.29338">
        <ele>449</ele>
        <time>2017-04-13T10:03:05Z</time>
      </trkpt>
      <trkpt lat="45.78778" lon="4.29339">
        <ele>449</ele>
        <time>2017-04-13T10:03:08Z</time>
      </trkpt>
      <trkpt lat="45.78781" lon="4.2934">
        <ele>449</ele>
        <time>2017-04-13T10:03:10Z</time>
      </trkpt>
      <trkpt lat="45.78786" lon="4.2934">
        <ele>449</ele>
        <time>2017-04-13T10:03:13Z</time>
      </trkpt>
      <trkpt lat="45.7879" lon="4.29342">
        <ele>449</ele>
        <time>2017-04-13T10:03:16Z</time>
      </trkpt>
      <trkpt lat="45.78793" lon="4.29342">
        <ele>449</ele>
        <time>2017-04-13T10:03:18Z</time>
      </trkpt>
      <trkpt lat="45.78796" lon="4.29343">
        <ele>450</ele>
        <time>2017-04-13T10:03:20Z</time>
      </trkpt>
      <trkpt lat="45.78801" lon="4.29344">
        <ele>450</ele>
        <time>2017-04-13T10:03:23Z</time>
      </trkpt>
      <trkpt lat="45.78804" lon="4.29345">
        <ele>450</ele>
        <time>2017-04-13T10:03:25Z</time>
      </trkpt>
      <trkpt lat="45.78809" lon="4.29346">
        <ele>450</ele>
        <time>2017-04-13T10:03:28Z</time>
      </trkpt>
      <trkpt lat="45.78812" lon="4.29347">
        <ele>451</ele>
        <time>2017-04-13T10:03:30Z</time>
      </trkpt>
      <trkpt lat="45.78815" lon="4.29348">
        <ele>451</ele>
        <time>2017-04-13T10:03:32Z</time>
      </trkpt>
      <trkpt lat="45.78818" lon="4.2935">
        <ele>451</ele>
        <time>2017-04-13T10:03:34Z</time>
      </trkpt>
      <trkpt lat="45.78821" lon="4.2935">
        <ele>451</ele>
        <time>2017-04-13T10:03:37Z</time>
      </trkpt>
      <trkpt lat="45.78822" lon="4.2935">
        <ele>451</ele>
        <time>2017-04-13T10:03:39Z</time>
      </trkpt>
      <trkpt lat="45.78823" lon="4.29351">
        <ele>451</ele>
        <time>2017-04-13T10:03:42Z</time>
      </trkpt>
      <trkpt lat="45.78823" lon="4.29351">
        <ele>451</ele>
        <time>2017-04-13T10:03:44Z</time>
      </trkpt>
      <trkpt lat="45.78823" lon="4.29352">
        <ele>451</ele>
        <time>2017-04-13T10:03:47Z</time>
      </trkpt>
      <trkpt lat="45.78824" lon="4.29352">
        <ele>451</ele>
        <time>2017-04-13T10:03:50Z</time>
      </trkpt>
      <trkpt lat="45.78824" lon="4.29352">
        <ele>451</ele>
        <time>2017-04-13T10:03:52Z</time>
      </trkpt>
      <trkpt lat="45.78824" lon="4.29352">
        <ele>451</ele>
        <time>2017-04-13T10:03:54Z</time>
      </trkpt>
      <trkpt lat="45.78824" lon="4.29352">
        <ele>450</ele>
        <time>2017-04-13T10:03:58Z</time>
      </trkpt>
      <trkpt lat="45.78825" lon="4.29352">
        <ele>450</ele>
        <time>2017-04-13T10:04:00Z</time>
      </trkpt>
      <trkpt lat="45.78825" lon="4.29352">
        <ele>450</ele>
        <time>2017-04-13T10:04:02Z</time>
      </trkpt>
      <trkpt lat="45.78825" lon="4.29352">
        <ele>451</ele>
        <time>2017-04-13T10:04:06Z</time>
      </trkpt>
      <trkpt lat="45.78825" lon="4.29352">
        <ele>451</ele>
        <time>2017-04-13T10:04:10Z</time>
      </trkpt>
      <trkpt lat="45.78825" lon="4.29352">
        <ele>450</ele>
        <time>2017-04-13T10:04:12Z</time>
      </trkpt>
      <trkpt lat="45.78825" lon="4.29352">
        <ele>450</ele>
        <time>2017-04-13T10:04:15Z</time>
      </trkpt>
      <trkpt lat="45.78826" lon="4.29352">
        <ele>450</ele>
        <time>2017-04-13T10:04:17Z</time>
      </trkpt>
      <trkpt lat="45.78826" lon="4.29353">
        <ele>450</ele>
        <time>2017-04-13T10:04:19Z</time>
      </trkpt>
      <trkpt lat="45.78827" lon="4.29353">
        <ele>451</ele>
        <time>2017-04-13T10:04:21Z</time>
      </trkpt>
      <trkpt lat="45.78827" lon="4.29353">
        <ele>451</ele>
        <time>2017-04-13T10:04:24Z</time>
      </trkpt>
      <trkpt lat="45.78827" lon="4.29353">
        <ele>451</ele>
        <time>2017-04-13T10:04:26Z</time>
      </trkpt>
      <trkpt lat="45.78828" lon="4.29353">
        <ele>451</ele>
        <time>2017-04-13T10:04:29Z</time>
      </trkpt>
      <trkpt lat="45.78828" lon="4.29354">
        <ele>451</ele>
        <time>2017-04-13T10:04:32Z</time>
      </trkpt>
      <trkpt lat="45.78828" lon="4.29354">
        <ele>451</ele>
        <time>2017-04-13T10:04:35Z</time>
      </trkpt>
      <trkpt lat="45.78828" lon="4.29354">
        <ele>451</ele>
        <time>2017-04-13T10:04:41Z</time>
      </trkpt>
      <trkpt lat="45.78828" lon="4.29353">
        <ele>451</ele>
        <time>2017-04-13T10:04:44Z</time>
      </trkpt>
      <trkpt lat="45.78828" lon="4.29353">
        <ele>451</ele>
        <time>2017-04-13T10:04:47Z</time>
      </trkpt>
      <trkpt lat="45.78828" lon="4.29353">
        <ele>451</ele>
        <time>2017-04-13T10:04:50Z</time>
      </trkpt>
      <trkpt lat="45.78828" lon="4.29353">
        <ele>451</ele>
        <time>2017-04-13T10:04:54Z</time>
      </trkpt>
      <trkpt lat="45.78828" lon="4.29353">
        <ele>451</ele>
        <time>2017-04-13T10:04:58Z</time>
      </trkpt>
      <trkpt lat="45.78828" lon="4.29354">
        <ele>451</ele>
        <time>2017-04-13T10:05:01Z</time>
      </trkpt>
      <trkpt lat="45.78828" lon="4.29355">
        <ele>451</ele>
        <time>2017-04-13T10:05:03Z</time>
      </trkpt>
      <trkpt lat="45.7883" lon="4.29359">
        <ele>451</ele>
        <time>2017-04-13T10:05:06Z</time>
      </trkpt>
      <trkpt lat="45.78832" lon="4.29361">
        <ele>451</ele>
        <time>2017-04-13T10:05:08Z</time>
      </trkpt>
      <trkpt lat="45.78834" lon="4.29363">
        <ele>452</ele>
        <time>2017-04-13T10:05:10Z</time>
      </trkpt>
      <trkpt lat="45.78837" lon="4.29367">
        <ele>452</ele>
        <time>2017-04-13T10:05:13Z</time>
      </trkpt>
      <trkpt lat="45.78839" lon="4.29369">
        <ele>452</ele>
        <time>2017-04-13T10:05:15Z</time>
      </trkpt>
      <trkpt lat="45.78842" lon="4.29373">
        <ele>452</ele>
        <time>2017-04-13T10:05:18Z</time>
      </trkpt>
      <trkpt lat="45.78845" lon="4.29375">
        <ele>453</ele>
        <time>2017-04-13T10:05:20Z</time>
      </trkpt>
      <trkpt lat="45.78847" lon="4.29377">
        <ele>453</ele>
        <time>2017-04-13T10:05:22Z</time>
      </trkpt>
      <trkpt lat="45.7885" lon="4.2938">
        <ele>454</ele>
        <time>2017-04-13T10:05:25Z</time>
      </trkpt>
      <trkpt lat="45.78852" lon="4.29383">
        <ele>454</ele>
        <time>2017-04-13T10:05:27Z</time>
      </trkpt>
      <trkpt lat="45.78856" lon="4.29386">
        <ele>455</ele>
        <time>2017-04-13T10:05:30Z</time>
      </trkpt>
      <trkpt lat="45.78859" lon="4.2939">
        <ele>455</ele>
        <time>2017-04-13T10:05:33Z</time>
      </trkpt>
      <trkpt lat="45.78861" lon="4.29392">
        <ele>455</ele>
        <time>2017-04-13T10:05:35Z</time>
      </trkpt>
      <trkpt lat="45.78864" lon="4.29394">
        <ele>456</ele>
        <time>2017-04-13T10:05:37Z</time>
      </trkpt>
      <trkpt lat="45.78867" lon="4.29398">
        <ele>456</ele>
        <time>2017-04-13T10:05:40Z</time>
      </trkpt>
      <trkpt lat="45.78869" lon="4.294">
        <ele>456</ele>
        <time>2017-04-13T10:05:42Z</time>
      </trkpt>
      <trkpt lat="45.78873" lon="4.29403">
        <ele>457</ele>
        <time>2017-04-13T10:05:45Z</time>
      </trkpt>
      <trkpt lat="45.78876" lon="4.29406">
        <ele>457</ele>
        <time>2017-04-13T10:05:48Z</time>
      </trkpt>
      <trkpt lat="45.78879" lon="4.2941">
        <ele>458</ele>
        <time>2017-04-13T10:05:51Z</time>
      </trkpt>
      <trkpt lat="45.78881" lon="4.29412">
        <ele>458</ele>
        <time>2017-04-13T10:05:53Z</time>
      </trkpt>
      <trkpt lat="45.78885" lon="4.29416">
        <ele>458</ele>
        <time>2017-04-13T10:05:56Z</time>
      </trkpt>
      <trkpt lat="45.78887" lon="4.29418">
        <ele>459</ele>
        <time>2017-04-13T10:05:58Z</time>
      </trkpt>
      <trkpt lat="45.78889" lon="4.2942">
        <ele>459</ele>
        <time>2017-04-13T10:06:01Z</time>
      </trkpt>
      <trkpt lat="45.78893" lon="4.29423">
        <ele>459</ele>
        <time>2017-04-13T10:06:03Z</time>
      </trkpt>
      <trkpt lat="45.78895" lon="4.29425">
        <ele>459</ele>
        <time>2017-04-13T10:06:05Z</time>
      </trkpt>
      <trkpt lat="45.78897" lon="4.29427">
        <ele>459</ele>
        <time>2017-04-13T10:06:07Z</time>
      </trkpt>
      <trkpt lat="45.78901" lon="4.29431">
        <ele>460</ele>
        <time>2017-04-13T10:06:10Z</time>
      </trkpt>
      <trkpt lat="45.78904" lon="4.29434">
        <ele>460</ele>
        <time>2017-04-13T10:06:13Z</time>
      </trkpt>
      <trkpt lat="45.78906" lon="4.29436">
        <ele>460</ele>
        <time>2017-04-13T10:06:15Z</time>
      </trkpt>
      <trkpt lat="45.7891" lon="4.2944">
        <ele>461</ele>
        <time>2017-04-13T10:06:18Z</time>
      </trkpt>
      <trkpt lat="45.78913" lon="4.29444">
        <ele>461</ele>
        <time>2017-04-13T10:06:21Z</time>
      </trkpt>
      <trkpt lat="45.78915" lon="4.29446">
        <ele>461</ele>
        <time>2017-04-13T10:06:23Z</time>
      </trkpt>
      <trkpt lat="45.78919" lon="4.29449">
        <ele>461</ele>
        <time>2017-04-13T10:06:26Z</time>
      </trkpt>
      <trkpt lat="45.78922" lon="4.29451">
        <ele>461</ele>
        <time>2017-04-13T10:06:28Z</time>
      </trkpt>
      <trkpt lat="45.78926" lon="4.29454">
        <ele>462</ele>
        <time>2017-04-13T10:06:31Z</time>
      </trkpt>
      <trkpt lat="45.78928" lon="4.29455">
        <ele>462</ele>
        <time>2017-04-13T10:06:33Z</time>
      </trkpt>
      <trkpt lat="45.78931" lon="4.29457">
        <ele>462</ele>
        <time>2017-04-13T10:06:35Z</time>
      </trkpt>
      <trkpt lat="45.78934" lon="4.29459">
        <ele>462</ele>
        <time>2017-04-13T10:06:38Z</time>
      </trkpt>
      <trkpt lat="45.78937" lon="4.29461">
        <ele>462</ele>
        <time>2017-04-13T10:06:40Z</time>
      </trkpt>
      <trkpt lat="45.78941" lon="4.29463">
        <ele>463</ele>
        <time>2017-04-13T10:06:43Z</time>
      </trkpt>
      <trkpt lat="45.78944" lon="4.29465">
        <ele>463</ele>
        <time>2017-04-13T10:06:45Z</time>
      </trkpt>
      <trkpt lat="45.78946" lon="4.29466">
        <ele>464</ele>
        <time>2017-04-13T10:06:47Z</time>
      </trkpt>
      <trkpt lat="45.78949" lon="4.29467">
        <ele>464</ele>
        <time>2017-04-13T10:06:49Z</time>
      </trkpt>
      <trkpt lat="45.78952" lon="4.29468">
        <ele>464</ele>
        <time>2017-04-13T10:06:51Z</time>
      </trkpt>
      <trkpt lat="45.78954" lon="4.2947">
        <ele>464</ele>
        <time>2017-04-13T10:06:53Z</time>
      </trkpt>
      <trkpt lat="45.78958" lon="4.29472">
        <ele>464</ele>
        <time>2017-04-13T10:06:56Z</time>
      </trkpt>
      <trkpt lat="45.78961" lon="4.29473">
        <ele>464</ele>
        <time>2017-04-13T10:06:58Z</time>
      </trkpt>
      <trkpt lat="45.78965" lon="4.29474">
        <ele>464</ele>
        <time>2017-04-13T10:07:01Z</time>
      </trkpt>
      <trkpt lat="45.78968" lon="4.29476">
        <ele>464</ele>
        <time>2017-04-13T10:07:03Z</time>
      </trkpt>
      <trkpt lat="45.7897" lon="4.29477">
        <ele>464</ele>
        <time>2017-04-13T10:07:05Z</time>
      </trkpt>
      <trkpt lat="45.78974" lon="4.29479">
        <ele>464</ele>
        <time>2017-04-13T10:07:08Z</time>
      </trkpt>
      <trkpt lat="45.78977" lon="4.2948">
        <ele>465</ele>
        <time>2017-04-13T10:07:10Z</time>
      </trkpt>
      <trkpt lat="45.78981" lon="4.29482">
        <ele>464</ele>
        <time>2017-04-13T10:07:13Z</time>
      </trkpt>
      <trkpt lat="45.78985" lon="4.29484">
        <ele>465</ele>
        <time>2017-04-13T10:07:16Z</time>
      </trkpt>
      <trkpt lat="45.78988" lon="4.29485">
        <ele>465</ele>
        <time>2017-04-13T10:07:18Z</time>
      </trkpt>
      <trkpt lat="45.7899" lon="4.29487">
        <ele>465</ele>
        <time>2017-04-13T10:07:20Z</time>
      </trkpt>
      <trkpt lat="45.78994" lon="4.29489">
        <ele>465</ele>
        <time>2017-04-13T10:07:23Z</time>
      </trkpt>
      <trkpt lat="45.78997" lon="4.2949">
        <ele>465</ele>
        <time>2017-04-13T10:07:25Z</time>
      </trkpt>
      <trkpt lat="45.79" lon="4.29491">
        <ele>465</ele>
        <time>2017-04-13T10:07:27Z</time>
      </trkpt>
      <trkpt lat="45.79003" lon="4.29492">
        <ele>466</ele>
        <time>2017-04-13T10:07:29Z</time>
      </trkpt>
      <trkpt lat="45.79007" lon="4.29494">
        <ele>466</ele>
        <time>2017-04-13T10:07:32Z</time>
      </trkpt>
      <trkpt lat="45.7901" lon="4.29495">
        <ele>466</ele>
        <time>2017-04-13T10:07:34Z</time>
      </trkpt>
      <trkpt lat="45.79014" lon="4.29497">
        <ele>465</ele>
        <time>2017-04-13T10:07:37Z</time>
      </trkpt>
      <trkpt lat="45.79018" lon="4.29499">
        <ele>465</ele>
        <time>2017-04-13T10:07:40Z</time>
      </trkpt>
      <trkpt lat="45.7902" lon="4.295">
        <ele>465</ele>
        <time>2017-04-13T10:07:42Z</time>
      </trkpt>
      <trkpt lat="45.79023" lon="4.29502">
        <ele>465</ele>
        <time>2017-04-13T10:07:44Z</time>
      </trkpt>
      <trkpt lat="45.79027" lon="4.29504">
        <ele>465</ele>
        <time>2017-04-13T10:07:47Z</time>
      </trkpt>
      <trkpt lat="45.79031" lon="4.29505">
        <ele>465</ele>
        <time>2017-04-13T10:07:50Z</time>
      </trkpt>
      <trkpt lat="45.79036" lon="4.29507">
        <ele>465</ele>
        <time>2017-04-13T10:07:53Z</time>
      </trkpt>
      <trkpt lat="45.7904" lon="4.29509">
        <ele>465</ele>
        <time>2017-04-13T10:07:56Z</time>
      </trkpt>
      <trkpt lat="45.79042" lon="4.2951">
        <ele>465</ele>
        <time>2017-04-13T10:07:58Z</time>
      </trkpt>
      <trkpt lat="45.79047" lon="4.29512">
        <ele>466</ele>
        <time>2017-04-13T10:08:01Z</time>
      </trkpt>
      <trkpt lat="45.79051" lon="4.29514">
        <ele>466</ele>
        <time>2017-04-13T10:08:04Z</time>
      </trkpt>
      <trkpt lat="45.79053" lon="4.29516">
        <ele>466</ele>
        <time>2017-04-13T10:08:06Z</time>
      </trkpt>
      <trkpt lat="45.79056" lon="4.29517">
        <ele>466</ele>
        <time>2017-04-13T10:08:08Z</time>
      </trkpt>
      <trkpt lat="45.7906" lon="4.29519">
        <ele>466</ele>
        <time>2017-04-13T10:08:11Z</time>
      </trkpt>
      <trkpt lat="45.79065" lon="4.2952">
        <ele>467</ele>
        <time>2017-04-13T10:08:14Z</time>
      </trkpt>
      <trkpt lat="45.79068" lon="4.29522">
        <ele>467</ele>
        <time>2017-04-13T10:08:17Z</time>
      </trkpt>
      <trkpt lat="45.79071" lon="4.29523">
        <ele>468</ele>
        <time>2017-04-13T10:08:19Z</time>
      </trkpt>
      <trkpt lat="45.79075" lon="4.29525">
        <ele>468</ele>
        <time>2017-04-13T10:08:22Z</time>
      </trkpt>
      <trkpt lat="45.79079" lon="4.29526">
        <ele>468</ele>
        <time>2017-04-13T10:08:25Z</time>
      </trkpt>
      <trkpt lat="45.79082" lon="4.29528">
        <ele>468</ele>
        <time>2017-04-13T10:08:27Z</time>
      </trkpt>
      <trkpt lat="45.79085" lon="4.29529">
        <ele>468</ele>
        <time>2017-04-13T10:08:29Z</time>
      </trkpt>
      <trkpt lat="45.79087" lon="4.2953">
        <ele>468</ele>
        <time>2017-04-13T10:08:31Z</time>
      </trkpt>
      <trkpt lat="45.79092" lon="4.29532">
        <ele>469</ele>
        <time>2017-04-13T10:08:34Z</time>
      </trkpt>
      <trkpt lat="45.79094" lon="4.29533">
        <ele>469</ele>
        <time>2017-04-13T10:08:36Z</time>
      </trkpt>
      <trkpt lat="45.79098" lon="4.29535">
        <ele>469</ele>
        <time>2017-04-13T10:08:39Z</time>
      </trkpt>
      <trkpt lat="45.791" lon="4.29537">
        <ele>469</ele>
        <time>2017-04-13T10:08:41Z</time>
      </trkpt>
      <trkpt lat="45.79104" lon="4.2954">
        <ele>470</ele>
        <time>2017-04-13T10:08:44Z</time>
      </trkpt>
      <trkpt lat="45.79106" lon="4.29541">
        <ele>470</ele>
        <time>2017-04-13T10:08:46Z</time>
      </trkpt>
      <trkpt lat="45.7911" lon="4.29545">
        <ele>471</ele>
        <time>2017-04-13T10:08:49Z</time>
      </trkpt>
      <trkpt lat="45.79112" lon="4.29547">
        <ele>471</ele>
        <time>2017-04-13T10:08:51Z</time>
      </trkpt>
      <trkpt lat="45.79114" lon="4.29549">
        <ele>471</ele>
        <time>2017-04-13T10:08:53Z</time>
      </trkpt>
      <trkpt lat="45.79118" lon="4.29552">
        <ele>471</ele>
        <time>2017-04-13T10:08:56Z</time>
      </trkpt>
      <trkpt lat="45.79121" lon="4.29555">
        <ele>472</ele>
        <time>2017-04-13T10:08:59Z</time>
      </trkpt>
      <trkpt lat="45.79123" lon="4.29557">
        <ele>472</ele>
        <time>2017-04-13T10:09:01Z</time>
      </trkpt>
      <trkpt lat="45.79127" lon="4.2956">
        <ele>472</ele>
        <time>2017-04-13T10:09:04Z</time>
      </trkpt>
      <trkpt lat="45.79129" lon="4.29562">
        <ele>472</ele>
        <time>2017-04-13T10:09:06Z</time>
      </trkpt>
      <trkpt lat="45.79131" lon="4.29564">
        <ele>472</ele>
        <time>2017-04-13T10:09:08Z</time>
      </trkpt>
      <trkpt lat="45.79135" lon="4.29566">
        <ele>473</ele>
        <time>2017-04-13T10:09:11Z</time>
      </trkpt>
      <trkpt lat="45.79138" lon="4.29569">
        <ele>473</ele>
        <time>2017-04-13T10:09:14Z</time>
      </trkpt>
      <trkpt lat="45.79141" lon="4.29571">
        <ele>473</ele>
        <time>2017-04-13T10:09:17Z</time>
      </trkpt>
      <trkpt lat="45.79143" lon="4.29573">
        <ele>473</ele>
        <time>2017-04-13T10:09:19Z</time>
      </trkpt>
      <trkpt lat="45.79146" lon="4.29576">
        <ele>474</ele>
        <time>2017-04-13T10:09:22Z</time>
      </trkpt>
      <trkpt lat="45.79149" lon="4.29577">
        <ele>474</ele>
        <time>2017-04-13T10:09:24Z</time>
      </trkpt>
      <trkpt lat="45.79151" lon="4.29579">
        <ele>475</ele>
        <time>2017-04-13T10:09:26Z</time>
      </trkpt>
      <trkpt lat="45.79153" lon="4.2958">
        <ele>475</ele>
        <time>2017-04-13T10:09:28Z</time>
      </trkpt>
      <trkpt lat="45.79156" lon="4.29582">
        <ele>475</ele>
        <time>2017-04-13T10:09:31Z</time>
      </trkpt>
      <trkpt lat="45.79159" lon="4.29585">
        <ele>475</ele>
        <time>2017-04-13T10:09:34Z</time>
      </trkpt>
      <trkpt lat="45.79161" lon="4.29587">
        <ele>476</ele>
        <time>2017-04-13T10:09:37Z</time>
      </trkpt>
      <trkpt lat="45.79164" lon="4.29589">
        <ele>476</ele>
        <time>2017-04-13T10:09:39Z</time>
      </trkpt>
      <trkpt lat="45.79166" lon="4.2959">
        <ele>476</ele>
        <time>2017-04-13T10:09:41Z</time>
      </trkpt>
      <trkpt lat="45.79168" lon="4.29593">
        <ele>477</ele>
        <time>2017-04-13T10:09:44Z</time>
      </trkpt>
      <trkpt lat="45.79169" lon="4.29596">
        <ele>477</ele>
        <time>2017-04-13T10:09:46Z</time>
      </trkpt>
      <trkpt lat="45.79173" lon="4.29599">
        <ele>478</ele>
        <time>2017-04-13T10:09:49Z</time>
      </trkpt>
      <trkpt lat="45.79175" lon="4.29601">
        <ele>478</ele>
        <time>2017-04-13T10:09:51Z</time>
      </trkpt>
      <trkpt lat="45.79178" lon="4.29601">
        <ele>478</ele>
        <time>2017-04-13T10:09:53Z</time>
      </trkpt>
      <trkpt lat="45.79182" lon="4.296">
        <ele>478</ele>
        <time>2017-04-13T10:09:56Z</time>
      </trkpt>
      <trkpt lat="45.79185" lon="4.29598">
        <ele>478</ele>
        <time>2017-04-13T10:09:59Z</time>
      </trkpt>
      <trkpt lat="45.79189" lon="4.29596">
        <ele>478</ele>
        <time>2017-04-13T10:10:02Z</time>
      </trkpt>
      <trkpt lat="45.79193" lon="4.29594">
        <ele>478</ele>
        <time>2017-04-13T10:10:05Z</time>
      </trkpt>
      <trkpt lat="45.79195" lon="4.29593">
        <ele>478</ele>
        <time>2017-04-13T10:10:07Z</time>
      </trkpt>
      <trkpt lat="45.792" lon="4.29591">
        <ele>478</ele>
        <time>2017-04-13T10:10:10Z</time>
      </trkpt>
      <trkpt lat="45.79204" lon="4.29589">
        <ele>479</ele>
        <time>2017-04-13T10:10:13Z</time>
      </trkpt>
      <trkpt lat="45.79206" lon="4.29589">
        <ele>479</ele>
        <time>2017-04-13T10:10:15Z</time>
      </trkpt>
      <trkpt lat="45.79211" lon="4.29589">
        <ele>479</ele>
        <time>2017-04-13T10:10:18Z</time>
      </trkpt>
      <trkpt lat="45.79214" lon="4.2959">
        <ele>479</ele>
        <time>2017-04-13T10:10:20Z</time>
      </trkpt>
      <trkpt lat="45.79219" lon="4.2959">
        <ele>479</ele>
        <time>2017-04-13T10:10:23Z</time>
      </trkpt>
      <trkpt lat="45.79222" lon="4.29591">
        <ele>480</ele>
        <time>2017-04-13T10:10:25Z</time>
      </trkpt>
      <trkpt lat="45.79225" lon="4.29591">
        <ele>480</ele>
        <time>2017-04-13T10:10:27Z</time>
      </trkpt>
      <trkpt lat="45.79229" lon="4.29592">
        <ele>479</ele>
        <time>2017-04-13T10:10:30Z</time>
      </trkpt>
      <trkpt lat="45.79232" lon="4.29592">
        <ele>479</ele>
        <time>2017-04-13T10:10:32Z</time>
      </trkpt>
      <trkpt lat="45.79237" lon="4.29593">
        <ele>479</ele>
        <time>2017-04-13T10:10:35Z</time>
      </trkpt>
      <trkpt lat="45.7924" lon="4.29593">
        <ele>480</ele>
        <time>2017-04-13T10:10:37Z</time>
      </trkpt>
      <trkpt lat="45.79242" lon="4.29594">
        <ele>480</ele>
        <time>2017-04-13T10:10:39Z</time>
      </trkpt>
      <trkpt lat="45.79245" lon="4.29594">
        <ele>480</ele>
        <time>2017-04-13T10:10:41Z</time>
      </trkpt>
      <trkpt lat="45.7925" lon="4.29596">
        <ele>479</ele>
        <time>2017-04-13T10:10:44Z</time>
      </trkpt>
      <trkpt lat="45.79254" lon="4.29596">
        <ele>479</ele>
        <time>2017-04-13T10:10:47Z</time>
      </trkpt>
      <trkpt lat="45.79257" lon="4.29597">
        <ele>479</ele>
        <time>2017-04-13T10:10:49Z</time>
      </trkpt>
      <trkpt lat="45.79261" lon="4.29597">
        <ele>479</ele>
        <time>2017-04-13T10:10:52Z</time>
      </trkpt>
      <trkpt lat="45.79264" lon="4.29597">
        <ele>479</ele>
        <time>2017-04-13T10:10:54Z</time>
      </trkpt>
      <trkpt lat="45.79268" lon="4.29598">
        <ele>479</ele>
        <time>2017-04-13T10:10:57Z</time>
      </trkpt>
      <trkpt lat="45.79271" lon="4.29598">
        <ele>479</ele>
        <time>2017-04-13T10:10:59Z</time>
      </trkpt>
      <trkpt lat="45.79274" lon="4.29598">
        <ele>479</ele>
        <time>2017-04-13T10:11:02Z</time>
      </trkpt>
      <trkpt lat="45.79278" lon="4.29599">
        <ele>479</ele>
        <time>2017-04-13T10:11:05Z</time>
      </trkpt>
      <trkpt lat="45.79282" lon="4.29599">
        <ele>479</ele>
        <time>2017-04-13T10:11:08Z</time>
      </trkpt>
      <trkpt lat="45.79284" lon="4.29599">
        <ele>479</ele>
        <time>2017-04-13T10:11:10Z</time>
      </trkpt>
      <trkpt lat="45.79286" lon="4.29599">
        <ele>478</ele>
        <time>2017-04-13T10:11:12Z</time>
      </trkpt>
      <trkpt lat="45.79288" lon="4.29598">
        <ele>479</ele>
        <time>2017-04-13T10:11:14Z</time>
      </trkpt>
      <trkpt lat="45.7929" lon="4.29598">
        <ele>478</ele>
        <time>2017-04-13T10:11:16Z</time>
      </trkpt>
      <trkpt lat="45.79292" lon="4.29599">
        <ele>478</ele>
        <time>2017-04-13T10:11:19Z</time>
      </trkpt>
      <trkpt lat="45.79292" lon="4.296">
        <ele>477</ele>
        <time>2017-04-13T10:11:21Z</time>
      </trkpt>
      <trkpt lat="45.79294" lon="4.296">
        <ele>477</ele>
        <time>2017-04-13T10:11:24Z</time>
      </trkpt>
      <trkpt lat="45.79295" lon="4.29599">
        <ele>477</ele>
        <time>2017-04-13T10:11:26Z</time>
      </trkpt>
      <trkpt lat="45.79298" lon="4.29594">
        <ele>477</ele>
        <time>2017-04-13T10:11:29Z</time>
      </trkpt>
      <trkpt lat="45.79299" lon="4.29591">
        <ele>476</ele>
        <time>2017-04-13T10:11:31Z</time>
      </trkpt>
      <trkpt lat="45.793" lon="4.29588">
        <ele>476</ele>
        <time>2017-04-13T10:11:33Z</time>
      </trkpt>
      <trkpt lat="45.79301" lon="4.29585">
        <ele>476</ele>
        <time>2017-04-13T10:11:35Z</time>
      </trkpt>
      <trkpt lat="45.79303" lon="4.29579">
        <ele>475</ele>
        <time>2017-04-13T10:11:38Z</time>
      </trkpt>
      <trkpt lat="45.79304" lon="4.29576">
        <ele>475</ele>
        <time>2017-04-13T10:11:40Z</time>
      </trkpt>
      <trkpt lat="45.79304" lon="4.29573">
        <ele>475</ele>
        <time>2017-04-13T10:11:42Z</time>
      </trkpt>
      <trkpt lat="45.79305" lon="4.29569">
        <ele>474</ele>
        <time>2017-04-13T10:11:44Z</time>
      </trkpt>
      <trkpt lat="45.79306" lon="4.29564">
        <ele>474</ele>
        <time>2017-04-13T10:11:47Z</time>
      </trkpt>
      <trkpt lat="45.79308" lon="4.2956">
        <ele>474</ele>
        <time>2017-04-13T10:11:49Z</time>
      </trkpt>
      <trkpt lat="45.79309" lon="4.29554">
        <ele>473</ele>
        <time>2017-04-13T10:11:52Z</time>
      </trkpt>
      <trkpt lat="45.7931" lon="4.29548">
        <ele>473</ele>
        <time>2017-04-13T10:11:55Z</time>
      </trkpt>
      <trkpt lat="45.7931" lon="4.29545">
        <ele>473</ele>
        <time>2017-04-13T10:11:57Z</time>
      </trkpt>
      <trkpt lat="45.79311" lon="4.29538">
        <ele>472</ele>
        <time>2017-04-13T10:12:00Z</time>
      </trkpt>
      <trkpt lat="45.79312" lon="4.29534">
        <ele>472</ele>
        <time>2017-04-13T10:12:02Z</time>
      </trkpt>
      <trkpt lat="45.79313" lon="4.29529">
        <ele>472</ele>
        <time>2017-04-13T10:12:05Z</time>
      </trkpt>
      <trkpt lat="45.79314" lon="4.29523">
        <ele>471</ele>
        <time>2017-04-13T10:12:08Z</time>
      </trkpt>
      <trkpt lat="45.79315" lon="4.29519">
        <ele>471</ele>
        <time>2017-04-13T10:12:10Z</time>
      </trkpt>
      <trkpt lat="45.79316" lon="4.29513">
        <ele>470</ele>
        <time>2017-04-13T10:12:13Z</time>
      </trkpt>
      <trkpt lat="45.79317" lon="4.29509">
        <ele>470</ele>
        <time>2017-04-13T10:12:15Z</time>
      </trkpt>
      <trkpt lat="45.79318" lon="4.29505">
        <ele>471</ele>
        <time>2017-04-13T10:12:17Z</time>
      </trkpt>
      <trkpt lat="45.7932" lon="4.29498">
        <ele>470</ele>
        <time>2017-04-13T10:12:20Z</time>
      </trkpt>
      <trkpt lat="45.79321" lon="4.29492">
        <ele>470</ele>
        <time>2017-04-13T10:12:23Z</time>
      </trkpt>
      <trkpt lat="45.79322" lon="4.29486">
        <ele>469</ele>
        <time>2017-04-13T10:12:26Z</time>
      </trkpt>
      <trkpt lat="45.79324" lon="4.2948">
        <ele>470</ele>
        <time>2017-04-13T10:12:29Z</time>
      </trkpt>
      <trkpt lat="45.79325" lon="4.29475">
        <ele>470</ele>
        <time>2017-04-13T10:12:32Z</time>
      </trkpt>
      <trkpt lat="45.79326" lon="4.2947">
        <ele>470</ele>
        <time>2017-04-13T10:12:35Z</time>
      </trkpt>
      <trkpt lat="45.79327" lon="4.29466">
        <ele>470</ele>
        <time>2017-04-13T10:12:37Z</time>
      </trkpt>
      <trkpt lat="45.79328" lon="4.29461">
        <ele>470</ele>
        <time>2017-04-13T10:12:40Z</time>
      </trkpt>
      <trkpt lat="45.79328" lon="4.29457">
        <ele>469</ele>
        <time>2017-04-13T10:12:42Z</time>
      </trkpt>
      <trkpt lat="45.79329" lon="4.29452">
        <ele>469</ele>
        <time>2017-04-13T10:12:45Z</time>
      </trkpt>
      <trkpt lat="45.7933" lon="4.29447">
        <ele>469</ele>
        <time>2017-04-13T10:12:48Z</time>
      </trkpt>
      <trkpt lat="45.79331" lon="4.29443">
        <ele>469</ele>
        <time>2017-04-13T10:12:50Z</time>
      </trkpt>
      <trkpt lat="45.79332" lon="4.29437">
        <ele>469</ele>
        <time>2017-04-13T10:12:53Z</time>
      </trkpt>
      <trkpt lat="45.79332" lon="4.29433">
        <ele>469</ele>
        <time>2017-04-13T10:12:55Z</time>
      </trkpt>
      <trkpt lat="45.79333" lon="4.29428">
        <ele>469</ele>
        <time>2017-04-13T10:12:58Z</time>
      </trkpt>
      <trkpt lat="45.79333" lon="4.29425">
        <ele>468</ele>
        <time>2017-04-13T10:13:00Z</time>
      </trkpt>
      <trkpt lat="45.79333" lon="4.29421">
        <ele>469</ele>
        <time>2017-04-13T10:13:03Z</time>
      </trkpt>
      <trkpt lat="45.79334" lon="4.29418">
        <ele>468</ele>
        <time>2017-04-13T10:13:05Z</time>
      </trkpt>
      <trkpt lat="45.79334" lon="4.29414">
        <ele>469</ele>
        <time>2017-04-13T10:13:07Z</time>
      </trkpt>
      <trkpt lat="45.79335" lon="4.2941">
        <ele>469</ele>
        <time>2017-04-13T10:13:09Z</time>
      </trkpt>
      <trkpt lat="45.79336" lon="4.29406">
        <ele>468</ele>
        <time>2017-04-13T10:13:12Z</time>
      </trkpt>
      <trkpt lat="45.79337" lon="4.294">
        <ele>468</ele>
        <time>2017-04-13T10:13:15Z</time>
      </trkpt>
      <trkpt lat="45.79338" lon="4.29394">
        <ele>468</ele>
        <time>2017-04-13T10:13:18Z</time>
      </trkpt>
      <trkpt lat="45.79338" lon="4.29391">
        <ele>468</ele>
        <time>2017-04-13T10:13:20Z</time>
      </trkpt>
      <trkpt lat="45.79339" lon="4.29388">
        <ele>468</ele>
        <time>2017-04-13T10:13:22Z</time>
      </trkpt>
      <trkpt lat="45.79341" lon="4.29384">
        <ele>468</ele>
        <time>2017-04-13T10:13:25Z</time>
      </trkpt>
      <trkpt lat="45.79342" lon="4.29382">
        <ele>468</ele>
        <time>2017-04-13T10:13:28Z</time>
      </trkpt>
      <trkpt lat="45.79341" lon="4.29382">
        <ele>468</ele>
        <time>2017-04-13T10:13:31Z</time>
      </trkpt>
      <trkpt lat="45.79342" lon="4.29382">
        <ele>468</ele>
        <time>2017-04-13T10:13:33Z</time>
      </trkpt>
      <trkpt lat="45.79342" lon="4.29382">
        <ele>468</ele>
        <time>2017-04-13T10:13:35Z</time>
      </trkpt>
      <trkpt lat="45.79343" lon="4.29381">
        <ele>468</ele>
        <time>2017-04-13T10:13:38Z</time>
      </trkpt>
      <trkpt lat="45.79343" lon="4.2938">
        <ele>468</ele>
        <time>2017-04-13T10:13:41Z</time>
      </trkpt>
      <trkpt lat="45.79343" lon="4.2938">
        <ele>468</ele>
        <time>2017-04-13T10:13:43Z</time>
      </trkpt>
      <trkpt lat="45.79343" lon="4.2938">
        <ele>468</ele>
        <time>2017-04-13T10:13:46Z</time>
      </trkpt>
      <trkpt lat="45.79343" lon="4.2938">
        <ele>468</ele>
        <time>2017-04-13T10:13:48Z</time>
      </trkpt>
      <trkpt lat="45.79345" lon="4.2938">
        <ele>468</ele>
        <time>2017-04-13T10:13:51Z</time>
      </trkpt>
      <trkpt lat="45.79345" lon="4.2938">
        <ele>468</ele>
        <time>2017-04-13T10:13:53Z</time>
      </trkpt>
      <trkpt lat="45.79345" lon="4.2938">
        <ele>469</ele>
        <time>2017-04-13T10:13:56Z</time>
      </trkpt>
      <trkpt lat="45.79346" lon="4.29377">
        <ele>469</ele>
        <time>2017-04-13T10:13:59Z</time>
      </trkpt>
      <trkpt lat="45.79348" lon="4.29374">
        <ele>469</ele>
        <time>2017-04-13T10:14:01Z</time>
      </trkpt>
      <trkpt lat="45.7935" lon="4.2937">
        <ele>469</ele>
        <time>2017-04-13T10:14:03Z</time>
      </trkpt>
      <trkpt lat="45.79351" lon="4.29367">
        <ele>469</ele>
        <time>2017-04-13T10:14:05Z</time>
      </trkpt>
      <trkpt lat="45.79354" lon="4.29362">
        <ele>469</ele>
        <time>2017-04-13T10:14:08Z</time>
      </trkpt>
      <trkpt lat="45.79357" lon="4.29358">
        <ele>469</ele>
        <time>2017-04-13T10:14:11Z</time>
      </trkpt>
      <trkpt lat="45.79361" lon="4.29354">
        <ele>469</ele>
        <time>2017-04-13T10:14:14Z</time>
      </trkpt>
      <trkpt lat="45.79363" lon="4.29351">
        <ele>469</ele>
        <time>2017-04-13T10:14:16Z</time>
      </trkpt>
      <trkpt lat="45.79367" lon="4.29346">
        <ele>469</ele>
        <time>2017-04-13T10:14:19Z</time>
      </trkpt>
      <trkpt lat="45.7937" lon="4.29341">
        <ele>469</ele>
        <time>2017-04-13T10:14:22Z</time>
      </trkpt>
      <trkpt lat="45.79371" lon="4.29335">
        <ele>469</ele>
        <time>2017-04-13T10:14:25Z</time>
      </trkpt>
      <trkpt lat="45.79371" lon="4.29329">
        <ele>469</ele>
        <time>2017-04-13T10:14:28Z</time>
      </trkpt>
      <trkpt lat="45.79372" lon="4.29325">
        <ele>469</ele>
        <time>2017-04-13T10:14:30Z</time>
      </trkpt>
      <trkpt lat="45.79372" lon="4.29319">
        <ele>468</ele>
        <time>2017-04-13T10:14:32Z</time>
      </trkpt>
      <trkpt lat="45.79372" lon="4.29315">
        <ele>468</ele>
        <time>2017-04-13T10:14:34Z</time>
      </trkpt>
      <trkpt lat="45.79372" lon="4.2931">
        <ele>468</ele>
        <time>2017-04-13T10:14:36Z</time>
      </trkpt>
      <trkpt lat="45.79372" lon="4.29305">
        <ele>468</ele>
        <time>2017-04-13T10:14:38Z</time>
      </trkpt>
      <trkpt lat="45.79373" lon="4.29298">
        <ele>468</ele>
        <time>2017-04-13T10:14:41Z</time>
      </trkpt>
      <trkpt lat="45.79373" lon="4.29293">
        <ele>467</ele>
        <time>2017-04-13T10:14:43Z</time>
      </trkpt>
      <trkpt lat="45.79374" lon="4.29285">
        <ele>466</ele>
        <time>2017-04-13T10:14:46Z</time>
      </trkpt>
      <trkpt lat="45.79374" lon="4.29277">
        <ele>465</ele>
        <time>2017-04-13T10:14:49Z</time>
      </trkpt>
      <trkpt lat="45.79375" lon="4.29271">
        <ele>464</ele>
        <time>2017-04-13T10:14:51Z</time>
      </trkpt>
      <trkpt lat="45.79375" lon="4.29263">
        <ele>464</ele>
        <time>2017-04-13T10:14:54Z</time>
      </trkpt>
      <trkpt lat="45.79375" lon="4.29259">
        <ele>464</ele>
        <time>2017-04-13T10:14:56Z</time>
      </trkpt>
      <trkpt lat="45.79376" lon="4.29252">
        <ele>464</ele>
        <time>2017-04-13T10:14:59Z</time>
      </trkpt>
      <trkpt lat="45.79376" lon="4.29248">
        <ele>463</ele>
        <time>2017-04-13T10:15:01Z</time>
      </trkpt>
      <trkpt lat="45.79377" lon="4.29243">
        <ele>463</ele>
        <time>2017-04-13T10:15:03Z</time>
      </trkpt>
      <trkpt lat="45.79377" lon="4.29239">
        <ele>462</ele>
        <time>2017-04-13T10:15:05Z</time>
      </trkpt>
      <trkpt lat="45.79377" lon="4.29232">
        <ele>462</ele>
        <time>2017-04-13T10:15:08Z</time>
      </trkpt>
      <trkpt lat="45.79378" lon="4.29229">
        <ele>461</ele>
        <time>2017-04-13T10:15:10Z</time>
      </trkpt>
      <trkpt lat="45.79379" lon="4.29227">
        <ele>461</ele>
        <time>2017-04-13T10:15:12Z</time>
      </trkpt>
      <trkpt lat="45.79379" lon="4.29225">
        <ele>461</ele>
        <time>2017-04-13T10:15:14Z</time>
      </trkpt>
      <trkpt lat="45.7938" lon="4.2922">
        <ele>460</ele>
        <time>2017-04-13T10:15:17Z</time>
      </trkpt>
      <trkpt lat="45.7938" lon="4.29218">
        <ele>460</ele>
        <time>2017-04-13T10:15:19Z</time>
      </trkpt>
      <trkpt lat="45.79381" lon="4.29214">
        <ele>459</ele>
        <time>2017-04-13T10:15:22Z</time>
      </trkpt>
      <trkpt lat="45.79381" lon="4.29211">
        <ele>458</ele>
        <time>2017-04-13T10:15:24Z</time>
      </trkpt>
      <trkpt lat="45.79382" lon="4.29209">
        <ele>458</ele>
        <time>2017-04-13T10:15:26Z</time>
      </trkpt>
      <trkpt lat="45.79382" lon="4.29206">
        <ele>457</ele>
        <time>2017-04-13T10:15:28Z</time>
      </trkpt>
      <trkpt lat="45.79382" lon="4.29204">
        <ele>457</ele>
        <time>2017-04-13T10:15:30Z</time>
      </trkpt>
      <trkpt lat="45.79382" lon="4.292">
        <ele>456</ele>
        <time>2017-04-13T10:15:33Z</time>
      </trkpt>
      <trkpt lat="45.79382" lon="4.29198">
        <ele>455</ele>
        <time>2017-04-13T10:15:35Z</time>
      </trkpt>
      <trkpt lat="45.79383" lon="4.29195">
        <ele>455</ele>
        <time>2017-04-13T10:15:38Z</time>
      </trkpt>
      <trkpt lat="45.79384" lon="4.29192">
        <ele>453</ele>
        <time>2017-04-13T10:15:41Z</time>
      </trkpt>
      <trkpt lat="45.79385" lon="4.29187">
        <ele>453</ele>
        <time>2017-04-13T10:15:44Z</time>
      </trkpt>
      <trkpt lat="45.79386" lon="4.29183">
        <ele>452</ele>
        <time>2017-04-13T10:15:47Z</time>
      </trkpt>
      <trkpt lat="45.79386" lon="4.2918">
        <ele>452</ele>
        <time>2017-04-13T10:15:49Z</time>
      </trkpt>
      <trkpt lat="45.79387" lon="4.29177">
        <ele>451</ele>
        <time>2017-04-13T10:15:51Z</time>
      </trkpt>
      <trkpt lat="45.79388" lon="4.29173">
        <ele>450</ele>
        <time>2017-04-13T10:15:53Z</time>
      </trkpt>
      <trkpt lat="45.79389" lon="4.29169">
        <ele>450</ele>
        <time>2017-04-13T10:15:56Z</time>
      </trkpt>
      <trkpt lat="45.7939" lon="4.29164">
        <ele>450</ele>
        <time>2017-04-13T10:15:59Z</time>
      </trkpt>
      <trkpt lat="45.79391" lon="4.29161">
        <ele>449</ele>
        <time>2017-04-13T10:16:01Z</time>
      </trkpt>
      <trkpt lat="45.79392" lon="4.29157">
        <ele>449</ele>
        <time>2017-04-13T10:16:04Z</time>
      </trkpt>
      <trkpt lat="45.79393" lon="4.29153">
        <ele>448</ele>
        <time>2017-04-13T10:16:07Z</time>
      </trkpt>
      <trkpt lat="45.79393" lon="4.2915">
        <ele>447</ele>
        <time>2017-04-13T10:16:09Z</time>
      </trkpt>
      <trkpt lat="45.79393" lon="4.29147">
        <ele>447</ele>
        <time>2017-04-13T10:16:11Z</time>
      </trkpt>
      <trkpt lat="45.79393" lon="4.29144">
        <ele>446</ele>
        <time>2017-04-13T10:16:14Z</time>
      </trkpt>
      <trkpt lat="45.79394" lon="4.29141">
        <ele>445</ele>
        <time>2017-04-13T10:16:16Z</time>
      </trkpt>
      <trkpt lat="45.79395" lon="4.29137">
        <ele>445</ele>
        <time>2017-04-13T10:16:19Z</time>
      </trkpt>
      <trkpt lat="45.79396" lon="4.29134">
        <ele>444</ele>
        <time>2017-04-13T10:16:21Z</time>
      </trkpt>
      <trkpt lat="45.79398" lon="4.2913">
        <ele>444</ele>
        <time>2017-04-13T10:16:24Z</time>
      </trkpt>
      <trkpt lat="45.79399" lon="4.29128">
        <ele>443</ele>
        <time>2017-04-13T10:16:26Z</time>
      </trkpt>
      <trkpt lat="45.794" lon="4.29126">
        <ele>443</ele>
        <time>2017-04-13T10:16:29Z</time>
      </trkpt>
      <trkpt lat="45.79401" lon="4.29125">
        <ele>442</ele>
        <time>2017-04-13T10:16:32Z</time>
      </trkpt>
      <trkpt lat="45.79402" lon="4.29124">
        <ele>442</ele>
        <time>2017-04-13T10:16:34Z</time>
      </trkpt>
      <trkpt lat="45.79402" lon="4.29125">
        <ele>442</ele>
        <time>2017-04-13T10:16:36Z</time>
      </trkpt>
      <trkpt lat="45.79403" lon="4.29125">
        <ele>442</ele>
        <time>2017-04-13T10:16:38Z</time>
      </trkpt>
      <trkpt lat="45.79403" lon="4.29125">
        <ele>441</ele>
        <time>2017-04-13T10:16:41Z</time>
      </trkpt>
      <trkpt lat="45.79404" lon="4.29126">
        <ele>441</ele>
        <time>2017-04-13T10:16:44Z</time>
      </trkpt>
      <trkpt lat="45.79404" lon="4.29127">
        <ele>441</ele>
        <time>2017-04-13T10:16:46Z</time>
      </trkpt>
      <trkpt lat="45.79409" lon="4.29125">
        <ele>441</ele>
        <time>2017-04-13T10:16:49Z</time>
      </trkpt>
      <trkpt lat="45.79412" lon="4.29124">
        <ele>441</ele>
        <time>2017-04-13T10:16:51Z</time>
      </trkpt>
      <trkpt lat="45.79415" lon="4.29123">
        <ele>440</ele>
        <time>2017-04-13T10:16:53Z</time>
      </trkpt>
      <trkpt lat="45.79417" lon="4.29122">
        <ele>440</ele>
        <time>2017-04-13T10:16:55Z</time>
      </trkpt>
      <trkpt lat="45.7942" lon="4.29121">
        <ele>439</ele>
        <time>2017-04-13T10:16:57Z</time>
      </trkpt>
      <trkpt lat="45.79423" lon="4.2912">
        <ele>439</ele>
        <time>2017-04-13T10:16:59Z</time>
      </trkpt>
      <trkpt lat="45.79428" lon="4.29119">
        <ele>438</ele>
        <time>2017-04-13T10:17:02Z</time>
      </trkpt>
      <trkpt lat="45.79431" lon="4.29118">
        <ele>438</ele>
        <time>2017-04-13T10:17:04Z</time>
      </trkpt>
      <trkpt lat="45.79433" lon="4.29116">
        <ele>437</ele>
        <time>2017-04-13T10:17:06Z</time>
      </trkpt>
      <trkpt lat="45.79436" lon="4.29113">
        <ele>436</ele>
        <time>2017-04-13T10:17:09Z</time>
      </trkpt>
      <trkpt lat="45.79438" lon="4.29109">
        <ele>435</ele>
        <time>2017-04-13T10:17:11Z</time>
      </trkpt>
      <trkpt lat="45.79442" lon="4.29103">
        <ele>435</ele>
        <time>2017-04-13T10:17:14Z</time>
      </trkpt>
      <trkpt lat="45.79444" lon="4.29097">
        <ele>434</ele>
        <time>2017-04-13T10:17:16Z</time>
      </trkpt>
      <trkpt lat="45.79448" lon="4.29092">
        <ele>434</ele>
        <time>2017-04-13T10:17:19Z</time>
      </trkpt>
      <trkpt lat="45.79453" lon="4.29083">
        <ele>433</ele>
        <time>2017-04-13T10:17:22Z</time>
      </trkpt>
      <trkpt lat="45.79456" lon="4.29078">
        <ele>433</ele>
        <time>2017-04-13T10:17:24Z</time>
      </trkpt>
      <trkpt lat="45.79458" lon="4.29074">
        <ele>433</ele>
        <time>2017-04-13T10:17:26Z</time>
      </trkpt>
      <trkpt lat="45.7946" lon="4.29071">
        <ele>433</ele>
        <time>2017-04-13T10:17:28Z</time>
      </trkpt>
      <trkpt lat="45.79462" lon="4.29066">
        <ele>433</ele>
        <time>2017-04-13T10:17:30Z</time>
      </trkpt>
      <trkpt lat="45.79464" lon="4.29061">
        <ele>433</ele>
        <time>2017-04-13T10:17:33Z</time>
      </trkpt>
      <trkpt lat="45.79466" lon="4.29057">
        <ele>433</ele>
        <time>2017-04-13T10:17:35Z</time>
      </trkpt>
      <trkpt lat="45.79468" lon="4.29051">
        <ele>433</ele>
        <time>2017-04-13T10:17:38Z</time>
      </trkpt>
      <trkpt lat="45.7947" lon="4.29045">
        <ele>433</ele>
        <time>2017-04-13T10:17:41Z</time>
      </trkpt>
      <trkpt lat="45.79472" lon="4.29039">
        <ele>433</ele>
        <time>2017-04-13T10:17:44Z</time>
      </trkpt>
      <trkpt lat="45.79474" lon="4.29034">
        <ele>433</ele>
        <time>2017-04-13T10:17:46Z</time>
      </trkpt>
      <trkpt lat="45.79476" lon="4.29031">
        <ele>433</ele>
        <time>2017-04-13T10:17:48Z</time>
      </trkpt>
      <trkpt lat="45.79477" lon="4.29027">
        <ele>433</ele>
        <time>2017-04-13T10:17:50Z</time>
      </trkpt>
      <trkpt lat="45.7948" lon="4.29021">
        <ele>433</ele>
        <time>2017-04-13T10:17:53Z</time>
      </trkpt>
      <trkpt lat="45.7948" lon="4.29017">
        <ele>433</ele>
        <time>2017-04-13T10:17:55Z</time>
      </trkpt>
      <trkpt lat="45.79481" lon="4.29011">
        <ele>433</ele>
        <time>2017-04-13T10:17:58Z</time>
      </trkpt>
      <trkpt lat="45.79482" lon="4.29005">
        <ele>432</ele>
        <time>2017-04-13T10:18:01Z</time>
      </trkpt>
      <trkpt lat="45.79483" lon="4.29">
        <ele>432</ele>
        <time>2017-04-13T10:18:04Z</time>
      </trkpt>
      <trkpt lat="45.79482" lon="4.28997">
        <ele>432</ele>
        <time>2017-04-13T10:18:06Z</time>
      </trkpt>
      <trkpt lat="45.79483" lon="4.28993">
        <ele>432</ele>
        <time>2017-04-13T10:18:08Z</time>
      </trkpt>
      <trkpt lat="45.79483" lon="4.28986">
        <ele>432</ele>
        <time>2017-04-13T10:18:11Z</time>
      </trkpt>
      <trkpt lat="45.79483" lon="4.28982">
        <ele>432</ele>
        <time>2017-04-13T10:18:13Z</time>
      </trkpt>
      <trkpt lat="45.79483" lon="4.28977">
        <ele>431</ele>
        <time>2017-04-13T10:18:16Z</time>
      </trkpt>
      <trkpt lat="45.79483" lon="4.28973">
        <ele>431</ele>
        <time>2017-04-13T10:18:18Z</time>
      </trkpt>
      <trkpt lat="45.79485" lon="4.28969">
        <ele>430</ele>
        <time>2017-04-13T10:18:21Z</time>
      </trkpt>
      <trkpt lat="45.79485" lon="4.28964">
        <ele>429</ele>
        <time>2017-04-13T10:18:24Z</time>
      </trkpt>
      <trkpt lat="45.79485" lon="4.28961">
        <ele>429</ele>
        <time>2017-04-13T10:18:26Z</time>
      </trkpt>
      <trkpt lat="45.79485" lon="4.28956">
        <ele>428</ele>
        <time>2017-04-13T10:18:29Z</time>
      </trkpt>
      <trkpt lat="45.79485" lon="4.28952">
        <ele>428</ele>
        <time>2017-04-13T10:18:32Z</time>
      </trkpt>
      <trkpt lat="45.79484" lon="4.28949">
        <ele>427</ele>
        <time>2017-04-13T10:18:34Z</time>
      </trkpt>
      <trkpt lat="45.79482" lon="4.28945">
        <ele>427</ele>
        <time>2017-04-13T10:18:37Z</time>
      </trkpt>
      <trkpt lat="45.79481" lon="4.28942">
        <ele>426</ele>
        <time>2017-04-13T10:18:39Z</time>
      </trkpt>
      <trkpt lat="45.79481" lon="4.28939">
        <ele>426</ele>
        <time>2017-04-13T10:18:41Z</time>
      </trkpt>
      <trkpt lat="45.7948" lon="4.28936">
        <ele>426</ele>
        <time>2017-04-13T10:18:43Z</time>
      </trkpt>
      <trkpt lat="45.79481" lon="4.28931">
        <ele>425</ele>
        <time>2017-04-13T10:18:46Z</time>
      </trkpt>
      <trkpt lat="45.7948" lon="4.28928">
        <ele>424</ele>
        <time>2017-04-13T10:18:48Z</time>
      </trkpt>
      <trkpt lat="45.79481" lon="4.28924">
        <ele>424</ele>
        <time>2017-04-13T10:18:50Z</time>
      </trkpt>
      <trkpt lat="45.79481" lon="4.2892">
        <ele>423</ele>
        <time>2017-04-13T10:18:53Z</time>
      </trkpt>
      <trkpt lat="45.79481" lon="4.28918">
        <ele>423</ele>
        <time>2017-04-13T10:18:55Z</time>
      </trkpt>
      <trkpt lat="45.79481" lon="4.28914">
        <ele>422</ele>
        <time>2017-04-13T10:18:58Z</time>
      </trkpt>
      <trkpt lat="45.79481" lon="4.28911">
        <ele>422</ele>
        <time>2017-04-13T10:19:00Z</time>
      </trkpt>
      <trkpt lat="45.79481" lon="4.28908">
        <ele>420</ele>
        <time>2017-04-13T10:19:03Z</time>
      </trkpt>
      <trkpt lat="45.79481" lon="4.28903">
        <ele>420</ele>
        <time>2017-04-13T10:19:06Z</time>
      </trkpt>
      <trkpt lat="45.79482" lon="4.289">
        <ele>420</ele>
        <time>2017-04-13T10:19:08Z</time>
      </trkpt>
      <trkpt lat="45.79483" lon="4.28898">
        <ele>419</ele>
        <time>2017-04-13T10:19:10Z</time>
      </trkpt>
      <trkpt lat="45.79483" lon="4.28895">
        <ele>419</ele>
        <time>2017-04-13T10:19:12Z</time>
      </trkpt>
      <trkpt lat="45.79484" lon="4.28892">
        <ele>419</ele>
        <time>2017-04-13T10:19:15Z</time>
      </trkpt>
      <trkpt lat="45.79484" lon="4.28887">
        <ele>418</ele>
        <time>2017-04-13T10:19:18Z</time>
      </trkpt>
      <trkpt lat="45.79485" lon="4.28885">
        <ele>417</ele>
        <time>2017-04-13T10:19:20Z</time>
      </trkpt>
      <trkpt lat="45.79486" lon="4.28881">
        <ele>417</ele>
        <time>2017-04-13T10:19:23Z</time>
      </trkpt>
      <trkpt lat="45.79487" lon="4.28878">
        <ele>416</ele>
        <time>2017-04-13T10:19:26Z</time>
      </trkpt>
      <trkpt lat="45.79488" lon="4.28876">
        <ele>416</ele>
        <time>2017-04-13T10:19:28Z</time>
      </trkpt>
      <trkpt lat="45.79489" lon="4.28874">
        <ele>415</ele>
        <time>2017-04-13T10:19:30Z</time>
      </trkpt>
      <trkpt lat="45.7949" lon="4.2887">
        <ele>415</ele>
        <time>2017-04-13T10:19:33Z</time>
      </trkpt>
      <trkpt lat="45.79491" lon="4.28869">
        <ele>414</ele>
        <time>2017-04-13T10:19:35Z</time>
      </trkpt>
      <trkpt lat="45.79491" lon="4.28866">
        <ele>413</ele>
        <time>2017-04-13T10:19:37Z</time>
      </trkpt>
      <trkpt lat="45.79493" lon="4.28863">
        <ele>413</ele>
        <time>2017-04-13T10:19:40Z</time>
      </trkpt>
      <trkpt lat="45.79493" lon="4.2886">
        <ele>412</ele>
        <time>2017-04-13T10:19:42Z</time>
      </trkpt>
      <trkpt lat="45.79494" lon="4.28857">
        <ele>412</ele>
        <time>2017-04-13T10:19:44Z</time>
      </trkpt>
      <trkpt lat="45.79496" lon="4.28853">
        <ele>411</ele>
        <time>2017-04-13T10:19:47Z</time>
      </trkpt>
      <trkpt lat="45.79496" lon="4.2885">
        <ele>411</ele>
        <time>2017-04-13T10:19:49Z</time>
      </trkpt>
      <trkpt lat="45.79497" lon="4.28848">
        <ele>410</ele>
        <time>2017-04-13T10:19:51Z</time>
      </trkpt>
      <trkpt lat="45.79498" lon="4.28846">
        <ele>410</ele>
        <time>2017-04-13T10:19:53Z</time>
      </trkpt>
      <trkpt lat="45.795" lon="4.28842">
        <ele>409</ele>
        <time>2017-04-13T10:19:56Z</time>
      </trkpt>
      <trkpt lat="45.79502" lon="4.28838">
        <ele>409</ele>
        <time>2017-04-13T10:19:59Z</time>
      </trkpt>
      <trkpt lat="45.79503" lon="4.28836">
        <ele>408</ele>
        <time>2017-04-13T10:20:01Z</time>
      </trkpt>
      <trkpt lat="45.79504" lon="4.28833">
        <ele>408</ele>
        <time>2017-04-13T10:20:03Z</time>
      </trkpt>
      <trkpt lat="45.79506" lon="4.2883">
        <ele>407</ele>
        <time>2017-04-13T10:20:06Z</time>
      </trkpt>
      <trkpt lat="45.79507" lon="4.28827">
        <ele>407</ele>
        <time>2017-04-13T10:20:08Z</time>
      </trkpt>
      <trkpt lat="45.79508" lon="4.28824">
        <ele>406</ele>
        <time>2017-04-13T10:20:10Z</time>
      </trkpt>
      <trkpt lat="45.7951" lon="4.2882">
        <ele>406</ele>
        <time>2017-04-13T10:20:13Z</time>
      </trkpt>
      <trkpt lat="45.79512" lon="4.28816">
        <ele>405</ele>
        <time>2017-04-13T10:20:16Z</time>
      </trkpt>
      <trkpt lat="45.79514" lon="4.28812">
        <ele>405</ele>
        <time>2017-04-13T10:20:19Z</time>
      </trkpt>
      <trkpt lat="45.79516" lon="4.28808">
        <ele>404</ele>
        <time>2017-04-13T10:20:22Z</time>
      </trkpt>
      <trkpt lat="45.79518" lon="4.28805">
        <ele>404</ele>
        <time>2017-04-13T10:20:25Z</time>
      </trkpt>
      <trkpt lat="45.79518" lon="4.28803">
        <ele>404</ele>
        <time>2017-04-13T10:20:27Z</time>
      </trkpt>
      <trkpt lat="45.7952" lon="4.28799">
        <ele>403</ele>
        <time>2017-04-13T10:20:30Z</time>
      </trkpt>
      <trkpt lat="45.7952" lon="4.28796">
        <ele>403</ele>
        <time>2017-04-13T10:20:32Z</time>
      </trkpt>
      <trkpt lat="45.7952" lon="4.28793">
        <ele>402</ele>
        <time>2017-04-13T10:20:34Z</time>
      </trkpt>
      <trkpt lat="45.79521" lon="4.28791">
        <ele>402</ele>
        <time>2017-04-13T10:20:36Z</time>
      </trkpt>
      <trkpt lat="45.79521" lon="4.28786">
        <ele>402</ele>
        <time>2017-04-13T10:20:39Z</time>
      </trkpt>
      <trkpt lat="45.7952" lon="4.28783">
        <ele>401</ele>
        <time>2017-04-13T10:20:41Z</time>
      </trkpt>
      <trkpt lat="45.7952" lon="4.2878">
        <ele>401</ele>
        <time>2017-04-13T10:20:43Z</time>
      </trkpt>
      <trkpt lat="45.7952" lon="4.28777">
        <ele>400</ele>
        <time>2017-04-13T10:20:45Z</time>
      </trkpt>
      <trkpt lat="45.7952" lon="4.28774">
        <ele>399</ele>
        <time>2017-04-13T10:20:47Z</time>
      </trkpt>
      <trkpt lat="45.79518" lon="4.2877">
        <ele>399</ele>
        <time>2017-04-13T10:20:50Z</time>
      </trkpt>
      <trkpt lat="45.79518" lon="4.28768">
        <ele>398</ele>
        <time>2017-04-13T10:20:52Z</time>
      </trkpt>
      <trkpt lat="45.79517" lon="4.28766">
        <ele>398</ele>
        <time>2017-04-13T10:20:54Z</time>
      </trkpt>
      <trkpt lat="45.79516" lon="4.28764">
        <ele>398</ele>
        <time>2017-04-13T10:20:56Z</time>
      </trkpt>
      <trkpt lat="45.79515" lon="4.28762">
        <ele>397</ele>
        <time>2017-04-13T10:20:58Z</time>
      </trkpt>
      <trkpt lat="45.79514" lon="4.28758">
        <ele>397</ele>
        <time>2017-04-13T10:21:00Z</time>
      </trkpt>
      <trkpt lat="45.79512" lon="4.28756">
        <ele>396</ele>
        <time>2017-04-13T10:21:02Z</time>
      </trkpt>
      <trkpt lat="45.7951" lon="4.28751">
        <ele>396</ele>
        <time>2017-04-13T10:21:05Z</time>
      </trkpt>
      <trkpt lat="45.7951" lon="4.28749">
        <ele>395</ele>
        <time>2017-04-13T10:21:07Z</time>
      </trkpt>
      <trkpt lat="45.79509" lon="4.28746">
        <ele>394</ele>
        <time>2017-04-13T10:21:09Z</time>
      </trkpt>
      <trkpt lat="45.79509" lon="4.28744">
        <ele>394</ele>
        <time>2017-04-13T10:21:11Z</time>
      </trkpt>
      <trkpt lat="45.79508" lon="4.28741">
        <ele>393</ele>
        <time>2017-04-13T10:21:13Z</time>
      </trkpt>
      <trkpt lat="45.79508" lon="4.28737">
        <ele>393</ele>
        <time>2017-04-13T10:21:16Z</time>
      </trkpt>
      <trkpt lat="45.79508" lon="4.28733">
        <ele>392</ele>
        <time>2017-04-13T10:21:18Z</time>
      </trkpt>
      <trkpt lat="45.79507" lon="4.28728">
        <ele>392</ele>
        <time>2017-04-13T10:21:21Z</time>
      </trkpt>
      <trkpt lat="45.79507" lon="4.28724">
        <ele>391</ele>
        <time>2017-04-13T10:21:23Z</time>
      </trkpt>
      <trkpt lat="45.79506" lon="4.2872">
        <ele>390</ele>
        <time>2017-04-13T10:21:26Z</time>
      </trkpt>
      <trkpt lat="45.79506" lon="4.28717">
        <ele>390</ele>
        <time>2017-04-13T10:21:28Z</time>
      </trkpt>
      <trkpt lat="45.79505" lon="4.28714">
        <ele>389</ele>
        <time>2017-04-13T10:21:30Z</time>
      </trkpt>
      <trkpt lat="45.79504" lon="4.28711">
        <ele>389</ele>
        <time>2017-04-13T10:21:32Z</time>
      </trkpt>
      <trkpt lat="45.79503" lon="4.28707">
        <ele>389</ele>
        <time>2017-04-13T10:21:35Z</time>
      </trkpt>
      <trkpt lat="45.79503" lon="4.28703">
        <ele>388</ele>
        <time>2017-04-13T10:21:38Z</time>
      </trkpt>
      <trkpt lat="45.79503" lon="4.287">
        <ele>387</ele>
        <time>2017-04-13T10:21:40Z</time>
      </trkpt>
      <trkpt lat="45.79502" lon="4.28696">
        <ele>386</ele>
        <time>2017-04-13T10:21:42Z</time>
      </trkpt>
      <trkpt lat="45.79501" lon="4.28692">
        <ele>386</ele>
        <time>2017-04-13T10:21:45Z</time>
      </trkpt>
      <trkpt lat="45.795" lon="4.28687">
        <ele>385</ele>
        <time>2017-04-13T10:21:48Z</time>
      </trkpt>
      <trkpt lat="45.795" lon="4.28684">
        <ele>386</ele>
        <time>2017-04-13T10:21:50Z</time>
      </trkpt>
      <trkpt lat="45.795" lon="4.28681">
        <ele>385</ele>
        <time>2017-04-13T10:21:53Z</time>
      </trkpt>
      <trkpt lat="45.79499" lon="4.28679">
        <ele>385</ele>
        <time>2017-04-13T10:21:56Z</time>
      </trkpt>
      <trkpt lat="45.79499" lon="4.28677">
        <ele>385</ele>
        <time>2017-04-13T10:21:58Z</time>
      </trkpt>
      <trkpt lat="45.79499" lon="4.28676">
        <ele>385</ele>
        <time>2017-04-13T10:22:00Z</time>
      </trkpt>
      <trkpt lat="45.79498" lon="4.28674">
        <ele>385</ele>
        <time>2017-04-13T10:22:03Z</time>
      </trkpt>
      <trkpt lat="45.79498" lon="4.28673">
        <ele>385</ele>
        <time>2017-04-13T10:22:05Z</time>
      </trkpt>
      <trkpt lat="45.79499" lon="4.28672">
        <ele>385</ele>
        <time>2017-04-13T10:22:07Z</time>
      </trkpt>
      <trkpt lat="45.79499" lon="4.28671">
        <ele>385</ele>
        <time>2017-04-13T10:22:09Z</time>
      </trkpt>
      <trkpt lat="45.79498" lon="4.28671">
        <ele>385</ele>
        <time>2017-04-13T10:22:11Z</time>
      </trkpt>
      <trkpt lat="45.79499" lon="4.28668">
        <ele>385</ele>
        <time>2017-04-13T10:22:14Z</time>
      </trkpt>
      <trkpt lat="45.79499" lon="4.28666">
        <ele>385</ele>
        <time>2017-04-13T10:22:16Z</time>
      </trkpt>
      <trkpt lat="45.795" lon="4.28665">
        <ele>385</ele>
        <time>2017-04-13T10:22:18Z</time>
      </trkpt>
      <trkpt lat="45.795" lon="4.28665">
        <ele>384</ele>
        <time>2017-04-13T10:22:21Z</time>
      </trkpt>
      <trkpt lat="45.79501" lon="4.28664">
        <ele>385</ele>
        <time>2017-04-13T10:22:24Z</time>
      </trkpt>
      <trkpt lat="45.79501" lon="4.28663">
        <ele>385</ele>
        <time>2017-04-13T10:22:26Z</time>
      </trkpt>
      <trkpt lat="45.79501" lon="4.28663">
        <ele>385</ele>
        <time>2017-04-13T10:22:29Z</time>
      </trkpt>
      <trkpt lat="45.79501" lon="4.28662">
        <ele>385</ele>
        <time>2017-04-13T10:22:32Z</time>
      </trkpt>
      <trkpt lat="45.79501" lon="4.28662">
        <ele>385</ele>
        <time>2017-04-13T10:22:34Z</time>
      </trkpt>
      <trkpt lat="45.79501" lon="4.28661">
        <ele>385</ele>
        <time>2017-04-13T10:22:36Z</time>
      </trkpt>
      <trkpt lat="45.79503" lon="4.28658">
        <ele>385</ele>
        <time>2017-04-13T10:22:39Z</time>
      </trkpt>
      <trkpt lat="45.79504" lon="4.28655">
        <ele>385</ele>
        <time>2017-04-13T10:22:41Z</time>
      </trkpt>
      <trkpt lat="45.79504" lon="4.28651">
        <ele>385</ele>
        <time>2017-04-13T10:22:44Z</time>
      </trkpt>
      <trkpt lat="45.79504" lon="4.28648">
        <ele>385</ele>
        <time>2017-04-13T10:22:46Z</time>
      </trkpt>
      <trkpt lat="45.79503" lon="4.28644">
        <ele>386</ele>
        <time>2017-04-13T10:22:49Z</time>
      </trkpt>
      <trkpt lat="45.79503" lon="4.28641">
        <ele>386</ele>
        <time>2017-04-13T10:22:51Z</time>
      </trkpt>
      <trkpt lat="45.79502" lon="4.28637">
        <ele>386</ele>
        <time>2017-04-13T10:22:54Z</time>
      </trkpt>
      <trkpt lat="45.79502" lon="4.28634">
        <ele>386</ele>
        <time>2017-04-13T10:22:56Z</time>
      </trkpt>
      <trkpt lat="45.79501" lon="4.28628">
        <ele>387</ele>
        <time>2017-04-13T10:22:59Z</time>
      </trkpt>
      <trkpt lat="45.79499" lon="4.28623">
        <ele>387</ele>
        <time>2017-04-13T10:23:02Z</time>
      </trkpt>
      <trkpt lat="45.79499" lon="4.2862">
        <ele>387</ele>
        <time>2017-04-13T10:23:04Z</time>
      </trkpt>
      <trkpt lat="45.79498" lon="4.28616">
        <ele>388</ele>
        <time>2017-04-13T10:23:06Z</time>
      </trkpt>
      <trkpt lat="45.79497" lon="4.28613">
        <ele>388</ele>
        <time>2017-04-13T10:23:08Z</time>
      </trkpt>
      <trkpt lat="45.79496" lon="4.28609">
        <ele>388</ele>
        <time>2017-04-13T10:23:10Z</time>
      </trkpt>
      <trkpt lat="45.79495" lon="4.28605">
        <ele>389</ele>
        <time>2017-04-13T10:23:12Z</time>
      </trkpt>
      <trkpt lat="45.79494" lon="4.28601">
        <ele>389</ele>
        <time>2017-04-13T10:23:14Z</time>
      </trkpt>
      <trkpt lat="45.79494" lon="4.28597">
        <ele>389</ele>
        <time>2017-04-13T10:23:16Z</time>
      </trkpt>
      <trkpt lat="45.79493" lon="4.2859">
        <ele>389</ele>
        <time>2017-04-13T10:23:19Z</time>
      </trkpt>
      <trkpt lat="45.79492" lon="4.28586">
        <ele>389</ele>
        <time>2017-04-13T10:23:21Z</time>
      </trkpt>
      <trkpt lat="45.79491" lon="4.28581">
        <ele>390</ele>
        <time>2017-04-13T10:23:23Z</time>
      </trkpt>
      <trkpt lat="45.79491" lon="4.28577">
        <ele>390</ele>
        <time>2017-04-13T10:23:25Z</time>
      </trkpt>
      <trkpt lat="45.7949" lon="4.28573">
        <ele>391</ele>
        <time>2017-04-13T10:23:27Z</time>
      </trkpt>
      <trkpt lat="45.79489" lon="4.28568">
        <ele>391</ele>
        <time>2017-04-13T10:23:29Z</time>
      </trkpt>
      <trkpt lat="45.79488" lon="4.28562">
        <ele>391</ele>
        <time>2017-04-13T10:23:32Z</time>
      </trkpt>
      <trkpt lat="45.79487" lon="4.28558">
        <ele>391</ele>
        <time>2017-04-13T10:23:34Z</time>
      </trkpt>
      <trkpt lat="45.79487" lon="4.28552">
        <ele>392</ele>
        <time>2017-04-13T10:23:37Z</time>
      </trkpt>
      <trkpt lat="45.79487" lon="4.28549">
        <ele>392</ele>
        <time>2017-04-13T10:23:39Z</time>
      </trkpt>
      <trkpt lat="45.79486" lon="4.28543">
        <ele>392</ele>
        <time>2017-04-13T10:23:42Z</time>
      </trkpt>
      <trkpt lat="45.79486" lon="4.28539">
        <ele>393</ele>
        <time>2017-04-13T10:23:44Z</time>
      </trkpt>
      <trkpt lat="45.79486" lon="4.28532">
        <ele>393</ele>
        <time>2017-04-13T10:23:47Z</time>
      </trkpt>
      <trkpt lat="45.79486" lon="4.28528">
        <ele>393</ele>
        <time>2017-04-13T10:23:49Z</time>
      </trkpt>
      <trkpt lat="45.79487" lon="4.28522">
        <ele>394</ele>
        <time>2017-04-13T10:23:52Z</time>
      </trkpt>
      <trkpt lat="45.79489" lon="4.28518">
        <ele>394</ele>
        <time>2017-04-13T10:23:54Z</time>
      </trkpt>
      <trkpt lat="45.79491" lon="4.28516">
        <ele>394</ele>
        <time>2017-04-13T10:23:56Z</time>
      </trkpt>
      <trkpt lat="45.79493" lon="4.28515">
        <ele>394</ele>
        <time>2017-04-13T10:23:58Z</time>
      </trkpt>
      <trkpt lat="45.79496" lon="4.28515">
        <ele>395</ele>
        <time>2017-04-13T10:24:00Z</time>
      </trkpt>
      <trkpt lat="45.79499" lon="4.28516">
        <ele>395</ele>
        <time>2017-04-13T10:24:03Z</time>
      </trkpt>
      <trkpt lat="45.79501" lon="4.28517">
        <ele>395</ele>
        <time>2017-04-13T10:24:05Z</time>
      </trkpt>
      <trkpt lat="45.79504" lon="4.28518">
        <ele>396</ele>
        <time>2017-04-13T10:24:08Z</time>
      </trkpt>
      <trkpt lat="45.79507" lon="4.2852">
        <ele>396</ele>
        <time>2017-04-13T10:24:10Z</time>
      </trkpt>
      <trkpt lat="45.79509" lon="4.28521">
        <ele>397</ele>
        <time>2017-04-13T10:24:12Z</time>
      </trkpt>
      <trkpt lat="45.79511" lon="4.28523">
        <ele>397</ele>
        <time>2017-04-13T10:24:14Z</time>
      </trkpt>
      <trkpt lat="45.79513" lon="4.28524">
        <ele>398</ele>
        <time>2017-04-13T10:24:16Z</time>
      </trkpt>
      <trkpt lat="45.79515" lon="4.28526">
        <ele>398</ele>
        <time>2017-04-13T10:24:18Z</time>
      </trkpt>
      <trkpt lat="45.79518" lon="4.28527">
        <ele>398</ele>
        <time>2017-04-13T10:24:20Z</time>
      </trkpt>
      <trkpt lat="45.79522" lon="4.28529">
        <ele>399</ele>
        <time>2017-04-13T10:24:23Z</time>
      </trkpt>
      <trkpt lat="45.79524" lon="4.2853">
        <ele>399</ele>
        <time>2017-04-13T10:24:25Z</time>
      </trkpt>
      <trkpt lat="45.79528" lon="4.28532">
        <ele>400</ele>
        <time>2017-04-13T10:24:28Z</time>
      </trkpt>
      <trkpt lat="45.7953" lon="4.28533">
        <ele>401</ele>
        <time>2017-04-13T10:24:30Z</time>
      </trkpt>
      <trkpt lat="45.79532" lon="4.28534">
        <ele>401</ele>
        <time>2017-04-13T10:24:32Z</time>
      </trkpt>
      <trkpt lat="45.79536" lon="4.28535">
        <ele>401</ele>
        <time>2017-04-13T10:24:35Z</time>
      </trkpt>
      <trkpt lat="45.79538" lon="4.28537">
        <ele>401</ele>
        <time>2017-04-13T10:24:37Z</time>
      </trkpt>
      <trkpt lat="45.79541" lon="4.28538">
        <ele>402</ele>
        <time>2017-04-13T10:24:39Z</time>
      </trkpt>
      <trkpt lat="45.79543" lon="4.28539">
        <ele>402</ele>
        <time>2017-04-13T10:24:41Z</time>
      </trkpt>
      <trkpt lat="45.79544" lon="4.2854">
        <ele>403</ele>
        <time>2017-04-13T10:24:43Z</time>
      </trkpt>
      <trkpt lat="45.79547" lon="4.28542">
        <ele>403</ele>
        <time>2017-04-13T10:24:45Z</time>
      </trkpt>
      <trkpt lat="45.7955" lon="4.28544">
        <ele>404</ele>
        <time>2017-04-13T10:24:48Z</time>
      </trkpt>
      <trkpt lat="45.79552" lon="4.28544">
        <ele>404</ele>
        <time>2017-04-13T10:24:50Z</time>
      </trkpt>
      <trkpt lat="45.79556" lon="4.28546">
        <ele>405</ele>
        <time>2017-04-13T10:24:53Z</time>
      </trkpt>
      <trkpt lat="45.79558" lon="4.28547">
        <ele>405</ele>
        <time>2017-04-13T10:24:55Z</time>
      </trkpt>
      <trkpt lat="45.79562" lon="4.28548">
        <ele>406</ele>
        <time>2017-04-13T10:24:58Z</time>
      </trkpt>
      <trkpt lat="45.79565" lon="4.2855">
        <ele>406</ele>
        <time>2017-04-13T10:25:01Z</time>
      </trkpt>
      <trkpt lat="45.79567" lon="4.28551">
        <ele>407</ele>
        <time>2017-04-13T10:25:03Z</time>
      </trkpt>
      <trkpt lat="45.79569" lon="4.28552">
        <ele>407</ele>
        <time>2017-04-13T10:25:05Z</time>
      </trkpt>
      <trkpt lat="45.79572" lon="4.28553">
        <ele>408</ele>
        <time>2017-04-13T10:25:07Z</time>
      </trkpt>
      <trkpt lat="45.79574" lon="4.28554">
        <ele>408</ele>
        <time>2017-04-13T10:25:09Z</time>
      </trkpt>
      <trkpt lat="45.79576" lon="4.28555">
        <ele>408</ele>
        <time>2017-04-13T10:25:11Z</time>
      </trkpt>
      <trkpt lat="45.79579" lon="4.28556">
        <ele>409</ele>
        <time>2017-04-13T10:25:14Z</time>
      </trkpt>
      <trkpt lat="45.79581" lon="4.28556">
        <ele>409</ele>
        <time>2017-04-13T10:25:16Z</time>
      </trkpt>
      <trkpt lat="45.79584" lon="4.28557">
        <ele>410</ele>
        <time>2017-04-13T10:25:18Z</time>
      </trkpt>
      <trkpt lat="45.79586" lon="4.28558">
        <ele>411</ele>
        <time>2017-04-13T10:25:20Z</time>
      </trkpt>
      <trkpt lat="45.79588" lon="4.2856">
        <ele>411</ele>
        <time>2017-04-13T10:25:22Z</time>
      </trkpt>
      <trkpt lat="45.79591" lon="4.28561">
        <ele>411</ele>
        <time>2017-04-13T10:25:24Z</time>
      </trkpt>
      <trkpt lat="45.79593" lon="4.28563">
        <ele>411</ele>
        <time>2017-04-13T10:25:27Z</time>
      </trkpt>
      <trkpt lat="45.79596" lon="4.28563">
        <ele>412</ele>
        <time>2017-04-13T10:25:29Z</time>
      </trkpt>
      <trkpt lat="45.79598" lon="4.28563">
        <ele>412</ele>
        <time>2017-04-13T10:25:31Z</time>
      </trkpt>
      <trkpt lat="45.796" lon="4.28564">
        <ele>412</ele>
        <time>2017-04-13T10:25:33Z</time>
      </trkpt>
      <trkpt lat="45.79602" lon="4.28564">
        <ele>413</ele>
        <time>2017-04-13T10:25:35Z</time>
      </trkpt>
      <trkpt lat="45.79604" lon="4.28565">
        <ele>413</ele>
        <time>2017-04-13T10:25:37Z</time>
      </trkpt>
      <trkpt lat="45.79607" lon="4.28566">
        <ele>414</ele>
        <time>2017-04-13T10:25:39Z</time>
      </trkpt>
      <trkpt lat="45.7961" lon="4.28567">
        <ele>414</ele>
        <time>2017-04-13T10:25:42Z</time>
      </trkpt>
      <trkpt lat="45.79612" lon="4.28568">
        <ele>414</ele>
        <time>2017-04-13T10:25:44Z</time>
      </trkpt>
      <trkpt lat="45.79615" lon="4.28569">
        <ele>414</ele>
        <time>2017-04-13T10:25:46Z</time>
      </trkpt>
      <trkpt lat="45.79617" lon="4.2857">
        <ele>415</ele>
        <time>2017-04-13T10:25:48Z</time>
      </trkpt>
      <trkpt lat="45.79619" lon="4.28572">
        <ele>415</ele>
        <time>2017-04-13T10:25:50Z</time>
      </trkpt>
      <trkpt lat="45.79621" lon="4.28573">
        <ele>415</ele>
        <time>2017-04-13T10:25:52Z</time>
      </trkpt>
      <trkpt lat="45.79625" lon="4.28574">
        <ele>416</ele>
        <time>2017-04-13T10:25:55Z</time>
      </trkpt>
      <trkpt lat="45.79629" lon="4.28575">
        <ele>417</ele>
        <time>2017-04-13T10:25:58Z</time>
      </trkpt>
      <trkpt lat="45.79631" lon="4.28576">
        <ele>417</ele>
        <time>2017-04-13T10:26:00Z</time>
      </trkpt>
      <trkpt lat="45.79634" lon="4.28577">
        <ele>417</ele>
        <time>2017-04-13T10:26:02Z</time>
      </trkpt>
      <trkpt lat="45.79637" lon="4.28578">
        <ele>417</ele>
        <time>2017-04-13T10:26:04Z</time>
      </trkpt>
      <trkpt lat="45.79641" lon="4.2858">
        <ele>418</ele>
        <time>2017-04-13T10:26:07Z</time>
      </trkpt>
      <trkpt lat="45.79645" lon="4.28581">
        <ele>419</ele>
        <time>2017-04-13T10:26:10Z</time>
      </trkpt>
      <trkpt lat="45.79648" lon="4.28582">
        <ele>419</ele>
        <time>2017-04-13T10:26:12Z</time>
      </trkpt>
      <trkpt lat="45.79652" lon="4.28583">
        <ele>419</ele>
        <time>2017-04-13T10:26:15Z</time>
      </trkpt>
      <trkpt lat="45.79654" lon="4.28583">
        <ele>419</ele>
        <time>2017-04-13T10:26:17Z</time>
      </trkpt>
      <trkpt lat="45.79659" lon="4.28583">
        <ele>420</ele>
        <time>2017-04-13T10:26:20Z</time>
      </trkpt>
      <trkpt lat="45.79662" lon="4.28583">
        <ele>420</ele>
        <time>2017-04-13T10:26:22Z</time>
      </trkpt>
      <trkpt lat="45.79665" lon="4.28584">
        <ele>420</ele>
        <time>2017-04-13T10:26:24Z</time>
      </trkpt>
      <trkpt lat="45.79667" lon="4.28584">
        <ele>421</ele>
        <time>2017-04-13T10:26:26Z</time>
      </trkpt>
      <trkpt lat="45.7967" lon="4.28584">
        <ele>421</ele>
        <time>2017-04-13T10:26:28Z</time>
      </trkpt>
      <trkpt lat="45.79673" lon="4.28584">
        <ele>422</ele>
        <time>2017-04-13T10:26:30Z</time>
      </trkpt>
      <trkpt lat="45.79676" lon="4.28584">
        <ele>422</ele>
        <time>2017-04-13T10:26:32Z</time>
      </trkpt>
      <trkpt lat="45.7968" lon="4.28584">
        <ele>422</ele>
        <time>2017-04-13T10:26:35Z</time>
      </trkpt>
      <trkpt lat="45.79682" lon="4.28583">
        <ele>422</ele>
        <time>2017-04-13T10:26:37Z</time>
      </trkpt>
      <trkpt lat="45.79683" lon="4.28583">
        <ele>423</ele>
        <time>2017-04-13T10:26:39Z</time>
      </trkpt>
      <trkpt lat="45.79684" lon="4.28583">
        <ele>423</ele>
        <time>2017-04-13T10:26:42Z</time>
      </trkpt>
      <trkpt lat="45.79687" lon="4.28582">
        <ele>423</ele>
        <time>2017-04-13T10:26:45Z</time>
      </trkpt>
      <trkpt lat="45.7969" lon="4.28582">
        <ele>424</ele>
        <time>2017-04-13T10:26:47Z</time>
      </trkpt>
      <trkpt lat="45.79694" lon="4.28582">
        <ele>424</ele>
        <time>2017-04-13T10:26:50Z</time>
      </trkpt>
      <trkpt lat="45.79697" lon="4.28581">
        <ele>424</ele>
        <time>2017-04-13T10:26:52Z</time>
      </trkpt>
      <trkpt lat="45.79699" lon="4.28582">
        <ele>425</ele>
        <time>2017-04-13T10:26:54Z</time>
      </trkpt>
      <trkpt lat="45.79702" lon="4.28582">
        <ele>425</ele>
        <time>2017-04-13T10:26:56Z</time>
      </trkpt>
      <trkpt lat="45.79705" lon="4.28582">
        <ele>426</ele>
        <time>2017-04-13T10:26:58Z</time>
      </trkpt>
      <trkpt lat="45.79708" lon="4.28582">
        <ele>426</ele>
        <time>2017-04-13T10:27:00Z</time>
      </trkpt>
      <trkpt lat="45.79713" lon="4.28583">
        <ele>426</ele>
        <time>2017-04-13T10:27:03Z</time>
      </trkpt>
      <trkpt lat="45.79716" lon="4.28583">
        <ele>426</ele>
        <time>2017-04-13T10:27:05Z</time>
      </trkpt>
      <trkpt lat="45.79719" lon="4.28584">
        <ele>427</ele>
        <time>2017-04-13T10:27:07Z</time>
      </trkpt>
      <trkpt lat="45.79721" lon="4.28584">
        <ele>428</ele>
        <time>2017-04-13T10:27:09Z</time>
      </trkpt>
      <trkpt lat="45.79725" lon="4.28585">
        <ele>428</ele>
        <time>2017-04-13T10:27:12Z</time>
      </trkpt>
      <trkpt lat="45.79728" lon="4.28586">
        <ele>429</ele>
        <time>2017-04-13T10:27:15Z</time>
      </trkpt>
      <trkpt lat="45.79731" lon="4.28587">
        <ele>429</ele>
        <time>2017-04-13T10:27:17Z</time>
      </trkpt>
      <trkpt lat="45.79735" lon="4.28588">
        <ele>430</ele>
        <time>2017-04-13T10:27:20Z</time>
      </trkpt>
      <trkpt lat="45.79738" lon="4.28589">
        <ele>431</ele>
        <time>2017-04-13T10:27:23Z</time>
      </trkpt>
      <trkpt lat="45.79741" lon="4.28591">
        <ele>431</ele>
        <time>2017-04-13T10:27:25Z</time>
      </trkpt>
      <trkpt lat="45.79744" lon="4.28592">
        <ele>431</ele>
        <time>2017-04-13T10:27:28Z</time>
      </trkpt>
      <trkpt lat="45.79748" lon="4.28594">
        <ele>431</ele>
        <time>2017-04-13T10:27:31Z</time>
      </trkpt>
      <trkpt lat="45.79752" lon="4.28596">
        <ele>431</ele>
        <time>2017-04-13T10:27:34Z</time>
      </trkpt>
      <trkpt lat="45.79755" lon="4.28598">
        <ele>431</ele>
        <time>2017-04-13T10:27:36Z</time>
      </trkpt>
      <trkpt lat="45.79758" lon="4.28599">
        <ele>430</ele>
        <time>2017-04-13T10:27:39Z</time>
      </trkpt>
      <trkpt lat="45.79761" lon="4.286">
        <ele>430</ele>
        <time>2017-04-13T10:27:41Z</time>
      </trkpt>
      <trkpt lat="45.79763" lon="4.28601">
        <ele>430</ele>
        <time>2017-04-13T10:27:43Z</time>
      </trkpt>
      <trkpt lat="45.79766" lon="4.28602">
        <ele>430</ele>
        <time>2017-04-13T10:27:45Z</time>
      </trkpt>
      <trkpt lat="45.79768" lon="4.28603">
        <ele>430</ele>
        <time>2017-04-13T10:27:47Z</time>
      </trkpt>
      <trkpt lat="45.79771" lon="4.28603">
        <ele>430</ele>
        <time>2017-04-13T10:27:49Z</time>
      </trkpt>
      <trkpt lat="45.79773" lon="4.28604">
        <ele>430</ele>
        <time>2017-04-13T10:27:51Z</time>
      </trkpt>
      <trkpt lat="45.79776" lon="4.28607">
        <ele>430</ele>
        <time>2017-04-13T10:27:54Z</time>
      </trkpt>
      <trkpt lat="45.7978" lon="4.28608">
        <ele>431</ele>
        <time>2017-04-13T10:27:57Z</time>
      </trkpt>
      <trkpt lat="45.79784" lon="4.2861">
        <ele>431</ele>
        <time>2017-04-13T10:28:00Z</time>
      </trkpt>
      <trkpt lat="45.79788" lon="4.28612">
        <ele>431</ele>
        <time>2017-04-13T10:28:03Z</time>
      </trkpt>
      <trkpt lat="45.79792" lon="4.28615">
        <ele>431</ele>
        <time>2017-04-13T10:28:06Z</time>
      </trkpt>
      <trkpt lat="45.79795" lon="4.28616">
        <ele>431</ele>
        <time>2017-04-13T10:28:09Z</time>
      </trkpt>
      <trkpt lat="45.79797" lon="4.28618">
        <ele>431</ele>
        <time>2017-04-13T10:28:11Z</time>
      </trkpt>
      <trkpt lat="45.79798" lon="4.28619">
        <ele>431</ele>
        <time>2017-04-13T10:28:13Z</time>
      </trkpt>
      <trkpt lat="45.79801" lon="4.28622">
        <ele>431</ele>
        <time>2017-04-13T10:28:16Z</time>
      </trkpt>
      <trkpt lat="45.79803" lon="4.28625">
        <ele>432</ele>
        <time>2017-04-13T10:28:19Z</time>
      </trkpt>
      <trkpt lat="45.79807" lon="4.28628">
        <ele>432</ele>
        <time>2017-04-13T10:28:22Z</time>
      </trkpt>
      <trkpt lat="45.79809" lon="4.28631">
        <ele>433</ele>
        <time>2017-04-13T10:28:24Z</time>
      </trkpt>
      <trkpt lat="45.79811" lon="4.28633">
        <ele>433</ele>
        <time>2017-04-13T10:28:26Z</time>
      </trkpt>
      <trkpt lat="45.79813" lon="4.28638">
        <ele>433</ele>
        <time>2017-04-13T10:28:29Z</time>
      </trkpt>
      <trkpt lat="45.79815" lon="4.28641">
        <ele>433</ele>
        <time>2017-04-13T10:28:31Z</time>
      </trkpt>
      <trkpt lat="45.79817" lon="4.28643">
        <ele>433</ele>
        <time>2017-04-13T10:28:33Z</time>
      </trkpt>
      <trkpt lat="45.79819" lon="4.28646">
        <ele>433</ele>
        <time>2017-04-13T10:28:35Z</time>
      </trkpt>
      <trkpt lat="45.79821" lon="4.2865">
        <ele>434</ele>
        <time>2017-04-13T10:28:38Z</time>
      </trkpt>
      <trkpt lat="45.79824" lon="4.28654">
        <ele>434</ele>
        <time>2017-04-13T10:28:41Z</time>
      </trkpt>
      <trkpt lat="45.79827" lon="4.28658">
        <ele>435</ele>
        <time>2017-04-13T10:28:44Z</time>
      </trkpt>
      <trkpt lat="45.79831" lon="4.28663">
        <ele>436</ele>
        <time>2017-04-13T10:28:47Z</time>
      </trkpt>
      <trkpt lat="45.79832" lon="4.28665">
        <ele>436</ele>
        <time>2017-04-13T10:28:49Z</time>
      </trkpt>
      <trkpt lat="45.79835" lon="4.2867">
        <ele>436</ele>
        <time>2017-04-13T10:28:52Z</time>
      </trkpt>
      <trkpt lat="45.79838" lon="4.28674">
        <ele>436</ele>
        <time>2017-04-13T10:28:55Z</time>
      </trkpt>
      <trkpt lat="45.7984" lon="4.28677">
        <ele>437</ele>
        <time>2017-04-13T10:28:57Z</time>
      </trkpt>
      <trkpt lat="45.79842" lon="4.2868">
        <ele>437</ele>
        <time>2017-04-13T10:29:00Z</time>
      </trkpt>
      <trkpt lat="45.79845" lon="4.28684">
        <ele>438</ele>
        <time>2017-04-13T10:29:03Z</time>
      </trkpt>
      <trkpt lat="45.79847" lon="4.28686">
        <ele>438</ele>
        <time>2017-04-13T10:29:05Z</time>
      </trkpt>
      <trkpt lat="45.79848" lon="4.28688">
        <ele>439</ele>
        <time>2017-04-13T10:29:08Z</time>
      </trkpt>
      <trkpt lat="45.79848" lon="4.28689">
        <ele>439</ele>
        <time>2017-04-13T10:29:10Z</time>
      </trkpt>
      <trkpt lat="45.79849" lon="4.28689">
        <ele>439</ele>
        <time>2017-04-13T10:29:12Z</time>
      </trkpt>
      <trkpt lat="45.7985" lon="4.28691">
        <ele>439</ele>
        <time>2017-04-13T10:29:14Z</time>
      </trkpt>
      <trkpt lat="45.79853" lon="4.28695">
        <ele>439</ele>
        <time>2017-04-13T10:29:16Z</time>
      </trkpt>
      <trkpt lat="45.79856" lon="4.28699">
        <ele>439</ele>
        <time>2017-04-13T10:29:19Z</time>
      </trkpt>
      <trkpt lat="45.79858" lon="4.28702">
        <ele>440</ele>
        <time>2017-04-13T10:29:21Z</time>
      </trkpt>
      <trkpt lat="45.7986" lon="4.28707">
        <ele>440</ele>
        <time>2017-04-13T10:29:24Z</time>
      </trkpt>
      <trkpt lat="45.79862" lon="4.2871">
        <ele>441</ele>
        <time>2017-04-13T10:29:26Z</time>
      </trkpt>
      <trkpt lat="45.79865" lon="4.28714">
        <ele>441</ele>
        <time>2017-04-13T10:29:29Z</time>
      </trkpt>
      <trkpt lat="45.79867" lon="4.28717">
        <ele>442</ele>
        <time>2017-04-13T10:29:31Z</time>
      </trkpt>
      <trkpt lat="45.7987" lon="4.28722">
        <ele>443</ele>
        <time>2017-04-13T10:29:34Z</time>
      </trkpt>
      <trkpt lat="45.79873" lon="4.28725">
        <ele>443</ele>
        <time>2017-04-13T10:29:37Z</time>
      </trkpt>
      <trkpt lat="45.79876" lon="4.28729">
        <ele>443</ele>
        <time>2017-04-13T10:29:40Z</time>
      </trkpt>
      <trkpt lat="45.79879" lon="4.28732">
        <ele>444</ele>
        <time>2017-04-13T10:29:43Z</time>
      </trkpt>
      <trkpt lat="45.79881" lon="4.28735">
        <ele>444</ele>
        <time>2017-04-13T10:29:45Z</time>
      </trkpt>
      <trkpt lat="45.79883" lon="4.28737">
        <ele>445</ele>
        <time>2017-04-13T10:29:47Z</time>
      </trkpt>
      <trkpt lat="45.79886" lon="4.28741">
        <ele>445</ele>
        <time>2017-04-13T10:29:50Z</time>
      </trkpt>
      <trkpt lat="45.79889" lon="4.28744">
        <ele>445</ele>
        <time>2017-04-13T10:29:52Z</time>
      </trkpt>
      <trkpt lat="45.79891" lon="4.28746">
        <ele>446</ele>
        <time>2017-04-13T10:29:54Z</time>
      </trkpt>
      <trkpt lat="45.79895" lon="4.2875">
        <ele>446</ele>
        <time>2017-04-13T10:29:57Z</time>
      </trkpt>
      <trkpt lat="45.79898" lon="4.28754">
        <ele>446</ele>
        <time>2017-04-13T10:30:00Z</time>
      </trkpt>
      <trkpt lat="45.799" lon="4.28756">
        <ele>447</ele>
        <time>2017-04-13T10:30:02Z</time>
      </trkpt>
      <trkpt lat="45.79903" lon="4.2876">
        <ele>447</ele>
        <time>2017-04-13T10:30:05Z</time>
      </trkpt>
      <trkpt lat="45.79905" lon="4.28761">
        <ele>448</ele>
        <time>2017-04-13T10:30:07Z</time>
      </trkpt>
      <trkpt lat="45.79908" lon="4.28764">
        <ele>448</ele>
        <time>2017-04-13T10:30:09Z</time>
      </trkpt>
      <trkpt lat="45.7991" lon="4.28766">
        <ele>449</ele>
        <time>2017-04-13T10:30:11Z</time>
      </trkpt>
      <trkpt lat="45.79913" lon="4.28769">
        <ele>449</ele>
        <time>2017-04-13T10:30:14Z</time>
      </trkpt>
      <trkpt lat="45.79914" lon="4.28771">
        <ele>449</ele>
        <time>2017-04-13T10:30:16Z</time>
      </trkpt>
      <trkpt lat="45.79916" lon="4.28774">
        <ele>449</ele>
        <time>2017-04-13T10:30:18Z</time>
      </trkpt>
      <trkpt lat="45.79919" lon="4.28777">
        <ele>450</ele>
        <time>2017-04-13T10:30:21Z</time>
      </trkpt>
      <trkpt lat="45.79921" lon="4.2878">
        <ele>450</ele>
        <time>2017-04-13T10:30:23Z</time>
      </trkpt>
      <trkpt lat="45.79923" lon="4.28782">
        <ele>451</ele>
        <time>2017-04-13T10:30:25Z</time>
      </trkpt>
      <trkpt lat="45.79926" lon="4.28786">
        <ele>451</ele>
        <time>2017-04-13T10:30:28Z</time>
      </trkpt>
      <trkpt lat="45.79929" lon="4.28789">
        <ele>451</ele>
        <time>2017-04-13T10:30:31Z</time>
      </trkpt>
      <trkpt lat="45.7993" lon="4.2879">
        <ele>452</ele>
        <time>2017-04-13T10:30:33Z</time>
      </trkpt>
      <trkpt lat="45.79933" lon="4.28792">
        <ele>452</ele>
        <time>2017-04-13T10:30:35Z</time>
      </trkpt>
      <trkpt lat="45.79935" lon="4.28794">
        <ele>452</ele>
        <time>2017-04-13T10:30:37Z</time>
      </trkpt>
      <trkpt lat="45.79938" lon="4.28796">
        <ele>452</ele>
        <time>2017-04-13T10:30:40Z</time>
      </trkpt>
      <trkpt lat="45.79941" lon="4.28798">
        <ele>452</ele>
        <time>2017-04-13T10:30:42Z</time>
      </trkpt>
      <trkpt lat="45.79943" lon="4.28799">
        <ele>453</ele>
        <time>2017-04-13T10:30:44Z</time>
      </trkpt>
      <trkpt lat="45.79947" lon="4.28801">
        <ele>453</ele>
        <time>2017-04-13T10:30:47Z</time>
      </trkpt>
      <trkpt lat="45.79951" lon="4.28803">
        <ele>453</ele>
        <time>2017-04-13T10:30:50Z</time>
      </trkpt>
      <trkpt lat="45.79955" lon="4.28805">
        <ele>453</ele>
        <time>2017-04-13T10:30:53Z</time>
      </trkpt>
      <trkpt lat="45.79958" lon="4.28806">
        <ele>453</ele>
        <time>2017-04-13T10:30:55Z</time>
      </trkpt>
      <trkpt lat="45.79962" lon="4.28808">
        <ele>454</ele>
        <time>2017-04-13T10:30:58Z</time>
      </trkpt>
      <trkpt lat="45.79966" lon="4.2881">
        <ele>454</ele>
        <time>2017-04-13T10:31:01Z</time>
      </trkpt>
      <trkpt lat="45.79968" lon="4.28812">
        <ele>454</ele>
        <time>2017-04-13T10:31:03Z</time>
      </trkpt>
      <trkpt lat="45.79971" lon="4.28812">
        <ele>454</ele>
        <time>2017-04-13T10:31:05Z</time>
      </trkpt>
      <trkpt lat="45.79973" lon="4.28813">
        <ele>455</ele>
        <time>2017-04-13T10:31:07Z</time>
      </trkpt>
      <trkpt lat="45.79977" lon="4.28815">
        <ele>455</ele>
        <time>2017-04-13T10:31:10Z</time>
      </trkpt>
      <trkpt lat="45.79979" lon="4.28815">
        <ele>455</ele>
        <time>2017-04-13T10:31:12Z</time>
      </trkpt>
      <trkpt lat="45.79983" lon="4.28816">
        <ele>455</ele>
        <time>2017-04-13T10:31:15Z</time>
      </trkpt>
      <trkpt lat="45.79985" lon="4.28817">
        <ele>455</ele>
        <time>2017-04-13T10:31:17Z</time>
      </trkpt>
      <trkpt lat="45.79989" lon="4.28819">
        <ele>455</ele>
        <time>2017-04-13T10:31:20Z</time>
      </trkpt>
      <trkpt lat="45.79993" lon="4.28821">
        <ele>455</ele>
        <time>2017-04-13T10:31:23Z</time>
      </trkpt>
      <trkpt lat="45.79995" lon="4.28821">
        <ele>456</ele>
        <time>2017-04-13T10:31:25Z</time>
      </trkpt>
      <trkpt lat="45.79997" lon="4.28822">
        <ele>456</ele>
        <time>2017-04-13T10:31:28Z</time>
      </trkpt>
      <trkpt lat="45.80001" lon="4.28825">
        <ele>456</ele>
        <time>2017-04-13T10:31:31Z</time>
      </trkpt>
      <trkpt lat="45.80003" lon="4.28826">
        <ele>456</ele>
        <time>2017-04-13T10:31:33Z</time>
      </trkpt>
      <trkpt lat="45.80007" lon="4.28827">
        <ele>456</ele>
        <time>2017-04-13T10:31:36Z</time>
      </trkpt>
      <trkpt lat="45.8001" lon="4.28827">
        <ele>456</ele>
        <time>2017-04-13T10:31:38Z</time>
      </trkpt>
      <trkpt lat="45.80014" lon="4.28829">
        <ele>456</ele>
        <time>2017-04-13T10:31:41Z</time>
      </trkpt>
      <trkpt lat="45.80018" lon="4.2883">
        <ele>456</ele>
        <time>2017-04-13T10:31:43Z</time>
      </trkpt>
      <trkpt lat="45.80021" lon="4.28831">
        <ele>456</ele>
        <time>2017-04-13T10:31:45Z</time>
      </trkpt>
      <trkpt lat="45.80025" lon="4.28832">
        <ele>457</ele>
        <time>2017-04-13T10:31:48Z</time>
      </trkpt>
      <trkpt lat="45.80028" lon="4.28833">
        <ele>457</ele>
        <time>2017-04-13T10:31:50Z</time>
      </trkpt>
      <trkpt lat="45.80033" lon="4.28833">
        <ele>457</ele>
        <time>2017-04-13T10:31:53Z</time>
      </trkpt>
      <trkpt lat="45.80037" lon="4.28834">
        <ele>457</ele>
        <time>2017-04-13T10:31:56Z</time>
      </trkpt>
      <trkpt lat="45.8004" lon="4.28834">
        <ele>457</ele>
        <time>2017-04-13T10:31:58Z</time>
      </trkpt>
      <trkpt lat="45.80043" lon="4.28834">
        <ele>457</ele>
        <time>2017-04-13T10:32:00Z</time>
      </trkpt>
      <trkpt lat="45.80045" lon="4.28834">
        <ele>457</ele>
        <time>2017-04-13T10:32:02Z</time>
      </trkpt>
      <trkpt lat="45.80049" lon="4.28834">
        <ele>457</ele>
        <time>2017-04-13T10:32:04Z</time>
      </trkpt>
      <trkpt lat="45.80052" lon="4.28834">
        <ele>458</ele>
        <time>2017-04-13T10:32:06Z</time>
      </trkpt>
      <trkpt lat="45.80056" lon="4.28834">
        <ele>458</ele>
        <time>2017-04-13T10:32:09Z</time>
      </trkpt>
      <trkpt lat="45.80059" lon="4.28833">
        <ele>458</ele>
        <time>2017-04-13T10:32:11Z</time>
      </trkpt>
      <trkpt lat="45.80062" lon="4.28833">
        <ele>458</ele>
        <time>2017-04-13T10:32:13Z</time>
      </trkpt>
      <trkpt lat="45.80065" lon="4.28833">
        <ele>458</ele>
        <time>2017-04-13T10:32:15Z</time>
      </trkpt>
      <trkpt lat="45.80068" lon="4.28832">
        <ele>458</ele>
        <time>2017-04-13T10:32:17Z</time>
      </trkpt>
      <trkpt lat="45.80071" lon="4.28831">
        <ele>458</ele>
        <time>2017-04-13T10:32:19Z</time>
      </trkpt>
      <trkpt lat="45.80074" lon="4.28831">
        <ele>458</ele>
        <time>2017-04-13T10:32:21Z</time>
      </trkpt>
      <trkpt lat="45.80078" lon="4.2883">
        <ele>458</ele>
        <time>2017-04-13T10:32:24Z</time>
      </trkpt>
      <trkpt lat="45.80082" lon="4.28828">
        <ele>458</ele>
        <time>2017-04-13T10:32:27Z</time>
      </trkpt>
      <trkpt lat="45.80086" lon="4.28827">
        <ele>457</ele>
        <time>2017-04-13T10:32:30Z</time>
      </trkpt>
      <trkpt lat="45.8009" lon="4.28826">
        <ele>457</ele>
        <time>2017-04-13T10:32:33Z</time>
      </trkpt>
      <trkpt lat="45.80095" lon="4.28824">
        <ele>457</ele>
        <time>2017-04-13T10:32:36Z</time>
      </trkpt>
      <trkpt lat="45.80099" lon="4.28822">
        <ele>458</ele>
        <time>2017-04-13T10:32:39Z</time>
      </trkpt>
      <trkpt lat="45.80102" lon="4.28821">
        <ele>457</ele>
        <time>2017-04-13T10:32:41Z</time>
      </trkpt>
      <trkpt lat="45.80106" lon="4.2882">
        <ele>457</ele>
        <time>2017-04-13T10:32:44Z</time>
      </trkpt>
      <trkpt lat="45.80112" lon="4.2882">
        <ele>457</ele>
        <time>2017-04-13T10:32:47Z</time>
      </trkpt>
      <trkpt lat="45.80116" lon="4.28818">
        <ele>457</ele>
        <time>2017-04-13T10:32:50Z</time>
      </trkpt>
      <trkpt lat="45.8012" lon="4.28816">
        <ele>457</ele>
        <time>2017-04-13T10:32:53Z</time>
      </trkpt>
      <trkpt lat="45.80122" lon="4.28815">
        <ele>457</ele>
        <time>2017-04-13T10:32:55Z</time>
      </trkpt>
      <trkpt lat="45.80125" lon="4.28814">
        <ele>456</ele>
        <time>2017-04-13T10:32:57Z</time>
      </trkpt>
      <trkpt lat="45.8013" lon="4.28813">
        <ele>456</ele>
        <time>2017-04-13T10:33:00Z</time>
      </trkpt>
      <trkpt lat="45.80133" lon="4.28811">
        <ele>456</ele>
        <time>2017-04-13T10:33:03Z</time>
      </trkpt>
      <trkpt lat="45.80136" lon="4.28811">
        <ele>455</ele>
        <time>2017-04-13T10:33:05Z</time>
      </trkpt>
      <trkpt lat="45.8014" lon="4.28808">
        <ele>455</ele>
        <time>2017-04-13T10:33:08Z</time>
      </trkpt>
      <trkpt lat="45.80143" lon="4.28807">
        <ele>455</ele>
        <time>2017-04-13T10:33:10Z</time>
      </trkpt>
      <trkpt lat="45.80146" lon="4.28806">
        <ele>455</ele>
        <time>2017-04-13T10:33:12Z</time>
      </trkpt>
      <trkpt lat="45.80149" lon="4.28805">
        <ele>456</ele>
        <time>2017-04-13T10:33:14Z</time>
      </trkpt>
      <trkpt lat="45.80152" lon="4.28805">
        <ele>456</ele>
        <time>2017-04-13T10:33:16Z</time>
      </trkpt>
      <trkpt lat="45.80156" lon="4.28803">
        <ele>456</ele>
        <time>2017-04-13T10:33:19Z</time>
      </trkpt>
      <trkpt lat="45.80159" lon="4.28802">
        <ele>456</ele>
        <time>2017-04-13T10:33:21Z</time>
      </trkpt>
      <trkpt lat="45.80163" lon="4.288">
        <ele>456</ele>
        <time>2017-04-13T10:33:24Z</time>
      </trkpt>
      <trkpt lat="45.80166" lon="4.28799">
        <ele>456</ele>
        <time>2017-04-13T10:33:26Z</time>
      </trkpt>
      <trkpt lat="45.8017" lon="4.28798">
        <ele>456</ele>
        <time>2017-04-13T10:33:29Z</time>
      </trkpt>
      <trkpt lat="45.80173" lon="4.28796">
        <ele>456</ele>
        <time>2017-04-13T10:33:31Z</time>
      </trkpt>
      <trkpt lat="45.80178" lon="4.28795">
        <ele>456</ele>
        <time>2017-04-13T10:33:34Z</time>
      </trkpt>
      <trkpt lat="45.80183" lon="4.28793">
        <ele>455</ele>
        <time>2017-04-13T10:33:37Z</time>
      </trkpt>
      <trkpt lat="45.80185" lon="4.28792">
        <ele>455</ele>
        <time>2017-04-13T10:33:39Z</time>
      </trkpt>
      <trkpt lat="45.80188" lon="4.28791">
        <ele>455</ele>
        <time>2017-04-13T10:33:41Z</time>
      </trkpt>
      <trkpt lat="45.80193" lon="4.28789">
        <ele>456</ele>
        <time>2017-04-13T10:33:44Z</time>
      </trkpt>
      <trkpt lat="45.80196" lon="4.28787">
        <ele>456</ele>
        <time>2017-04-13T10:33:47Z</time>
      </trkpt>
      <trkpt lat="45.802" lon="4.28786">
        <ele>456</ele>
        <time>2017-04-13T10:33:49Z</time>
      </trkpt>
      <trkpt lat="45.80204" lon="4.28784">
        <ele>456</ele>
        <time>2017-04-13T10:33:52Z</time>
      </trkpt>
      <trkpt lat="45.80208" lon="4.28782">
        <ele>456</ele>
        <time>2017-04-13T10:33:55Z</time>
      </trkpt>
      <trkpt lat="45.80211" lon="4.28781">
        <ele>456</ele>
        <time>2017-04-13T10:33:57Z</time>
      </trkpt>
      <trkpt lat="45.80214" lon="4.2878">
        <ele>456</ele>
        <time>2017-04-13T10:33:59Z</time>
      </trkpt>
      <trkpt lat="45.80219" lon="4.28779">
        <ele>456</ele>
        <time>2017-04-13T10:34:02Z</time>
      </trkpt>
      <trkpt lat="45.80223" lon="4.28777">
        <ele>456</ele>
        <time>2017-04-13T10:34:05Z</time>
      </trkpt>
      <trkpt lat="45.80228" lon="4.28775">
        <ele>456</ele>
        <time>2017-04-13T10:34:08Z</time>
      </trkpt>
      <trkpt lat="45.8023" lon="4.28776">
        <ele>456</ele>
        <time>2017-04-13T10:34:10Z</time>
      </trkpt>
      <trkpt lat="45.80235" lon="4.28773">
        <ele>456</ele>
        <time>2017-04-13T10:34:13Z</time>
      </trkpt>
      <trkpt lat="45.80238" lon="4.28771">
        <ele>457</ele>
        <time>2017-04-13T10:34:16Z</time>
      </trkpt>
      <trkpt lat="45.8024" lon="4.2877">
        <ele>457</ele>
        <time>2017-04-13T10:34:18Z</time>
      </trkpt>
      <trkpt lat="45.80242" lon="4.28768">
        <ele>457</ele>
        <time>2017-04-13T10:34:20Z</time>
      </trkpt>
      <trkpt lat="45.80246" lon="4.28767">
        <ele>457</ele>
        <time>2017-04-13T10:34:23Z</time>
      </trkpt>
      <trkpt lat="45.80248" lon="4.28767">
        <ele>457</ele>
        <time>2017-04-13T10:34:25Z</time>
      </trkpt>
      <trkpt lat="45.80253" lon="4.28766">
        <ele>457</ele>
        <time>2017-04-13T10:34:28Z</time>
      </trkpt>
      <trkpt lat="45.80257" lon="4.28765">
        <ele>457</ele>
        <time>2017-04-13T10:34:31Z</time>
      </trkpt>
      <trkpt lat="45.80259" lon="4.28764">
        <ele>457</ele>
        <time>2017-04-13T10:34:33Z</time>
      </trkpt>
      <trkpt lat="45.80262" lon="4.28762">
        <ele>457</ele>
        <time>2017-04-13T10:34:35Z</time>
      </trkpt>
      <trkpt lat="45.80265" lon="4.28762">
        <ele>457</ele>
        <time>2017-04-13T10:34:37Z</time>
      </trkpt>
      <trkpt lat="45.80267" lon="4.28761">
        <ele>458</ele>
        <time>2017-04-13T10:34:39Z</time>
      </trkpt>
      <trkpt lat="45.8027" lon="4.2876">
        <ele>458</ele>
        <time>2017-04-13T10:34:41Z</time>
      </trkpt>
      <trkpt lat="45.80272" lon="4.2876">
        <ele>458</ele>
        <time>2017-04-13T10:34:43Z</time>
      </trkpt>
      <trkpt lat="45.80277" lon="4.28758">
        <ele>458</ele>
        <time>2017-04-13T10:34:46Z</time>
      </trkpt>
      <trkpt lat="45.8028" lon="4.28756">
        <ele>458</ele>
        <time>2017-04-13T10:34:49Z</time>
      </trkpt>
      <trkpt lat="45.80283" lon="4.28756">
        <ele>458</ele>
        <time>2017-04-13T10:34:52Z</time>
      </trkpt>
      <trkpt lat="45.80286" lon="4.28754">
        <ele>459</ele>
        <time>2017-04-13T10:34:55Z</time>
      </trkpt>
      <trkpt lat="45.80288" lon="4.28752">
        <ele>459</ele>
        <time>2017-04-13T10:34:57Z</time>
      </trkpt>
      <trkpt lat="45.80291" lon="4.28751">
        <ele>459</ele>
        <time>2017-04-13T10:34:59Z</time>
      </trkpt>
      <trkpt lat="45.80294" lon="4.2875">
        <ele>459</ele>
        <time>2017-04-13T10:35:02Z</time>
      </trkpt>
      <trkpt lat="45.80296" lon="4.28747">
        <ele>460</ele>
        <time>2017-04-13T10:35:05Z</time>
      </trkpt>
      <trkpt lat="45.803" lon="4.28746">
        <ele>459</ele>
        <time>2017-04-13T10:35:08Z</time>
      </trkpt>
      <trkpt lat="45.80304" lon="4.28744">
        <ele>460</ele>
        <time>2017-04-13T10:35:11Z</time>
      </trkpt>
      <trkpt lat="45.80306" lon="4.28743">
        <ele>460</ele>
        <time>2017-04-13T10:35:13Z</time>
      </trkpt>
      <trkpt lat="45.8031" lon="4.28741">
        <ele>460</ele>
        <time>2017-04-13T10:35:16Z</time>
      </trkpt>
      <trkpt lat="45.80315" lon="4.28739">
        <ele>460</ele>
        <time>2017-04-13T10:35:19Z</time>
      </trkpt>
      <trkpt lat="45.80318" lon="4.28738">
        <ele>461</ele>
        <time>2017-04-13T10:35:21Z</time>
      </trkpt>
      <trkpt lat="45.8032" lon="4.28737">
        <ele>461</ele>
        <time>2017-04-13T10:35:23Z</time>
      </trkpt>
      <trkpt lat="45.80324" lon="4.28736">
        <ele>461</ele>
        <time>2017-04-13T10:35:25Z</time>
      </trkpt>
      <trkpt lat="45.80328" lon="4.28734">
        <ele>462</ele>
        <time>2017-04-13T10:35:28Z</time>
      </trkpt>
      <trkpt lat="45.80332" lon="4.28733">
        <ele>462</ele>
        <time>2017-04-13T10:35:31Z</time>
      </trkpt>
      <trkpt lat="45.80335" lon="4.28732">
        <ele>462</ele>
        <time>2017-04-13T10:35:33Z</time>
      </trkpt>
      <trkpt lat="45.80337" lon="4.28731">
        <ele>462</ele>
        <time>2017-04-13T10:35:35Z</time>
      </trkpt>
      <trkpt lat="45.8034" lon="4.28729">
        <ele>462</ele>
        <time>2017-04-13T10:35:37Z</time>
      </trkpt>
      <trkpt lat="45.80343" lon="4.28728">
        <ele>462</ele>
        <time>2017-04-13T10:35:39Z</time>
      </trkpt>
      <trkpt lat="45.80346" lon="4.28727">
        <ele>462</ele>
        <time>2017-04-13T10:35:41Z</time>
      </trkpt>
      <trkpt lat="45.8035" lon="4.28726">
        <ele>463</ele>
        <time>2017-04-13T10:35:44Z</time>
      </trkpt>
      <trkpt lat="45.80353" lon="4.28725">
        <ele>463</ele>
        <time>2017-04-13T10:35:46Z</time>
      </trkpt>
      <trkpt lat="45.80356" lon="4.28724">
        <ele>463</ele>
        <time>2017-04-13T10:35:48Z</time>
      </trkpt>
      <trkpt lat="45.8036" lon="4.28722">
        <ele>463</ele>
        <time>2017-04-13T10:35:51Z</time>
      </trkpt>
      <trkpt lat="45.80363" lon="4.28721">
        <ele>463</ele>
        <time>2017-04-13T10:35:53Z</time>
      </trkpt>
      <trkpt lat="45.80365" lon="4.2872">
        <ele>463</ele>
        <time>2017-04-13T10:35:55Z</time>
      </trkpt>
      <trkpt lat="45.80368" lon="4.28719">
        <ele>463</ele>
        <time>2017-04-13T10:35:57Z</time>
      </trkpt>
      <trkpt lat="45.80372" lon="4.28718">
        <ele>464</ele>
        <time>2017-04-13T10:36:00Z</time>
      </trkpt>
      <trkpt lat="45.80375" lon="4.28718">
        <ele>464</ele>
        <time>2017-04-13T10:36:02Z</time>
      </trkpt>
      <trkpt lat="45.80379" lon="4.28717">
        <ele>465</ele>
        <time>2017-04-13T10:36:05Z</time>
      </trkpt>
      <trkpt lat="45.80382" lon="4.28716">
        <ele>466</ele>
        <time>2017-04-13T10:36:07Z</time>
      </trkpt>
      <trkpt lat="45.80385" lon="4.28715">
        <ele>466</ele>
        <time>2017-04-13T10:36:10Z</time>
      </trkpt>
      <trkpt lat="45.80387" lon="4.28714">
        <ele>466</ele>
        <time>2017-04-13T10:36:12Z</time>
      </trkpt>
      <trkpt lat="45.80391" lon="4.28713">
        <ele>467</ele>
        <time>2017-04-13T10:36:15Z</time>
      </trkpt>
      <trkpt lat="45.80393" lon="4.28713">
        <ele>468</ele>
        <time>2017-04-13T10:36:17Z</time>
      </trkpt>
      <trkpt lat="45.80397" lon="4.28712">
        <ele>468</ele>
        <time>2017-04-13T10:36:20Z</time>
      </trkpt>
      <trkpt lat="45.804" lon="4.28711">
        <ele>469</ele>
        <time>2017-04-13T10:36:23Z</time>
      </trkpt>
      <trkpt lat="45.80404" lon="4.2871">
        <ele>469</ele>
        <time>2017-04-13T10:36:26Z</time>
      </trkpt>
      <trkpt lat="45.80406" lon="4.28709">
        <ele>470</ele>
        <time>2017-04-13T10:36:28Z</time>
      </trkpt>
      <trkpt lat="45.8041" lon="4.28708">
        <ele>470</ele>
        <time>2017-04-13T10:36:31Z</time>
      </trkpt>
      <trkpt lat="45.80412" lon="4.28707">
        <ele>471</ele>
        <time>2017-04-13T10:36:33Z</time>
      </trkpt>
      <trkpt lat="45.80415" lon="4.28706">
        <ele>471</ele>
        <time>2017-04-13T10:36:35Z</time>
      </trkpt>
      <trkpt lat="45.80418" lon="4.28703">
        <ele>472</ele>
        <time>2017-04-13T10:36:38Z</time>
      </trkpt>
      <trkpt lat="45.80422" lon="4.28702">
        <ele>472</ele>
        <time>2017-04-13T10:36:41Z</time>
      </trkpt>
      <trkpt lat="45.80425" lon="4.28702">
        <ele>472</ele>
        <time>2017-04-13T10:36:43Z</time>
      </trkpt>
      <trkpt lat="45.80427" lon="4.28701">
        <ele>472</ele>
        <time>2017-04-13T10:36:45Z</time>
      </trkpt>
      <trkpt lat="45.8043" lon="4.287">
        <ele>473</ele>
        <time>2017-04-13T10:36:48Z</time>
      </trkpt>
      <trkpt lat="45.80432" lon="4.28699">
        <ele>473</ele>
        <time>2017-04-13T10:36:50Z</time>
      </trkpt>
      <trkpt lat="45.80434" lon="4.28697">
        <ele>473</ele>
        <time>2017-04-13T10:36:52Z</time>
      </trkpt>
      <trkpt lat="45.80437" lon="4.28698">
        <ele>474</ele>
        <time>2017-04-13T10:36:55Z</time>
      </trkpt>
      <trkpt lat="45.8044" lon="4.28698">
        <ele>474</ele>
        <time>2017-04-13T10:36:57Z</time>
      </trkpt>
      <trkpt lat="45.80444" lon="4.28698">
        <ele>474</ele>
        <time>2017-04-13T10:36:59Z</time>
      </trkpt>
      <trkpt lat="45.80447" lon="4.28697">
        <ele>475</ele>
        <time>2017-04-13T10:37:02Z</time>
      </trkpt>
      <trkpt lat="45.80451" lon="4.28697">
        <ele>475</ele>
        <time>2017-04-13T10:37:04Z</time>
      </trkpt>
      <trkpt lat="45.80455" lon="4.28696">
        <ele>475</ele>
        <time>2017-04-13T10:37:07Z</time>
      </trkpt>
      <trkpt lat="45.80458" lon="4.28695">
        <ele>475</ele>
        <time>2017-04-13T10:37:09Z</time>
      </trkpt>
      <trkpt lat="45.80461" lon="4.28694">
        <ele>475</ele>
        <time>2017-04-13T10:37:11Z</time>
      </trkpt>
      <trkpt lat="45.80464" lon="4.28692">
        <ele>475</ele>
        <time>2017-04-13T10:37:14Z</time>
      </trkpt>
      <trkpt lat="45.80466" lon="4.28691">
        <ele>475</ele>
        <time>2017-04-13T10:37:16Z</time>
      </trkpt>
      <trkpt lat="45.8047" lon="4.2869">
        <ele>476</ele>
        <time>2017-04-13T10:37:19Z</time>
      </trkpt>
      <trkpt lat="45.80473" lon="4.28689">
        <ele>476</ele>
        <time>2017-04-13T10:37:21Z</time>
      </trkpt>
      <trkpt lat="45.80475" lon="4.28689">
        <ele>476</ele>
        <time>2017-04-13T10:37:23Z</time>
      </trkpt>
      <trkpt lat="45.80479" lon="4.28688">
        <ele>476</ele>
        <time>2017-04-13T10:37:26Z</time>
      </trkpt>
      <trkpt lat="45.80482" lon="4.28688">
        <ele>476</ele>
        <time>2017-04-13T10:37:29Z</time>
      </trkpt>
      <trkpt lat="45.80483" lon="4.28687">
        <ele>476</ele>
        <time>2017-04-13T10:37:31Z</time>
      </trkpt>
      <trkpt lat="45.80487" lon="4.28686">
        <ele>476</ele>
        <time>2017-04-13T10:37:34Z</time>
      </trkpt>
      <trkpt lat="45.80489" lon="4.28685">
        <ele>476</ele>
        <time>2017-04-13T10:37:36Z</time>
      </trkpt>
      <trkpt lat="45.80492" lon="4.28685">
        <ele>476</ele>
        <time>2017-04-13T10:37:38Z</time>
      </trkpt>
      <trkpt lat="45.80494" lon="4.28684">
        <ele>477</ele>
        <time>2017-04-13T10:37:40Z</time>
      </trkpt>
      <trkpt lat="45.80497" lon="4.28682">
        <ele>477</ele>
        <time>2017-04-13T10:37:42Z</time>
      </trkpt>
      <trkpt lat="45.80501" lon="4.2868">
        <ele>477</ele>
        <time>2017-04-13T10:37:45Z</time>
      </trkpt>
      <trkpt lat="45.80503" lon="4.28678">
        <ele>477</ele>
        <time>2017-04-13T10:37:47Z</time>
      </trkpt>
      <trkpt lat="45.80507" lon="4.28677">
        <ele>477</ele>
        <time>2017-04-13T10:37:50Z</time>
      </trkpt>
      <trkpt lat="45.80509" lon="4.28677">
        <ele>477</ele>
        <time>2017-04-13T10:37:52Z</time>
      </trkpt>
      <trkpt lat="45.80513" lon="4.28676">
        <ele>477</ele>
        <time>2017-04-13T10:37:55Z</time>
      </trkpt>
      <trkpt lat="45.80517" lon="4.28678">
        <ele>478</ele>
        <time>2017-04-13T10:37:58Z</time>
      </trkpt>
      <trkpt lat="45.80521" lon="4.2868">
        <ele>478</ele>
        <time>2017-04-13T10:38:01Z</time>
      </trkpt>
      <trkpt lat="45.80523" lon="4.28684">
        <ele>479</ele>
        <time>2017-04-13T10:38:04Z</time>
      </trkpt>
      <trkpt lat="45.80524" lon="4.28687">
        <ele>479</ele>
        <time>2017-04-13T10:38:06Z</time>
      </trkpt>
      <trkpt lat="45.80526" lon="4.2869">
        <ele>479</ele>
        <time>2017-04-13T10:38:09Z</time>
      </trkpt>
      <trkpt lat="45.80526" lon="4.28693">
        <ele>479</ele>
        <time>2017-04-13T10:38:11Z</time>
      </trkpt>
      <trkpt lat="45.80529" lon="4.28699">
        <ele>479</ele>
        <time>2017-04-13T10:38:14Z</time>
      </trkpt>
      <trkpt lat="45.8053" lon="4.28702">
        <ele>479</ele>
        <time>2017-04-13T10:38:16Z</time>
      </trkpt>
      <trkpt lat="45.80533" lon="4.28707">
        <ele>478</ele>
        <time>2017-04-13T10:38:19Z</time>
      </trkpt>
      <trkpt lat="45.80534" lon="4.28711">
        <ele>478</ele>
        <time>2017-04-13T10:38:21Z</time>
      </trkpt>
      <trkpt lat="45.80537" lon="4.28716">
        <ele>478</ele>
        <time>2017-04-13T10:38:24Z</time>
      </trkpt>
      <trkpt lat="45.80539" lon="4.28721">
        <ele>478</ele>
        <time>2017-04-13T10:38:27Z</time>
      </trkpt>
      <trkpt lat="45.8054" lon="4.28724">
        <ele>478</ele>
        <time>2017-04-13T10:38:29Z</time>
      </trkpt>
      <trkpt lat="45.80542" lon="4.28729">
        <ele>478</ele>
        <time>2017-04-13T10:38:32Z</time>
      </trkpt>
      <trkpt lat="45.80544" lon="4.28734">
        <ele>477</ele>
        <time>2017-04-13T10:38:35Z</time>
      </trkpt>
      <trkpt lat="45.80545" lon="4.28738">
        <ele>477</ele>
        <time>2017-04-13T10:38:38Z</time>
      </trkpt>
      <trkpt lat="45.80546" lon="4.28742">
        <ele>477</ele>
        <time>2017-04-13T10:38:40Z</time>
      </trkpt>
      <trkpt lat="45.80547" lon="4.28746">
        <ele>476</ele>
        <time>2017-04-13T10:38:43Z</time>
      </trkpt>
      <trkpt lat="45.80549" lon="4.28749">
        <ele>476</ele>
        <time>2017-04-13T10:38:45Z</time>
      </trkpt>
      <trkpt lat="45.8055" lon="4.28753">
        <ele>475</ele>
        <time>2017-04-13T10:38:48Z</time>
      </trkpt>
      <trkpt lat="45.80552" lon="4.28756">
        <ele>475</ele>
        <time>2017-04-13T10:38:50Z</time>
      </trkpt>
      <trkpt lat="45.80554" lon="4.28759">
        <ele>475</ele>
        <time>2017-04-13T10:38:53Z</time>
      </trkpt>
      <trkpt lat="45.80555" lon="4.28762">
        <ele>475</ele>
        <time>2017-04-13T10:38:55Z</time>
      </trkpt>
      <trkpt lat="45.80555" lon="4.28765">
        <ele>475</ele>
        <time>2017-04-13T10:38:57Z</time>
      </trkpt>
      <trkpt lat="45.80556" lon="4.28769">
        <ele>475</ele>
        <time>2017-04-13T10:38:59Z</time>
      </trkpt>
      <trkpt lat="45.80558" lon="4.28773">
        <ele>475</ele>
        <time>2017-04-13T10:39:01Z</time>
      </trkpt>
      <trkpt lat="45.80559" lon="4.28777">
        <ele>475</ele>
        <time>2017-04-13T10:39:03Z</time>
      </trkpt>
      <trkpt lat="45.80561" lon="4.28782">
        <ele>474</ele>
        <time>2017-04-13T10:39:06Z</time>
      </trkpt>
      <trkpt lat="45.80563" lon="4.28788">
        <ele>474</ele>
        <time>2017-04-13T10:39:09Z</time>
      </trkpt>
      <trkpt lat="45.80565" lon="4.28793">
        <ele>473</ele>
        <time>2017-04-13T10:39:12Z</time>
      </trkpt>
      <trkpt lat="45.80567" lon="4.28798">
        <ele>472</ele>
        <time>2017-04-13T10:39:15Z</time>
      </trkpt>
      <trkpt lat="45.8057" lon="4.28802">
        <ele>472</ele>
        <time>2017-04-13T10:39:18Z</time>
      </trkpt>
      <trkpt lat="45.80571" lon="4.28804">
        <ele>472</ele>
        <time>2017-04-13T10:39:20Z</time>
      </trkpt>
      <trkpt lat="45.80573" lon="4.28807">
        <ele>472</ele>
        <time>2017-04-13T10:39:22Z</time>
      </trkpt>
      <trkpt lat="45.80575" lon="4.28809">
        <ele>471</ele>
        <time>2017-04-13T10:39:24Z</time>
      </trkpt>
      <trkpt lat="45.80577" lon="4.28813">
        <ele>471</ele>
        <time>2017-04-13T10:39:27Z</time>
      </trkpt>
      <trkpt lat="45.80579" lon="4.28814">
        <ele>470</ele>
        <time>2017-04-13T10:39:29Z</time>
      </trkpt>
      <trkpt lat="45.80581" lon="4.28816">
        <ele>470</ele>
        <time>2017-04-13T10:39:31Z</time>
      </trkpt>
      <trkpt lat="45.80583" lon="4.2882">
        <ele>470</ele>
        <time>2017-04-13T10:39:34Z</time>
      </trkpt>
      <trkpt lat="45.80586" lon="4.28823">
        <ele>470</ele>
        <time>2017-04-13T10:39:36Z</time>
      </trkpt>
      <trkpt lat="45.80587" lon="4.28825">
        <ele>469</ele>
        <time>2017-04-13T10:39:38Z</time>
      </trkpt>
      <trkpt lat="45.80589" lon="4.28828">
        <ele>469</ele>
        <time>2017-04-13T10:39:40Z</time>
      </trkpt>
      <trkpt lat="45.80591" lon="4.28832">
        <ele>469</ele>
        <time>2017-04-13T10:39:42Z</time>
      </trkpt>
      <trkpt lat="45.80593" lon="4.28834">
        <ele>469</ele>
        <time>2017-04-13T10:39:44Z</time>
      </trkpt>
      <trkpt lat="45.80597" lon="4.28838">
        <ele>469</ele>
        <time>2017-04-13T10:39:47Z</time>
      </trkpt>
      <trkpt lat="45.80601" lon="4.2884">
        <ele>470</ele>
        <time>2017-04-13T10:39:50Z</time>
      </trkpt>
      <trkpt lat="45.80603" lon="4.28842">
        <ele>470</ele>
        <time>2017-04-13T10:39:52Z</time>
      </trkpt>
      <trkpt lat="45.80606" lon="4.28844">
        <ele>470</ele>
        <time>2017-04-13T10:39:55Z</time>
      </trkpt>
      <trkpt lat="45.80608" lon="4.28845">
        <ele>469</ele>
        <time>2017-04-13T10:39:57Z</time>
      </trkpt>
      <trkpt lat="45.80609" lon="4.28846">
        <ele>469</ele>
        <time>2017-04-13T10:39:59Z</time>
      </trkpt>
      <trkpt lat="45.80617" lon="4.28852">
        <ele>480</ele>
        <time>2017-04-13T14:40:13Z</time>
      </trkpt>
      <trkpt lat="45.80618" lon="4.2885">
        <ele>480</ele>
        <time>2017-04-13T14:40:15Z</time>
      </trkpt>
      <trkpt lat="45.80619" lon="4.28848">
        <ele>480</ele>
        <time>2017-04-13T14:40:18Z</time>
      </trkpt>
      <trkpt lat="45.80619" lon="4.28848">
        <ele>480</ele>
        <time>2017-04-13T14:40:21Z</time>
      </trkpt>
      <trkpt lat="45.8062" lon="4.28849">
        <ele>480</ele>
        <time>2017-04-13T14:40:23Z</time>
      </trkpt>
      <trkpt lat="45.80621" lon="4.28851">
        <ele>480</ele>
        <time>2017-04-13T14:40:25Z</time>
      </trkpt>
      <trkpt lat="45.80623" lon="4.28852">
        <ele>480</ele>
        <time>2017-04-13T14:40:28Z</time>
      </trkpt>
      <trkpt lat="45.80626" lon="4.28852">
        <ele>479</ele>
        <time>2017-04-13T14:40:31Z</time>
      </trkpt>
      <trkpt lat="45.80629" lon="4.28851">
        <ele>479</ele>
        <time>2017-04-13T14:40:34Z</time>
      </trkpt>
      <trkpt lat="45.80631" lon="4.28851">
        <ele>479</ele>
        <time>2017-04-13T14:40:36Z</time>
      </trkpt>
      <trkpt lat="45.80635" lon="4.28851">
        <ele>479</ele>
        <time>2017-04-13T14:40:39Z</time>
      </trkpt>
      <trkpt lat="45.80637" lon="4.2885">
        <ele>479</ele>
        <time>2017-04-13T14:40:41Z</time>
      </trkpt>
      <trkpt lat="45.8064" lon="4.2885">
        <ele>478</ele>
        <time>2017-04-13T14:40:44Z</time>
      </trkpt>
      <trkpt lat="45.80643" lon="4.2885">
        <ele>478</ele>
        <time>2017-04-13T14:40:46Z</time>
      </trkpt>
      <trkpt lat="45.80647" lon="4.28849">
        <ele>478</ele>
        <time>2017-04-13T14:40:49Z</time>
      </trkpt>
      <trkpt lat="45.80651" lon="4.28849">
        <ele>477</ele>
        <time>2017-04-13T14:40:52Z</time>
      </trkpt>
      <trkpt lat="45.80653" lon="4.28848">
        <ele>477</ele>
        <time>2017-04-13T14:40:54Z</time>
      </trkpt>
      <trkpt lat="45.80655" lon="4.28848">
        <ele>477</ele>
        <time>2017-04-13T14:40:56Z</time>
      </trkpt>
      <trkpt lat="45.80658" lon="4.28847">
        <ele>476</ele>
        <time>2017-04-13T14:40:58Z</time>
      </trkpt>
      <trkpt lat="45.8066" lon="4.28846">
        <ele>476</ele>
        <time>2017-04-13T14:41:00Z</time>
      </trkpt>
      <trkpt lat="45.80663" lon="4.28846">
        <ele>474</ele>
        <time>2017-04-13T14:41:03Z</time>
      </trkpt>
      <trkpt lat="45.80666" lon="4.28846">
        <ele>474</ele>
        <time>2017-04-13T14:41:05Z</time>
      </trkpt>
      <trkpt lat="45.8067" lon="4.28845">
        <ele>474</ele>
        <time>2017-04-13T14:41:08Z</time>
      </trkpt>
      <trkpt lat="45.80674" lon="4.28845">
        <ele>473</ele>
        <time>2017-04-13T14:41:11Z</time>
      </trkpt>
      <trkpt lat="45.80676" lon="4.28845">
        <ele>475</ele>
        <time>2017-04-13T14:41:13Z</time>
      </trkpt>
      <trkpt lat="45.8068" lon="4.28844">
        <ele>473</ele>
        <time>2017-04-13T14:41:16Z</time>
      </trkpt>
      <trkpt lat="45.80683" lon="4.28844">
        <ele>473</ele>
        <time>2017-04-13T14:41:19Z</time>
      </trkpt>
      <trkpt lat="45.80686" lon="4.28843">
        <ele>473</ele>
        <time>2017-04-13T14:41:21Z</time>
      </trkpt>
      <trkpt lat="45.8069" lon="4.28843">
        <ele>474</ele>
        <time>2017-04-13T14:41:24Z</time>
      </trkpt>
      <trkpt lat="45.80693" lon="4.28842">
        <ele>473</ele>
        <time>2017-04-13T14:41:26Z</time>
      </trkpt>
      <trkpt lat="45.80696" lon="4.28842">
        <ele>473</ele>
        <time>2017-04-13T14:41:28Z</time>
      </trkpt>
      <trkpt lat="45.80699" lon="4.28842">
        <ele>472</ele>
        <time>2017-04-13T14:41:31Z</time>
      </trkpt>
      <trkpt lat="45.80702" lon="4.28841">
        <ele>472</ele>
        <time>2017-04-13T14:41:33Z</time>
      </trkpt>
      <trkpt lat="45.80705" lon="4.28841">
        <ele>472</ele>
        <time>2017-04-13T14:41:35Z</time>
      </trkpt>
      <trkpt lat="45.80708" lon="4.28841">
        <ele>472</ele>
        <time>2017-04-13T14:41:38Z</time>
      </trkpt>
      <trkpt lat="45.80712" lon="4.2884">
        <ele>472</ele>
        <time>2017-04-13T14:41:41Z</time>
      </trkpt>
      <trkpt lat="45.80715" lon="4.28839">
        <ele>472</ele>
        <time>2017-04-13T14:41:43Z</time>
      </trkpt>
      <trkpt lat="45.80719" lon="4.28839">
        <ele>472</ele>
        <time>2017-04-13T14:41:46Z</time>
      </trkpt>
      <trkpt lat="45.80724" lon="4.2884">
        <ele>471</ele>
        <time>2017-04-13T14:41:49Z</time>
      </trkpt>
      <trkpt lat="45.80727" lon="4.2884">
        <ele>471</ele>
        <time>2017-04-13T14:41:51Z</time>
      </trkpt>
      <trkpt lat="45.8073" lon="4.2884">
        <ele>472</ele>
        <time>2017-04-13T14:41:53Z</time>
      </trkpt>
      <trkpt lat="45.80735" lon="4.2884">
        <ele>472</ele>
        <time>2017-04-13T14:41:56Z</time>
      </trkpt>
      <trkpt lat="45.80739" lon="4.28841">
        <ele>472</ele>
        <time>2017-04-13T14:41:59Z</time>
      </trkpt>
      <trkpt lat="45.80742" lon="4.28842">
        <ele>472</ele>
        <time>2017-04-13T14:42:01Z</time>
      </trkpt>
      <trkpt lat="45.80746" lon="4.28842">
        <ele>472</ele>
        <time>2017-04-13T14:42:04Z</time>
      </trkpt>
      <trkpt lat="45.8075" lon="4.28841">
        <ele>472</ele>
        <time>2017-04-13T14:42:07Z</time>
      </trkpt>
      <trkpt lat="45.80752" lon="4.28841">
        <ele>473</ele>
        <time>2017-04-13T14:42:09Z</time>
      </trkpt>
      <trkpt lat="45.80755" lon="4.28841">
        <ele>473</ele>
        <time>2017-04-13T14:42:12Z</time>
      </trkpt>
      <trkpt lat="45.80758" lon="4.2884">
        <ele>473</ele>
        <time>2017-04-13T14:42:14Z</time>
      </trkpt>
      <trkpt lat="45.80761" lon="4.2884">
        <ele>473</ele>
        <time>2017-04-13T14:42:16Z</time>
      </trkpt>
      <trkpt lat="45.80764" lon="4.2884">
        <ele>473</ele>
        <time>2017-04-13T14:42:18Z</time>
      </trkpt>
      <trkpt lat="45.80768" lon="4.28839">
        <ele>474</ele>
        <time>2017-04-13T14:42:21Z</time>
      </trkpt>
      <trkpt lat="45.80771" lon="4.28839">
        <ele>474</ele>
        <time>2017-04-13T14:42:23Z</time>
      </trkpt>
      <trkpt lat="45.80774" lon="4.28839">
        <ele>474</ele>
        <time>2017-04-13T14:42:25Z</time>
      </trkpt>
      <trkpt lat="45.80776" lon="4.2884">
        <ele>474</ele>
        <time>2017-04-13T14:42:27Z</time>
      </trkpt>
      <trkpt lat="45.8078" lon="4.28839">
        <ele>474</ele>
        <time>2017-04-13T14:42:30Z</time>
      </trkpt>
      <trkpt lat="45.80782" lon="4.28839">
        <ele>474</ele>
        <time>2017-04-13T14:42:32Z</time>
      </trkpt>
      <trkpt lat="45.80785" lon="4.28839">
        <ele>473</ele>
        <time>2017-04-13T14:42:35Z</time>
      </trkpt>
      <trkpt lat="45.80787" lon="4.28839">
        <ele>473</ele>
        <time>2017-04-13T14:42:37Z</time>
      </trkpt>
      <trkpt lat="45.8079" lon="4.28838">
        <ele>473</ele>
        <time>2017-04-13T14:42:40Z</time>
      </trkpt>
      <trkpt lat="45.80792" lon="4.28838">
        <ele>473</ele>
        <time>2017-04-13T14:42:42Z</time>
      </trkpt>
      <trkpt lat="45.80794" lon="4.28839">
        <ele>472</ele>
        <time>2017-04-13T14:42:44Z</time>
      </trkpt>
      <trkpt lat="45.80797" lon="4.28838">
        <ele>472</ele>
        <time>2017-04-13T14:42:46Z</time>
      </trkpt>
      <trkpt lat="45.80801" lon="4.28836">
        <ele>471</ele>
        <time>2017-04-13T14:42:49Z</time>
      </trkpt>
      <trkpt lat="45.80804" lon="4.28836">
        <ele>471</ele>
        <time>2017-04-13T14:42:51Z</time>
      </trkpt>
      <trkpt lat="45.80807" lon="4.28837">
        <ele>471</ele>
        <time>2017-04-13T14:42:54Z</time>
      </trkpt>
      <trkpt lat="45.8081" lon="4.28837">
        <ele>471</ele>
        <time>2017-04-13T14:42:57Z</time>
      </trkpt>
      <trkpt lat="45.80812" lon="4.28838">
        <ele>470</ele>
        <time>2017-04-13T14:43:00Z</time>
      </trkpt>
      <trkpt lat="45.80815" lon="4.28842">
        <ele>471</ele>
        <time>2017-04-13T14:43:03Z</time>
      </trkpt>
      <trkpt lat="45.80817" lon="4.28844">
        <ele>470</ele>
        <time>2017-04-13T14:43:05Z</time>
      </trkpt>
      <trkpt lat="45.8082" lon="4.28847">
        <ele>470</ele>
        <time>2017-04-13T14:43:08Z</time>
      </trkpt>
      <trkpt lat="45.80822" lon="4.2885">
        <ele>470</ele>
        <time>2017-04-13T14:43:11Z</time>
      </trkpt>
      <trkpt lat="45.80823" lon="4.28852">
        <ele>471</ele>
        <time>2017-04-13T14:43:13Z</time>
      </trkpt>
      <trkpt lat="45.80826" lon="4.28855">
        <ele>471</ele>
        <time>2017-04-13T14:43:16Z</time>
      </trkpt>
      <trkpt lat="45.8083" lon="4.28858">
        <ele>471</ele>
        <time>2017-04-13T14:43:19Z</time>
      </trkpt>
      <trkpt lat="45.80834" lon="4.28862">
        <ele>471</ele>
        <time>2017-04-13T14:43:22Z</time>
      </trkpt>
      <trkpt lat="45.80837" lon="4.28867">
        <ele>471</ele>
        <time>2017-04-13T14:43:25Z</time>
      </trkpt>
      <trkpt lat="45.80839" lon="4.28871">
        <ele>471</ele>
        <time>2017-04-13T14:43:27Z</time>
      </trkpt>
      <trkpt lat="45.80841" lon="4.28876">
        <ele>471</ele>
        <time>2017-04-13T14:43:30Z</time>
      </trkpt>
      <trkpt lat="45.80844" lon="4.28882">
        <ele>470</ele>
        <time>2017-04-13T14:43:33Z</time>
      </trkpt>
      <trkpt lat="45.80777" lon="4.28934">
        <ele>502</ele>
      </trkpt>
      <trkpt lat="45.80744" lon="4.29152">
        <ele>491</ele>
      </trkpt>
      <trkpt lat="45.80587" lon="4.29224">
        <ele>480</ele>
      </trkpt>
      <trkpt lat="45.80548" lon="4.29293">
        <ele>481</ele>
      </trkpt>
      <trkpt lat="45.80519" lon="4.29389">
        <ele>479</ele>
      </trkpt>
      <trkpt lat="45.80385" lon="4.29374">
        <ele>479</ele>
      </trkpt>
      <trkpt lat="45.80312" lon="4.29371">
        <ele>479</ele>
      </trkpt>
      <trkpt lat="45.80201" lon="4.2935">
        <ele>473</ele>
      </trkpt>
      <trkpt lat="45.80199" lon="4.2947">
        <ele>481</ele>
      </trkpt>
      <trkpt lat="45.80241" lon="4.2958">
        <ele>487</ele>
      </trkpt>
      <trkpt lat="45.80305" lon="4.29714">
        <ele>503</ele>
        <time>2017-04-13T15:18:09Z</time>
      </trkpt>
      <trkpt lat="45.8027" lon="4.29865">
        <ele>525</ele>
      </trkpt>
      <trkpt lat="45.80278" lon="4.30184">
        <ele>568</ele>
      </trkpt>
      <trkpt lat="45.80269" lon="4.30428">
        <ele>582</ele>
      </trkpt>
      <trkpt lat="45.80228" lon="4.3061">
        <ele>583</ele>
      </trkpt>
      <trkpt lat="45.80208" lon="4.30696">
        <ele>582</ele>
      </trkpt>
      <trkpt lat="45.80159" lon="4.30801">
        <ele>581</ele>
      </trkpt>
      <trkpt lat="45.80104" lon="4.30895">
        <ele>575</ele>
      </trkpt>
      <trkpt lat="45.80073" lon="4.30987">
        <ele>573</ele>
      </trkpt>
      <trkpt lat="45.80149" lon="4.31154">
        <ele>555</ele>
      </trkpt>
      <trkpt lat="45.80069" lon="4.31225">
        <ele>511</ele>
        <time>2017-04-13T15:42:25Z</time>
      </trkpt>
      <trkpt lat="45.80066" lon="4.31226">
        <ele>511</ele>
        <time>2017-04-13T15:42:27Z</time>
      </trkpt>
      <trkpt lat="45.80063" lon="4.31227">
        <ele>510</ele>
        <time>2017-04-13T15:42:29Z</time>
      </trkpt>
      <trkpt lat="45.80061" lon="4.31228">
        <ele>509</ele>
        <time>2017-04-13T15:42:31Z</time>
      </trkpt>
      <trkpt lat="45.80057" lon="4.31229">
        <ele>509</ele>
        <time>2017-04-13T15:42:34Z</time>
      </trkpt>
      <trkpt lat="45.80054" lon="4.31229">
        <ele>509</ele>
        <time>2017-04-13T15:42:36Z</time>
      </trkpt>
      <trkpt lat="45.80052" lon="4.31229">
        <ele>508</ele>
        <time>2017-04-13T15:42:38Z</time>
      </trkpt>
      <trkpt lat="45.8005" lon="4.3123">
        <ele>508</ele>
        <time>2017-04-13T15:42:40Z</time>
      </trkpt>
      <trkpt lat="45.80047" lon="4.31231">
        <ele>508</ele>
        <time>2017-04-13T15:42:42Z</time>
      </trkpt>
      <trkpt lat="45.80045" lon="4.31231">
        <ele>507</ele>
        <time>2017-04-13T15:42:44Z</time>
      </trkpt>
      <trkpt lat="45.80042" lon="4.31231">
        <ele>507</ele>
        <time>2017-04-13T15:42:47Z</time>
      </trkpt>
      <trkpt lat="45.80037" lon="4.31233">
        <ele>507</ele>
        <time>2017-04-13T15:42:50Z</time>
      </trkpt>
      <trkpt lat="45.80035" lon="4.31234">
        <ele>507</ele>
        <time>2017-04-13T15:42:53Z</time>
      </trkpt>
      <trkpt lat="45.80032" lon="4.31235">
        <ele>506</ele>
        <time>2017-04-13T15:42:55Z</time>
      </trkpt>
      <trkpt lat="45.80029" lon="4.31236">
        <ele>506</ele>
        <time>2017-04-13T15:42:57Z</time>
      </trkpt>
      <trkpt lat="45.80027" lon="4.31237">
        <ele>506</ele>
        <time>2017-04-13T15:42:59Z</time>
      </trkpt>
      <trkpt lat="45.80021" lon="4.31239">
        <ele>506</ele>
        <time>2017-04-13T15:43:02Z</time>
      </trkpt>
      <trkpt lat="45.80019" lon="4.31239">
        <ele>506</ele>
        <time>2017-04-13T15:43:04Z</time>
      </trkpt>
      <trkpt lat="45.80016" lon="4.3124">
        <ele>505</ele>
        <time>2017-04-13T15:43:06Z</time>
      </trkpt>
      <trkpt lat="45.80012" lon="4.31242">
        <ele>505</ele>
        <time>2017-04-13T15:43:09Z</time>
      </trkpt>
      <trkpt lat="45.80009" lon="4.31242">
        <ele>505</ele>
        <time>2017-04-13T15:43:11Z</time>
      </trkpt>
      <trkpt lat="45.80006" lon="4.31244">
        <ele>505</ele>
        <time>2017-04-13T15:43:13Z</time>
      </trkpt>
      <trkpt lat="45.80003" lon="4.31246">
        <ele>505</ele>
        <time>2017-04-13T15:43:16Z</time>
      </trkpt>
      <trkpt lat="45.8" lon="4.31247">
        <ele>505</ele>
        <time>2017-04-13T15:43:18Z</time>
      </trkpt>
      <trkpt lat="45.79996" lon="4.31249">
        <ele>504</ele>
        <time>2017-04-13T15:43:21Z</time>
      </trkpt>
      <trkpt lat="45.79993" lon="4.31249">
        <ele>504</ele>
        <time>2017-04-13T15:43:23Z</time>
      </trkpt>
      <trkpt lat="45.7999" lon="4.31249">
        <ele>503</ele>
        <time>2017-04-13T15:43:25Z</time>
      </trkpt>
      <trkpt lat="45.79987" lon="4.3125">
        <ele>503</ele>
        <time>2017-04-13T15:43:27Z</time>
      </trkpt>
      <trkpt lat="45.79983" lon="4.3125">
        <ele>503</ele>
        <time>2017-04-13T15:43:30Z</time>
      </trkpt>
      <trkpt lat="45.79978" lon="4.31251">
        <ele>503</ele>
        <time>2017-04-13T15:43:33Z</time>
      </trkpt>
      <trkpt lat="45.79973" lon="4.3125">
        <ele>503</ele>
        <time>2017-04-13T15:43:36Z</time>
      </trkpt>
      <trkpt lat="45.79971" lon="4.3125">
        <ele>502</ele>
        <time>2017-04-13T15:43:38Z</time>
      </trkpt>
      <trkpt lat="45.79969" lon="4.31251">
        <ele>502</ele>
        <time>2017-04-13T15:43:40Z</time>
      </trkpt>
      <trkpt lat="45.79966" lon="4.31251">
        <ele>501</ele>
        <time>2017-04-13T15:43:43Z</time>
      </trkpt>
      <trkpt lat="45.79964" lon="4.31252">
        <ele>501</ele>
        <time>2017-04-13T15:43:45Z</time>
      </trkpt>
      <trkpt lat="45.79963" lon="4.31252">
        <ele>501</ele>
        <time>2017-04-13T15:43:47Z</time>
      </trkpt>
      <trkpt lat="45.79959" lon="4.31254">
        <ele>501</ele>
        <time>2017-04-13T15:43:50Z</time>
      </trkpt>
      <trkpt lat="45.79956" lon="4.31254">
        <ele>500</ele>
        <time>2017-04-13T15:43:52Z</time>
      </trkpt>
      <trkpt lat="45.79955" lon="4.31255">
        <ele>500</ele>
        <time>2017-04-13T15:43:55Z</time>
      </trkpt>
      <trkpt lat="45.79953" lon="4.31255">
        <ele>500</ele>
        <time>2017-04-13T15:43:57Z</time>
      </trkpt>
      <trkpt lat="45.79949" lon="4.31255">
        <ele>501</ele>
        <time>2017-04-13T15:44:00Z</time>
      </trkpt>
      <trkpt lat="45.79946" lon="4.31256">
        <ele>501</ele>
        <time>2017-04-13T15:44:02Z</time>
      </trkpt>
      <trkpt lat="45.79944" lon="4.31256">
        <ele>501</ele>
        <time>2017-04-13T15:44:04Z</time>
      </trkpt>
      <trkpt lat="45.79942" lon="4.31255">
        <ele>501</ele>
        <time>2017-04-13T15:44:06Z</time>
      </trkpt>
      <trkpt lat="45.7994" lon="4.31255">
        <ele>501</ele>
        <time>2017-04-13T15:44:08Z</time>
      </trkpt>
      <trkpt lat="45.7994" lon="4.31254">
        <ele>501</ele>
        <time>2017-04-13T15:44:10Z</time>
      </trkpt>
      <trkpt lat="45.79938" lon="4.31255">
        <ele>501</ele>
        <time>2017-04-13T15:44:13Z</time>
      </trkpt>
      <trkpt lat="45.79938" lon="4.31255">
        <ele>501</ele>
        <time>2017-04-13T15:44:15Z</time>
      </trkpt>
      <trkpt lat="45.79937" lon="4.31256">
        <ele>500</ele>
        <time>2017-04-13T15:44:17Z</time>
      </trkpt>
      <trkpt lat="45.79936" lon="4.31257">
        <ele>500</ele>
        <time>2017-04-13T15:44:20Z</time>
      </trkpt>
      <trkpt lat="45.79935" lon="4.31258">
        <ele>500</ele>
        <time>2017-04-13T15:44:22Z</time>
      </trkpt>
      <trkpt lat="45.79933" lon="4.31259">
        <ele>500</ele>
        <time>2017-04-13T15:44:25Z</time>
      </trkpt>
      <trkpt lat="45.79931" lon="4.3126">
        <ele>500</ele>
        <time>2017-04-13T15:44:27Z</time>
      </trkpt>
      <trkpt lat="45.79929" lon="4.31262">
        <ele>500</ele>
        <time>2017-04-13T15:44:29Z</time>
      </trkpt>
      <trkpt lat="45.79927" lon="4.31263">
        <ele>500</ele>
        <time>2017-04-13T15:44:31Z</time>
      </trkpt>
      <trkpt lat="45.79926" lon="4.31265">
        <ele>499</ele>
        <time>2017-04-13T15:44:33Z</time>
      </trkpt>
      <trkpt lat="45.79923" lon="4.31267">
        <ele>499</ele>
        <time>2017-04-13T15:44:36Z</time>
      </trkpt>
      <trkpt lat="45.79921" lon="4.31268">
        <ele>499</ele>
        <time>2017-04-13T15:44:38Z</time>
      </trkpt>
      <trkpt lat="45.79918" lon="4.31269">
        <ele>499</ele>
        <time>2017-04-13T15:44:40Z</time>
      </trkpt>
      <trkpt lat="45.79914" lon="4.31271">
        <ele>499</ele>
        <time>2017-04-13T15:44:43Z</time>
      </trkpt>
      <trkpt lat="45.79912" lon="4.31272">
        <ele>499</ele>
        <time>2017-04-13T15:44:45Z</time>
      </trkpt>
      <trkpt lat="45.7991" lon="4.31272">
        <ele>499</ele>
        <time>2017-04-13T15:44:47Z</time>
      </trkpt>
      <trkpt lat="45.79907" lon="4.31273">
        <ele>499</ele>
        <time>2017-04-13T15:44:49Z</time>
      </trkpt>
      <trkpt lat="45.79904" lon="4.31273">
        <ele>499</ele>
        <time>2017-04-13T15:44:52Z</time>
      </trkpt>
      <trkpt lat="45.79901" lon="4.31273">
        <ele>499</ele>
        <time>2017-04-13T15:44:54Z</time>
      </trkpt>
      <trkpt lat="45.79896" lon="4.31273">
        <ele>499</ele>
        <time>2017-04-13T15:44:57Z</time>
      </trkpt>
      <trkpt lat="45.79892" lon="4.31273">
        <ele>499</ele>
        <time>2017-04-13T15:44:59Z</time>
      </trkpt>
      <trkpt lat="45.79887" lon="4.31272">
        <ele>499</ele>
        <time>2017-04-13T15:45:02Z</time>
      </trkpt>
      <trkpt lat="45.79882" lon="4.31271">
        <ele>498</ele>
        <time>2017-04-13T15:45:05Z</time>
      </trkpt>
      <trkpt lat="45.79878" lon="4.31272">
        <ele>498</ele>
        <time>2017-04-13T15:45:07Z</time>
      </trkpt>
      <trkpt lat="45.79875" lon="4.31272">
        <ele>498</ele>
        <time>2017-04-13T15:45:09Z</time>
      </trkpt>
      <trkpt lat="45.79871" lon="4.31272">
        <ele>498</ele>
        <time>2017-04-13T15:45:12Z</time>
      </trkpt>
      <trkpt lat="45.79867" lon="4.31272">
        <ele>498</ele>
        <time>2017-04-13T15:45:14Z</time>
      </trkpt>
      <trkpt lat="45.79862" lon="4.31273">
        <ele>498</ele>
        <time>2017-04-13T15:45:17Z</time>
      </trkpt>
      <trkpt lat="45.79858" lon="4.31275">
        <ele>498</ele>
        <time>2017-04-13T15:45:19Z</time>
      </trkpt>
      <trkpt lat="45.79855" lon="4.31275">
        <ele>497</ele>
        <time>2017-04-13T15:45:21Z</time>
      </trkpt>
      <trkpt lat="45.79851" lon="4.31277">
        <ele>497</ele>
        <time>2017-04-13T15:45:24Z</time>
      </trkpt>
      <trkpt lat="45.79846" lon="4.31278">
        <ele>496</ele>
        <time>2017-04-13T15:45:27Z</time>
      </trkpt>
      <trkpt lat="45.79842" lon="4.3128">
        <ele>495</ele>
        <time>2017-04-13T15:45:30Z</time>
      </trkpt>
      <trkpt lat="45.79839" lon="4.3128">
        <ele>495</ele>
        <time>2017-04-13T15:45:32Z</time>
      </trkpt>
      <trkpt lat="45.79836" lon="4.3128">
        <ele>495</ele>
        <time>2017-04-13T15:45:34Z</time>
      </trkpt>
      <trkpt lat="45.79831" lon="4.3128">
        <ele>495</ele>
        <time>2017-04-13T15:45:37Z</time>
      </trkpt>
      <trkpt lat="45.79828" lon="4.31281">
        <ele>494</ele>
        <time>2017-04-13T15:45:39Z</time>
      </trkpt>
      <trkpt lat="45.79823" lon="4.31283">
        <ele>494</ele>
        <time>2017-04-13T15:45:42Z</time>
      </trkpt>
      <trkpt lat="45.79819" lon="4.31285">
        <ele>494</ele>
        <time>2017-04-13T15:45:45Z</time>
      </trkpt>
      <trkpt lat="45.79816" lon="4.31285">
        <ele>493</ele>
        <time>2017-04-13T15:45:47Z</time>
      </trkpt>
      <trkpt lat="45.79812" lon="4.31286">
        <ele>493</ele>
        <time>2017-04-13T15:45:49Z</time>
      </trkpt>
      <trkpt lat="45.79809" lon="4.31286">
        <ele>493</ele>
        <time>2017-04-13T15:45:51Z</time>
      </trkpt>
      <trkpt lat="45.79805" lon="4.31286">
        <ele>493</ele>
        <time>2017-04-13T15:45:54Z</time>
      </trkpt>
      <trkpt lat="45.798" lon="4.31287">
        <ele>492</ele>
        <time>2017-04-13T15:45:57Z</time>
      </trkpt>
      <trkpt lat="45.79796" lon="4.31288">
        <ele>492</ele>
        <time>2017-04-13T15:46:00Z</time>
      </trkpt>
      <trkpt lat="45.79791" lon="4.31288">
        <ele>492</ele>
        <time>2017-04-13T15:46:03Z</time>
      </trkpt>
      <trkpt lat="45.79788" lon="4.31288">
        <ele>492</ele>
        <time>2017-04-13T15:46:05Z</time>
      </trkpt>
      <trkpt lat="45.79786" lon="4.31288">
        <ele>492</ele>
        <time>2017-04-13T15:46:07Z</time>
      </trkpt>
      <trkpt lat="45.79783" lon="4.31288">
        <ele>492</ele>
        <time>2017-04-13T15:46:09Z</time>
      </trkpt>
      <trkpt lat="45.79779" lon="4.31288">
        <ele>492</ele>
        <time>2017-04-13T15:46:12Z</time>
      </trkpt>
      <trkpt lat="45.79776" lon="4.31288">
        <ele>492</ele>
        <time>2017-04-13T15:46:14Z</time>
      </trkpt>
      <trkpt lat="45.79773" lon="4.31287">
        <ele>492</ele>
        <time>2017-04-13T15:46:16Z</time>
      </trkpt>
      <trkpt lat="45.79768" lon="4.31287">
        <ele>493</ele>
        <time>2017-04-13T15:46:19Z</time>
      </trkpt>
      <trkpt lat="45.79764" lon="4.31286">
        <ele>493</ele>
        <time>2017-04-13T15:46:22Z</time>
      </trkpt>
      <trkpt lat="45.7976" lon="4.31285">
        <ele>493</ele>
        <time>2017-04-13T15:46:25Z</time>
      </trkpt>
      <trkpt lat="45.79757" lon="4.31285">
        <ele>493</ele>
        <time>2017-04-13T15:46:27Z</time>
      </trkpt>
      <trkpt lat="45.79753" lon="4.31285">
        <ele>493</ele>
        <time>2017-04-13T15:46:30Z</time>
      </trkpt>
      <trkpt lat="45.79749" lon="4.31286">
        <ele>492</ele>
        <time>2017-04-13T15:46:33Z</time>
      </trkpt>
      <trkpt lat="45.79745" lon="4.31287">
        <ele>492</ele>
        <time>2017-04-13T15:46:36Z</time>
      </trkpt>
      <trkpt lat="45.79741" lon="4.31288">
        <ele>492</ele>
        <time>2017-04-13T15:46:38Z</time>
      </trkpt>
      <trkpt lat="45.79736" lon="4.31288">
        <ele>493</ele>
        <time>2017-04-13T15:46:41Z</time>
      </trkpt>
      <trkpt lat="45.79734" lon="4.31288">
        <ele>493</ele>
        <time>2017-04-13T15:46:43Z</time>
      </trkpt>
      <trkpt lat="45.79731" lon="4.31289">
        <ele>493</ele>
        <time>2017-04-13T15:46:45Z</time>
      </trkpt>
      <trkpt lat="45.79728" lon="4.31289">
        <ele>493</ele>
        <time>2017-04-13T15:46:47Z</time>
      </trkpt>
      <trkpt lat="45.79726" lon="4.31289">
        <ele>494</ele>
        <time>2017-04-13T15:46:49Z</time>
      </trkpt>
      <trkpt lat="45.79722" lon="4.3129">
        <ele>494</ele>
        <time>2017-04-13T15:46:52Z</time>
      </trkpt>
      <trkpt lat="45.79719" lon="4.31292">
        <ele>494</ele>
        <time>2017-04-13T15:46:54Z</time>
      </trkpt>
      <trkpt lat="45.79716" lon="4.31292">
        <ele>494</ele>
        <time>2017-04-13T15:46:56Z</time>
      </trkpt>
      <trkpt lat="45.79713" lon="4.31293">
        <ele>494</ele>
        <time>2017-04-13T15:46:58Z</time>
      </trkpt>
      <trkpt lat="45.79711" lon="4.31293">
        <ele>494</ele>
        <time>2017-04-13T15:47:00Z</time>
      </trkpt>
      <trkpt lat="45.79707" lon="4.31294">
        <ele>494</ele>
        <time>2017-04-13T15:47:03Z</time>
      </trkpt>
      <trkpt lat="45.79704" lon="4.31294">
        <ele>494</ele>
        <time>2017-04-13T15:47:05Z</time>
      </trkpt>
      <trkpt lat="45.79702" lon="4.31296">
        <ele>494</ele>
        <time>2017-04-13T15:47:07Z</time>
      </trkpt>
      <trkpt lat="45.79697" lon="4.31297">
        <ele>494</ele>
        <time>2017-04-13T15:47:10Z</time>
      </trkpt>
      <trkpt lat="45.79695" lon="4.31297">
        <ele>494</ele>
        <time>2017-04-13T15:47:12Z</time>
      </trkpt>
      <trkpt lat="45.79692" lon="4.31298">
        <ele>494</ele>
        <time>2017-04-13T15:47:14Z</time>
      </trkpt>
      <trkpt lat="45.79689" lon="4.31299">
        <ele>494</ele>
        <time>2017-04-13T15:47:16Z</time>
      </trkpt>
      <trkpt lat="45.79685" lon="4.313">
        <ele>494</ele>
        <time>2017-04-13T15:47:18Z</time>
      </trkpt>
      <trkpt lat="45.79683" lon="4.31301">
        <ele>494</ele>
        <time>2017-04-13T15:47:20Z</time>
      </trkpt>
      <trkpt lat="45.7968" lon="4.31301">
        <ele>494</ele>
        <time>2017-04-13T15:47:22Z</time>
      </trkpt>
      <trkpt lat="45.79676" lon="4.31303">
        <ele>494</ele>
        <time>2017-04-13T15:47:25Z</time>
      </trkpt>
      <trkpt lat="45.79673" lon="4.31304">
        <ele>493</ele>
        <time>2017-04-13T15:47:27Z</time>
      </trkpt>
      <trkpt lat="45.79671" lon="4.31305">
        <ele>493</ele>
        <time>2017-04-13T15:47:29Z</time>
      </trkpt>
      <trkpt lat="45.79668" lon="4.31306">
        <ele>493</ele>
        <time>2017-04-13T15:47:31Z</time>
      </trkpt>
      <trkpt lat="45.79665" lon="4.31307">
        <ele>493</ele>
        <time>2017-04-13T15:47:33Z</time>
      </trkpt>
      <trkpt lat="45.79662" lon="4.31307">
        <ele>493</ele>
        <time>2017-04-13T15:47:35Z</time>
      </trkpt>
      <trkpt lat="45.7966" lon="4.31308">
        <ele>493</ele>
        <time>2017-04-13T15:47:37Z</time>
      </trkpt>
      <trkpt lat="45.79655" lon="4.3131">
        <ele>493</ele>
        <time>2017-04-13T15:47:40Z</time>
      </trkpt>
      <trkpt lat="45.79651" lon="4.31312">
        <ele>492</ele>
        <time>2017-04-13T15:47:43Z</time>
      </trkpt>
      <trkpt lat="45.79647" lon="4.31315">
        <ele>493</ele>
        <time>2017-04-13T15:47:46Z</time>
      </trkpt>
      <trkpt lat="45.79645" lon="4.31316">
        <ele>493</ele>
        <time>2017-04-13T15:47:48Z</time>
      </trkpt>
      <trkpt lat="45.79642" lon="4.31318">
        <ele>493</ele>
        <time>2017-04-13T15:47:50Z</time>
      </trkpt>
      <trkpt lat="45.79639" lon="4.31319">
        <ele>493</ele>
        <time>2017-04-13T15:47:53Z</time>
      </trkpt>
      <trkpt lat="45.79634" lon="4.31321">
        <ele>492</ele>
        <time>2017-04-13T15:47:56Z</time>
      </trkpt>
      <trkpt lat="45.79632" lon="4.31322">
        <ele>492</ele>
        <time>2017-04-13T15:47:58Z</time>
      </trkpt>
      <trkpt lat="45.79628" lon="4.31323">
        <ele>492</ele>
        <time>2017-04-13T15:48:01Z</time>
      </trkpt>
      <trkpt lat="45.79624" lon="4.31324">
        <ele>492</ele>
        <time>2017-04-13T15:48:04Z</time>
      </trkpt>
      <trkpt lat="45.79622" lon="4.31325">
        <ele>492</ele>
        <time>2017-04-13T15:48:06Z</time>
      </trkpt>
      <trkpt lat="45.79619" lon="4.31326">
        <ele>491</ele>
        <time>2017-04-13T15:48:09Z</time>
      </trkpt>
      <trkpt lat="45.79616" lon="4.31327">
        <ele>491</ele>
        <time>2017-04-13T15:48:11Z</time>
      </trkpt>
      <trkpt lat="45.79612" lon="4.31329">
        <ele>491</ele>
        <time>2017-04-13T15:48:14Z</time>
      </trkpt>
      <trkpt lat="45.7961" lon="4.31331">
        <ele>491</ele>
        <time>2017-04-13T15:48:16Z</time>
      </trkpt>
      <trkpt lat="45.79607" lon="4.31333">
        <ele>490</ele>
        <time>2017-04-13T15:48:18Z</time>
      </trkpt>
      <trkpt lat="45.79604" lon="4.31334">
        <ele>490</ele>
        <time>2017-04-13T15:48:20Z</time>
      </trkpt>
      <trkpt lat="45.79602" lon="4.31335">
        <ele>490</ele>
        <time>2017-04-13T15:48:22Z</time>
      </trkpt>
      <trkpt lat="45.79599" lon="4.31336">
        <ele>490</ele>
        <time>2017-04-13T15:48:24Z</time>
      </trkpt>
      <trkpt lat="45.79594" lon="4.31337">
        <ele>489</ele>
        <time>2017-04-13T15:48:27Z</time>
      </trkpt>
      <trkpt lat="45.79592" lon="4.31338">
        <ele>489</ele>
        <time>2017-04-13T15:48:29Z</time>
      </trkpt>
      <trkpt lat="45.79589" lon="4.31339">
        <ele>489</ele>
        <time>2017-04-13T15:48:31Z</time>
      </trkpt>
      <trkpt lat="45.79586" lon="4.3134">
        <ele>489</ele>
        <time>2017-04-13T15:48:33Z</time>
      </trkpt>
      <trkpt lat="45.79582" lon="4.31342">
        <ele>488</ele>
        <time>2017-04-13T15:48:36Z</time>
      </trkpt>
      <trkpt lat="45.79579" lon="4.31343">
        <ele>488</ele>
        <time>2017-04-13T15:48:38Z</time>
      </trkpt>
      <trkpt lat="45.79576" lon="4.31345">
        <ele>488</ele>
        <time>2017-04-13T15:48:40Z</time>
      </trkpt>
      <trkpt lat="45.79573" lon="4.31346">
        <ele>487</ele>
        <time>2017-04-13T15:48:43Z</time>
      </trkpt>
      <trkpt lat="45.79569" lon="4.31347">
        <ele>487</ele>
        <time>2017-04-13T15:48:46Z</time>
      </trkpt>
      <trkpt lat="45.79567" lon="4.31348">
        <ele>487</ele>
        <time>2017-04-13T15:48:48Z</time>
      </trkpt>
      <trkpt lat="45.79564" lon="4.31348">
        <ele>487</ele>
        <time>2017-04-13T15:48:50Z</time>
      </trkpt>
      <trkpt lat="45.7956" lon="4.31349">
        <ele>486</ele>
        <time>2017-04-13T15:48:53Z</time>
      </trkpt>
      <trkpt lat="45.79557" lon="4.3135">
        <ele>486</ele>
        <time>2017-04-13T15:48:55Z</time>
      </trkpt>
      <trkpt lat="45.79555" lon="4.3135">
        <ele>486</ele>
        <time>2017-04-13T15:48:57Z</time>
      </trkpt>
      <trkpt lat="45.79553" lon="4.31351">
        <ele>486</ele>
        <time>2017-04-13T15:48:59Z</time>
      </trkpt>
      <trkpt lat="45.79549" lon="4.31352">
        <ele>485</ele>
        <time>2017-04-13T15:49:02Z</time>
      </trkpt>
      <trkpt lat="45.79547" lon="4.31352">
        <ele>485</ele>
        <time>2017-04-13T15:49:04Z</time>
      </trkpt>
      <trkpt lat="45.79544" lon="4.31352">
        <ele>484</ele>
        <time>2017-04-13T15:49:07Z</time>
      </trkpt>
      <trkpt lat="45.79541" lon="4.31353">
        <ele>484</ele>
        <time>2017-04-13T15:49:10Z</time>
      </trkpt>
      <trkpt lat="45.79539" lon="4.31353">
        <ele>484</ele>
        <time>2017-04-13T15:49:12Z</time>
      </trkpt>
      <trkpt lat="45.79537" lon="4.31354">
        <ele>484</ele>
        <time>2017-04-13T15:49:14Z</time>
      </trkpt>
      <trkpt lat="45.79535" lon="4.31354">
        <ele>483</ele>
        <time>2017-04-13T15:49:16Z</time>
      </trkpt>
      <trkpt lat="45.79531" lon="4.31355">
        <ele>483</ele>
        <time>2017-04-13T15:49:19Z</time>
      </trkpt>
      <trkpt lat="45.79529" lon="4.31355">
        <ele>482</ele>
        <time>2017-04-13T15:49:21Z</time>
      </trkpt>
      <trkpt lat="45.79525" lon="4.31357">
        <ele>481</ele>
        <time>2017-04-13T15:49:24Z</time>
      </trkpt>
      <trkpt lat="45.79523" lon="4.31359">
        <ele>481</ele>
        <time>2017-04-13T15:49:26Z</time>
      </trkpt>
      <trkpt lat="45.7952" lon="4.3136">
        <ele>480</ele>
        <time>2017-04-13T15:49:28Z</time>
      </trkpt>
      <trkpt lat="45.79518" lon="4.31361">
        <ele>480</ele>
        <time>2017-04-13T15:49:30Z</time>
      </trkpt>
      <trkpt lat="45.79514" lon="4.31363">
        <ele>479</ele>
        <time>2017-04-13T15:49:33Z</time>
      </trkpt>
      <trkpt lat="45.7951" lon="4.31364">
        <ele>479</ele>
        <time>2017-04-13T15:49:36Z</time>
      </trkpt>
      <trkpt lat="45.79506" lon="4.31365">
        <ele>479</ele>
        <time>2017-04-13T15:49:39Z</time>
      </trkpt>
      <trkpt lat="45.79504" lon="4.31365">
        <ele>479</ele>
        <time>2017-04-13T15:49:41Z</time>
      </trkpt>
      <trkpt lat="45.79499" lon="4.31365">
        <ele>478</ele>
        <time>2017-04-13T15:49:44Z</time>
      </trkpt>
      <trkpt lat="45.79496" lon="4.31364">
        <ele>478</ele>
        <time>2017-04-13T15:49:47Z</time>
      </trkpt>
      <trkpt lat="45.79492" lon="4.31363">
        <ele>478</ele>
        <time>2017-04-13T15:49:50Z</time>
      </trkpt>
      <trkpt lat="45.79488" lon="4.31363">
        <ele>478</ele>
        <time>2017-04-13T15:49:53Z</time>
      </trkpt>
      <trkpt lat="45.79484" lon="4.31363">
        <ele>478</ele>
        <time>2017-04-13T15:49:56Z</time>
      </trkpt>
      <trkpt lat="45.79481" lon="4.31363">
        <ele>479</ele>
        <time>2017-04-13T15:49:58Z</time>
      </trkpt>
      <trkpt lat="45.79477" lon="4.31363">
        <ele>479</ele>
        <time>2017-04-13T15:50:01Z</time>
      </trkpt>
      <trkpt lat="45.79475" lon="4.31363">
        <ele>479</ele>
        <time>2017-04-13T15:50:03Z</time>
      </trkpt>
      <trkpt lat="45.79472" lon="4.31363">
        <ele>479</ele>
        <time>2017-04-13T15:50:05Z</time>
      </trkpt>
      <trkpt lat="45.79468" lon="4.31361">
        <ele>479</ele>
        <time>2017-04-13T15:50:08Z</time>
      </trkpt>
      <trkpt lat="45.79466" lon="4.3136">
        <ele>479</ele>
        <time>2017-04-13T15:50:10Z</time>
      </trkpt>
      <trkpt lat="45.79462" lon="4.31358">
        <ele>479</ele>
        <time>2017-04-13T15:50:13Z</time>
      </trkpt>
      <trkpt lat="45.7946" lon="4.31358">
        <ele>480</ele>
        <time>2017-04-13T15:50:15Z</time>
      </trkpt>
      <trkpt lat="45.79457" lon="4.31357">
        <ele>479</ele>
        <time>2017-04-13T15:50:17Z</time>
      </trkpt>
      <trkpt lat="45.79455" lon="4.31356">
        <ele>480</ele>
        <time>2017-04-13T15:50:19Z</time>
      </trkpt>
      <trkpt lat="45.79452" lon="4.31355">
        <ele>480</ele>
        <time>2017-04-13T15:50:21Z</time>
      </trkpt>
      <trkpt lat="45.79448" lon="4.31354">
        <ele>480</ele>
        <time>2017-04-13T15:50:24Z</time>
      </trkpt>
      <trkpt lat="45.79445" lon="4.31353">
        <ele>481</ele>
        <time>2017-04-13T15:50:26Z</time>
      </trkpt>
      <trkpt lat="45.79441" lon="4.31352">
        <ele>481</ele>
        <time>2017-04-13T15:50:29Z</time>
      </trkpt>
      <trkpt lat="45.79438" lon="4.3135">
        <ele>482</ele>
        <time>2017-04-13T15:50:32Z</time>
      </trkpt>
      <trkpt lat="45.79435" lon="4.31348">
        <ele>482</ele>
        <time>2017-04-13T15:50:35Z</time>
      </trkpt>
      <trkpt lat="45.79432" lon="4.31346">
        <ele>482</ele>
        <time>2017-04-13T15:50:38Z</time>
      </trkpt>
      <trkpt lat="45.7943" lon="4.31345">
        <ele>482</ele>
        <time>2017-04-13T15:50:40Z</time>
      </trkpt>
      <trkpt lat="45.79427" lon="4.31344">
        <ele>483</ele>
        <time>2017-04-13T15:50:43Z</time>
      </trkpt>
      <trkpt lat="45.79425" lon="4.31343">
        <ele>483</ele>
        <time>2017-04-13T15:50:45Z</time>
      </trkpt>
      <trkpt lat="45.79423" lon="4.31342">
        <ele>483</ele>
        <time>2017-04-13T15:50:47Z</time>
      </trkpt>
      <trkpt lat="45.7942" lon="4.31341">
        <ele>483</ele>
        <time>2017-04-13T15:50:50Z</time>
      </trkpt>
      <trkpt lat="45.79417" lon="4.31341">
        <ele>483</ele>
        <time>2017-04-13T15:50:53Z</time>
      </trkpt>
      <trkpt lat="45.79416" lon="4.31341">
        <ele>482</ele>
        <time>2017-04-13T15:50:55Z</time>
      </trkpt>
      <trkpt lat="45.79415" lon="4.3134">
        <ele>482</ele>
        <time>2017-04-13T15:50:57Z</time>
      </trkpt>
      <trkpt lat="45.79412" lon="4.31341">
        <ele>481</ele>
        <time>2017-04-13T15:51:00Z</time>
      </trkpt>
      <trkpt lat="45.79411" lon="4.31341">
        <ele>481</ele>
        <time>2017-04-13T15:51:02Z</time>
      </trkpt>
      <trkpt lat="45.7941" lon="4.31341">
        <ele>481</ele>
        <time>2017-04-13T15:51:04Z</time>
      </trkpt>
      <trkpt lat="45.79407" lon="4.31341">
        <ele>480</ele>
        <time>2017-04-13T15:51:07Z</time>
      </trkpt>
      <trkpt lat="45.79405" lon="4.3134">
        <ele>479</ele>
        <time>2017-04-13T15:51:10Z</time>
      </trkpt>
      <trkpt lat="45.79403" lon="4.31341">
        <ele>479</ele>
        <time>2017-04-13T15:51:12Z</time>
      </trkpt>
      <trkpt lat="45.79402" lon="4.31342">
        <ele>479</ele>
        <time>2017-04-13T15:51:14Z</time>
      </trkpt>
      <trkpt lat="45.79401" lon="4.31342">
        <ele>478</ele>
        <time>2017-04-13T15:51:16Z</time>
      </trkpt>
      <trkpt lat="45.79399" lon="4.31342">
        <ele>478</ele>
        <time>2017-04-13T15:51:18Z</time>
      </trkpt>
      <trkpt lat="45.79397" lon="4.31343">
        <ele>477</ele>
        <time>2017-04-13T15:51:21Z</time>
      </trkpt>
      <trkpt lat="45.79396" lon="4.31343">
        <ele>477</ele>
        <time>2017-04-13T15:51:23Z</time>
      </trkpt>
      <trkpt lat="45.79394" lon="4.31344">
        <ele>476</ele>
        <time>2017-04-13T15:51:26Z</time>
      </trkpt>
      <trkpt lat="45.79393" lon="4.31344">
        <ele>476</ele>
        <time>2017-04-13T15:51:28Z</time>
      </trkpt>
      <trkpt lat="45.79391" lon="4.31345">
        <ele>475</ele>
        <time>2017-04-13T15:51:31Z</time>
      </trkpt>
      <trkpt lat="45.7939" lon="4.31345">
        <ele>475</ele>
        <time>2017-04-13T15:51:34Z</time>
      </trkpt>
      <trkpt lat="45.79388" lon="4.31345">
        <ele>475</ele>
        <time>2017-04-13T15:51:36Z</time>
      </trkpt>
      <trkpt lat="45.79387" lon="4.31345">
        <ele>475</ele>
        <time>2017-04-13T15:51:38Z</time>
      </trkpt>
      <trkpt lat="45.79385" lon="4.31346">
        <ele>474</ele>
        <time>2017-04-13T15:51:41Z</time>
      </trkpt>
      <trkpt lat="45.79384" lon="4.31347">
        <ele>473</ele>
        <time>2017-04-13T15:51:43Z</time>
      </trkpt>
      <trkpt lat="45.79381" lon="4.31348">
        <ele>473</ele>
        <time>2017-04-13T15:51:46Z</time>
      </trkpt>
      <trkpt lat="45.79379" lon="4.31349">
        <ele>472</ele>
        <time>2017-04-13T15:51:49Z</time>
      </trkpt>
      <trkpt lat="45.79377" lon="4.31349">
        <ele>471</ele>
        <time>2017-04-13T15:51:51Z</time>
      </trkpt>
      <trkpt lat="45.79375" lon="4.3135">
        <ele>471</ele>
        <time>2017-04-13T15:51:53Z</time>
      </trkpt>
      <trkpt lat="45.79372" lon="4.31351">
        <ele>470</ele>
        <time>2017-04-13T15:51:56Z</time>
      </trkpt>
      <trkpt lat="45.7937" lon="4.31352">
        <ele>470</ele>
        <time>2017-04-13T15:51:58Z</time>
      </trkpt>
      <trkpt lat="45.79368" lon="4.31353">
        <ele>469</ele>
        <time>2017-04-13T15:52:01Z</time>
      </trkpt>
      <trkpt lat="45.79366" lon="4.31354">
        <ele>469</ele>
        <time>2017-04-13T15:52:03Z</time>
      </trkpt>
      <trkpt lat="45.79364" lon="4.31355">
        <ele>469</ele>
        <time>2017-04-13T15:52:05Z</time>
      </trkpt>
      <trkpt lat="45.79361" lon="4.31355">
        <ele>468</ele>
        <time>2017-04-13T15:52:07Z</time>
      </trkpt>
      <trkpt lat="45.79359" lon="4.31356">
        <ele>469</ele>
        <time>2017-04-13T15:52:10Z</time>
      </trkpt>
      <trkpt lat="45.79355" lon="4.31357">
        <ele>468</ele>
        <time>2017-04-13T15:52:13Z</time>
      </trkpt>
      <trkpt lat="45.79353" lon="4.31358">
        <ele>468</ele>
        <time>2017-04-13T15:52:15Z</time>
      </trkpt>
      <trkpt lat="45.7935" lon="4.31359">
        <ele>469</ele>
        <time>2017-04-13T15:52:18Z</time>
      </trkpt>
      <trkpt lat="45.79348" lon="4.31359">
        <ele>468</ele>
        <time>2017-04-13T15:52:20Z</time>
      </trkpt>
      <trkpt lat="45.79344" lon="4.3136">
        <ele>468</ele>
        <time>2017-04-13T15:52:23Z</time>
      </trkpt>
      <trkpt lat="45.7934" lon="4.31359">
        <ele>468</ele>
        <time>2017-04-13T15:52:25Z</time>
      </trkpt>
      <trkpt lat="45.79337" lon="4.31359">
        <ele>468</ele>
        <time>2017-04-13T15:52:27Z</time>
      </trkpt>
      <trkpt lat="45.79333" lon="4.3136">
        <ele>468</ele>
        <time>2017-04-13T15:52:30Z</time>
      </trkpt>
      <trkpt lat="45.79329" lon="4.31361">
        <ele>468</ele>
        <time>2017-04-13T15:52:33Z</time>
      </trkpt>
      <trkpt lat="45.79326" lon="4.31363">
        <ele>468</ele>
        <time>2017-04-13T15:52:35Z</time>
      </trkpt>
      <trkpt lat="45.79323" lon="4.31364">
        <ele>468</ele>
        <time>2017-04-13T15:52:37Z</time>
      </trkpt>
      <trkpt lat="45.79319" lon="4.31365">
        <ele>468</ele>
        <time>2017-04-13T15:52:40Z</time>
      </trkpt>
      <trkpt lat="45.79317" lon="4.31366">
        <ele>467</ele>
        <time>2017-04-13T15:52:42Z</time>
      </trkpt>
      <trkpt lat="45.79314" lon="4.31367">
        <ele>467</ele>
        <time>2017-04-13T15:52:44Z</time>
      </trkpt>
      <trkpt lat="45.79311" lon="4.31367">
        <ele>467</ele>
        <time>2017-04-13T15:52:46Z</time>
      </trkpt>
      <trkpt lat="45.79307" lon="4.31369">
        <ele>467</ele>
        <time>2017-04-13T15:52:49Z</time>
      </trkpt>
      <trkpt lat="45.79304" lon="4.31369">
        <ele>467</ele>
        <time>2017-04-13T15:52:51Z</time>
      </trkpt>
      <trkpt lat="45.79301" lon="4.3137">
        <ele>468</ele>
        <time>2017-04-13T15:52:53Z</time>
      </trkpt>
      <trkpt lat="45.79299" lon="4.3137">
        <ele>468</ele>
        <time>2017-04-13T15:52:55Z</time>
      </trkpt>
      <trkpt lat="45.79293" lon="4.3137">
        <ele>468</ele>
        <time>2017-04-13T15:52:58Z</time>
      </trkpt>
      <trkpt lat="45.79288" lon="4.31372">
        <ele>468</ele>
        <time>2017-04-13T15:53:01Z</time>
      </trkpt>
      <trkpt lat="45.79285" lon="4.31374">
        <ele>468</ele>
        <time>2017-04-13T15:53:03Z</time>
      </trkpt>
      <trkpt lat="45.79281" lon="4.31375">
        <ele>468</ele>
        <time>2017-04-13T15:53:06Z</time>
      </trkpt>
      <trkpt lat="45.79277" lon="4.31376">
        <ele>468</ele>
        <time>2017-04-13T15:53:09Z</time>
      </trkpt>
      <trkpt lat="45.79275" lon="4.31378">
        <ele>468</ele>
        <time>2017-04-13T15:53:11Z</time>
      </trkpt>
      <trkpt lat="45.79272" lon="4.31379">
        <ele>467</ele>
        <time>2017-04-13T15:53:13Z</time>
      </trkpt>
      <trkpt lat="45.79269" lon="4.31382">
        <ele>467</ele>
        <time>2017-04-13T15:53:16Z</time>
      </trkpt>
      <trkpt lat="45.79266" lon="4.31382">
        <ele>467</ele>
        <time>2017-04-13T15:53:18Z</time>
      </trkpt>
      <trkpt lat="45.79262" lon="4.31383">
        <ele>466</ele>
        <time>2017-04-13T15:53:21Z</time>
      </trkpt>
      <trkpt lat="45.79258" lon="4.31385">
        <ele>466</ele>
        <time>2017-04-13T15:53:24Z</time>
      </trkpt>
      <trkpt lat="45.79256" lon="4.31386">
        <ele>466</ele>
        <time>2017-04-13T15:53:26Z</time>
      </trkpt>
      <trkpt lat="45.79253" lon="4.31387">
        <ele>465</ele>
        <time>2017-04-13T15:53:29Z</time>
      </trkpt>
      <trkpt lat="45.79251" lon="4.31389">
        <ele>465</ele>
        <time>2017-04-13T15:53:31Z</time>
      </trkpt>
      <trkpt lat="45.79249" lon="4.31389">
        <ele>465</ele>
        <time>2017-04-13T15:53:33Z</time>
      </trkpt>
      <trkpt lat="45.79246" lon="4.31391">
        <ele>464</ele>
        <time>2017-04-13T15:53:36Z</time>
      </trkpt>
      <trkpt lat="45.79245" lon="4.31393">
        <ele>464</ele>
        <time>2017-04-13T15:53:38Z</time>
      </trkpt>
      <trkpt lat="45.79242" lon="4.31394">
        <ele>464</ele>
        <time>2017-04-13T15:53:40Z</time>
      </trkpt>
      <trkpt lat="45.7924" lon="4.31397">
        <ele>463</ele>
        <time>2017-04-13T15:53:43Z</time>
      </trkpt>
      <trkpt lat="45.79238" lon="4.31399">
        <ele>463</ele>
        <time>2017-04-13T15:53:45Z</time>
      </trkpt>
      <trkpt lat="45.79234" lon="4.31401">
        <ele>463</ele>
        <time>2017-04-13T15:53:48Z</time>
      </trkpt>
      <trkpt lat="45.79232" lon="4.31403">
        <ele>462</ele>
        <time>2017-04-13T15:53:51Z</time>
      </trkpt>
      <trkpt lat="45.79229" lon="4.31406">
        <ele>462</ele>
        <time>2017-04-13T15:53:53Z</time>
      </trkpt>
      <trkpt lat="45.79224" lon="4.31409">
        <ele>461</ele>
        <time>2017-04-13T15:53:56Z</time>
      </trkpt>
      <trkpt lat="45.79221" lon="4.31411">
        <ele>461</ele>
        <time>2017-04-13T15:53:58Z</time>
      </trkpt>
      <trkpt lat="45.79218" lon="4.31411">
        <ele>460</ele>
        <time>2017-04-13T15:54:00Z</time>
      </trkpt>
      <trkpt lat="45.79215" lon="4.31412">
        <ele>460</ele>
        <time>2017-04-13T15:54:02Z</time>
      </trkpt>
      <trkpt lat="45.79212" lon="4.31413">
        <ele>461</ele>
        <time>2017-04-13T15:54:04Z</time>
      </trkpt>
      <trkpt lat="45.79209" lon="4.31415">
        <ele>460</ele>
        <time>2017-04-13T15:54:07Z</time>
      </trkpt>
      <trkpt lat="45.79206" lon="4.31416">
        <ele>460</ele>
        <time>2017-04-13T15:54:09Z</time>
      </trkpt>
      <trkpt lat="45.79203" lon="4.31416">
        <ele>460</ele>
        <time>2017-04-13T15:54:12Z</time>
      </trkpt>
      <trkpt lat="45.792" lon="4.31416">
        <ele>460</ele>
        <time>2017-04-13T15:54:14Z</time>
      </trkpt>
      <trkpt lat="45.79197" lon="4.31416">
        <ele>460</ele>
        <time>2017-04-13T15:54:17Z</time>
      </trkpt>
      <trkpt lat="45.79193" lon="4.31414">
        <ele>460</ele>
        <time>2017-04-13T15:54:19Z</time>
      </trkpt>
      <trkpt lat="45.79185" lon="4.3141">
        <ele>461</ele>
        <time>2017-04-13T15:54:22Z</time>
      </trkpt>
      <trkpt lat="45.79179" lon="4.31409">
        <ele>461</ele>
        <time>2017-04-13T15:54:24Z</time>
      </trkpt>
      <trkpt lat="45.79173" lon="4.31406">
        <ele>462</ele>
        <time>2017-04-13T15:54:27Z</time>
      </trkpt>
      <trkpt lat="45.79169" lon="4.31405">
        <ele>463</ele>
        <time>2017-04-13T15:54:29Z</time>
      </trkpt>
      <trkpt lat="45.79163" lon="4.31401">
        <ele>463</ele>
        <time>2017-04-13T15:54:32Z</time>
      </trkpt>
      <trkpt lat="45.79155" lon="4.31398">
        <ele>464</ele>
        <time>2017-04-13T15:54:35Z</time>
      </trkpt>
      <trkpt lat="45.79146" lon="4.31399">
        <ele>464</ele>
        <time>2017-04-13T15:54:38Z</time>
      </trkpt>
      <trkpt lat="45.7914" lon="4.31399">
        <ele>464</ele>
        <time>2017-04-13T15:54:40Z</time>
      </trkpt>
      <trkpt lat="45.79133" lon="4.31398">
        <ele>464</ele>
        <time>2017-04-13T15:54:43Z</time>
      </trkpt>
      <trkpt lat="45.79127" lon="4.31398">
        <ele>464</ele>
        <time>2017-04-13T15:54:45Z</time>
      </trkpt>
      <trkpt lat="45.79121" lon="4.31398">
        <ele>464</ele>
        <time>2017-04-13T15:54:47Z</time>
      </trkpt>
      <trkpt lat="45.79115" lon="4.31398">
        <ele>464</ele>
        <time>2017-04-13T15:54:49Z</time>
      </trkpt>
      <trkpt lat="45.79107" lon="4.31398">
        <ele>464</ele>
        <time>2017-04-13T15:54:51Z</time>
      </trkpt>
      <trkpt lat="45.79097" lon="4.314">
        <ele>464</ele>
        <time>2017-04-13T15:54:54Z</time>
      </trkpt>
      <trkpt lat="45.79089" lon="4.31403">
        <ele>464</ele>
        <time>2017-04-13T15:54:56Z</time>
      </trkpt>
      <trkpt lat="45.79081" lon="4.31407">
        <ele>464</ele>
        <time>2017-04-13T15:54:58Z</time>
      </trkpt>
      <trkpt lat="45.79073" lon="4.3141">
        <ele>464</ele>
        <time>2017-04-13T15:55:00Z</time>
      </trkpt>
      <trkpt lat="45.79066" lon="4.31411">
        <ele>464</ele>
        <time>2017-04-13T15:55:02Z</time>
      </trkpt>
      <trkpt lat="45.79059" lon="4.31413">
        <ele>464</ele>
        <time>2017-04-13T15:55:04Z</time>
      </trkpt>
      <trkpt lat="45.79049" lon="4.31417">
        <ele>464</ele>
        <time>2017-04-13T15:55:07Z</time>
      </trkpt>
      <trkpt lat="45.79041" lon="4.3142">
        <ele>464</ele>
        <time>2017-04-13T15:55:10Z</time>
      </trkpt>
      <trkpt lat="45.79034" lon="4.31423">
        <ele>464</ele>
        <time>2017-04-13T15:55:12Z</time>
      </trkpt>
      <trkpt lat="45.79025" lon="4.31426">
        <ele>464</ele>
        <time>2017-04-13T15:55:14Z</time>
      </trkpt>
      <trkpt lat="45.79018" lon="4.31428">
        <ele>464</ele>
        <time>2017-04-13T15:55:16Z</time>
      </trkpt>
      <trkpt lat="45.7901" lon="4.3143">
        <ele>464</ele>
        <time>2017-04-13T15:55:18Z</time>
      </trkpt>
      <trkpt lat="45.78997" lon="4.31432">
        <ele>464</ele>
        <time>2017-04-13T15:55:21Z</time>
      </trkpt>
      <trkpt lat="45.78986" lon="4.31435">
        <ele>464</ele>
        <time>2017-04-13T15:55:24Z</time>
      </trkpt>
      <trkpt lat="45.78974" lon="4.31437">
        <ele>464</ele>
        <time>2017-04-13T15:55:27Z</time>
      </trkpt>
      <trkpt lat="45.78966" lon="4.31437">
        <ele>464</ele>
        <time>2017-04-13T15:55:29Z</time>
      </trkpt>
      <trkpt lat="45.78955" lon="4.31436">
        <ele>464</ele>
        <time>2017-04-13T15:55:32Z</time>
      </trkpt>
      <trkpt lat="45.78944" lon="4.31433">
        <ele>464</ele>
        <time>2017-04-13T15:55:35Z</time>
      </trkpt>
      <trkpt lat="45.78933" lon="4.31429">
        <ele>464</ele>
        <time>2017-04-13T15:55:38Z</time>
      </trkpt>
      <trkpt lat="45.78925" lon="4.31426">
        <ele>464</ele>
        <time>2017-04-13T15:55:40Z</time>
      </trkpt>
      <trkpt lat="45.78919" lon="4.31424">
        <ele>464</ele>
        <time>2017-04-13T15:55:42Z</time>
      </trkpt>
      <trkpt lat="45.78911" lon="4.31419">
        <ele>465</ele>
        <time>2017-04-13T15:55:45Z</time>
      </trkpt>
      <trkpt lat="45.78907" lon="4.31418">
        <ele>464</ele>
        <time>2017-04-13T15:55:47Z</time>
      </trkpt>
      <trkpt lat="45.78902" lon="4.31416">
        <ele>464</ele>
        <time>2017-04-13T15:55:49Z</time>
      </trkpt>
      <trkpt lat="45.78898" lon="4.31416">
        <ele>464</ele>
        <time>2017-04-13T15:55:51Z</time>
      </trkpt>
      <trkpt lat="45.78894" lon="4.31416">
        <ele>464</ele>
        <time>2017-04-13T15:55:53Z</time>
      </trkpt>
      <trkpt lat="45.78888" lon="4.31415">
        <ele>464</ele>
        <time>2017-04-13T15:55:56Z</time>
      </trkpt>
      <trkpt lat="45.78883" lon="4.31413">
        <ele>464</ele>
        <time>2017-04-13T15:55:59Z</time>
      </trkpt>
      <trkpt lat="45.78881" lon="4.31411">
        <ele>464</ele>
        <time>2017-04-13T15:56:01Z</time>
      </trkpt>
      <trkpt lat="45.78877" lon="4.31409">
        <ele>464</ele>
        <time>2017-04-13T15:56:04Z</time>
      </trkpt>
      <trkpt lat="45.78872" lon="4.31407">
        <ele>463</ele>
        <time>2017-04-13T15:56:07Z</time>
      </trkpt>
      <trkpt lat="45.78868" lon="4.31406">
        <ele>463</ele>
        <time>2017-04-13T15:56:09Z</time>
      </trkpt>
      <trkpt lat="45.78863" lon="4.31405">
        <ele>462</ele>
        <time>2017-04-13T15:56:11Z</time>
      </trkpt>
      <trkpt lat="45.7886" lon="4.31405">
        <ele>462</ele>
        <time>2017-04-13T15:56:13Z</time>
      </trkpt>
      <trkpt lat="45.78856" lon="4.31404">
        <ele>462</ele>
        <time>2017-04-13T15:56:16Z</time>
      </trkpt>
      <trkpt lat="45.78854" lon="4.31405">
        <ele>463</ele>
        <time>2017-04-13T15:56:18Z</time>
      </trkpt>
      <trkpt lat="45.78851" lon="4.31405">
        <ele>463</ele>
        <time>2017-04-13T15:56:20Z</time>
      </trkpt>
      <trkpt lat="45.78844" lon="4.31406">
        <ele>464</ele>
        <time>2017-04-13T15:56:23Z</time>
      </trkpt>
      <trkpt lat="45.78835" lon="4.31406">
        <ele>464</ele>
        <time>2017-04-13T15:56:26Z</time>
      </trkpt>
      <trkpt lat="45.78825" lon="4.31408">
        <ele>464</ele>
        <time>2017-04-13T15:56:29Z</time>
      </trkpt>
      <trkpt lat="45.78819" lon="4.3141">
        <ele>464</ele>
        <time>2017-04-13T15:56:31Z</time>
      </trkpt>
      <trkpt lat="45.78813" lon="4.31411">
        <ele>464</ele>
        <time>2017-04-13T15:56:33Z</time>
      </trkpt>
      <trkpt lat="45.78804" lon="4.3141">
        <ele>464</ele>
        <time>2017-04-13T15:56:36Z</time>
      </trkpt>
      <trkpt lat="45.78793" lon="4.31411">
        <ele>464</ele>
        <time>2017-04-13T15:56:39Z</time>
      </trkpt>
      <trkpt lat="45.78788" lon="4.3141">
        <ele>464</ele>
        <time>2017-04-13T15:56:41Z</time>
      </trkpt>
      <trkpt lat="45.78778" lon="4.3141">
        <ele>465</ele>
        <time>2017-04-13T15:56:44Z</time>
      </trkpt>
      <trkpt lat="45.78768" lon="4.31408">
        <ele>465</ele>
        <time>2017-04-13T15:56:47Z</time>
      </trkpt>
      <trkpt lat="45.78762" lon="4.31406">
        <ele>465</ele>
        <time>2017-04-13T15:56:49Z</time>
      </trkpt>
      <trkpt lat="45.78754" lon="4.31404">
        <ele>465</ele>
        <time>2017-04-13T15:56:52Z</time>
      </trkpt>
      <trkpt lat="45.78747" lon="4.31402">
        <ele>464</ele>
        <time>2017-04-13T15:56:54Z</time>
      </trkpt>
      <trkpt lat="45.78741" lon="4.31401">
        <ele>464</ele>
        <time>2017-04-13T15:56:56Z</time>
      </trkpt>
      <trkpt lat="45.7873" lon="4.31394">
        <ele>464</ele>
        <time>2017-04-13T15:56:59Z</time>
      </trkpt>
      <trkpt lat="45.78721" lon="4.31389">
        <ele>464</ele>
        <time>2017-04-13T15:57:02Z</time>
      </trkpt>
      <trkpt lat="45.78714" lon="4.31384">
        <ele>464</ele>
        <time>2017-04-13T15:57:05Z</time>
      </trkpt>
      <trkpt lat="45.78709" lon="4.31381">
        <ele>463</ele>
        <time>2017-04-13T15:57:07Z</time>
      </trkpt>
      <trkpt lat="45.78702" lon="4.31381">
        <ele>463</ele>
        <time>2017-04-13T15:57:09Z</time>
      </trkpt>
      <trkpt lat="45.78695" lon="4.31379">
        <ele>463</ele>
        <time>2017-04-13T15:57:11Z</time>
      </trkpt>
      <trkpt lat="45.78685" lon="4.31377">
        <ele>463</ele>
        <time>2017-04-13T15:57:14Z</time>
      </trkpt>
      <trkpt lat="45.78678" lon="4.31377">
        <ele>463</ele>
        <time>2017-04-13T15:57:16Z</time>
      </trkpt>
      <trkpt lat="45.78668" lon="4.31377">
        <ele>463</ele>
        <time>2017-04-13T15:57:19Z</time>
      </trkpt>
      <trkpt lat="45.78658" lon="4.31379">
        <ele>462</ele>
        <time>2017-04-13T15:57:22Z</time>
      </trkpt>
      <trkpt lat="45.78647" lon="4.31383">
        <ele>462</ele>
        <time>2017-04-13T15:57:25Z</time>
      </trkpt>
      <trkpt lat="45.7864" lon="4.31385">
        <ele>462</ele>
        <time>2017-04-13T15:57:27Z</time>
      </trkpt>
      <trkpt lat="45.78634" lon="4.3139">
        <ele>462</ele>
        <time>2017-04-13T15:57:29Z</time>
      </trkpt>
      <trkpt lat="45.78624" lon="4.31398">
        <ele>462</ele>
        <time>2017-04-13T15:57:32Z</time>
      </trkpt>
      <trkpt lat="45.78615" lon="4.31403">
        <ele>461</ele>
        <time>2017-04-13T15:57:35Z</time>
      </trkpt>
      <trkpt lat="45.78607" lon="4.31407">
        <ele>461</ele>
        <time>2017-04-13T15:57:37Z</time>
      </trkpt>
      <trkpt lat="45.78595" lon="4.31413">
        <ele>461</ele>
        <time>2017-04-13T15:57:40Z</time>
      </trkpt>
      <trkpt lat="45.78584" lon="4.31417">
        <ele>461</ele>
        <time>2017-04-13T15:57:43Z</time>
      </trkpt>
      <trkpt lat="45.78572" lon="4.31422">
        <ele>460</ele>
        <time>2017-04-13T15:57:46Z</time>
      </trkpt>
      <trkpt lat="45.78564" lon="4.31424">
        <ele>460</ele>
        <time>2017-04-13T15:57:48Z</time>
      </trkpt>
      <trkpt lat="45.78557" lon="4.31427">
        <ele>460</ele>
        <time>2017-04-13T15:57:50Z</time>
      </trkpt>
      <trkpt lat="45.78547" lon="4.31429">
        <ele>459</ele>
        <time>2017-04-13T15:57:53Z</time>
      </trkpt>
      <trkpt lat="45.78537" lon="4.31431">
        <ele>459</ele>
        <time>2017-04-13T15:57:56Z</time>
      </trkpt>
      <trkpt lat="45.7853" lon="4.31434">
        <ele>459</ele>
        <time>2017-04-13T15:57:58Z</time>
      </trkpt>
      <trkpt lat="45.78521" lon="4.3144">
        <ele>459</ele>
        <time>2017-04-13T15:58:01Z</time>
      </trkpt>
      <trkpt lat="45.78514" lon="4.31444">
        <ele>459</ele>
        <time>2017-04-13T15:58:03Z</time>
      </trkpt>
      <trkpt lat="45.78505" lon="4.31449">
        <ele>459</ele>
        <time>2017-04-13T15:58:06Z</time>
      </trkpt>
      <trkpt lat="45.78499" lon="4.31451">
        <ele>458</ele>
        <time>2017-04-13T15:58:08Z</time>
      </trkpt>
      <trkpt lat="45.78493" lon="4.31453">
        <ele>458</ele>
        <time>2017-04-13T15:58:10Z</time>
      </trkpt>
      <trkpt lat="45.78485" lon="4.31456">
        <ele>457</ele>
        <time>2017-04-13T15:58:13Z</time>
      </trkpt>
      <trkpt lat="45.78479" lon="4.31459">
        <ele>457</ele>
        <time>2017-04-13T15:58:15Z</time>
      </trkpt>
      <trkpt lat="45.78469" lon="4.31463">
        <ele>457</ele>
        <time>2017-04-13T15:58:18Z</time>
      </trkpt>
      <trkpt lat="45.78463" lon="4.31467">
        <ele>457</ele>
        <time>2017-04-13T15:58:20Z</time>
      </trkpt>
      <trkpt lat="45.78455" lon="4.31468">
        <ele>457</ele>
        <time>2017-04-13T15:58:23Z</time>
      </trkpt>
      <trkpt lat="45.78445" lon="4.3147">
        <ele>456</ele>
        <time>2017-04-13T15:58:26Z</time>
      </trkpt>
      <trkpt lat="45.78435" lon="4.31473">
        <ele>456</ele>
        <time>2017-04-13T15:58:29Z</time>
      </trkpt>
      <trkpt lat="45.78429" lon="4.31475">
        <ele>455</ele>
        <time>2017-04-13T15:58:31Z</time>
      </trkpt>
      <trkpt lat="45.78419" lon="4.31484">
        <ele>455</ele>
        <time>2017-04-13T15:58:34Z</time>
      </trkpt>
      <trkpt lat="45.78412" lon="4.31491">
        <ele>455</ele>
        <time>2017-04-13T15:58:36Z</time>
      </trkpt>
      <trkpt lat="45.78406" lon="4.31498">
        <ele>455</ele>
        <time>2017-04-13T15:58:38Z</time>
      </trkpt>
      <trkpt lat="45.784" lon="4.31505">
        <ele>455</ele>
        <time>2017-04-13T15:58:40Z</time>
      </trkpt>
      <trkpt lat="45.78393" lon="4.31514">
        <ele>455</ele>
        <time>2017-04-13T15:58:42Z</time>
      </trkpt>
      <trkpt lat="45.78385" lon="4.31524">
        <ele>454</ele>
        <time>2017-04-13T15:58:45Z</time>
      </trkpt>
      <trkpt lat="45.78308" lon="4.31596">
        <ele>488</ele>
      </trkpt>
      <trkpt lat="45.78298" lon="4.31673">
        <ele>490</ele>
      </trkpt>
      <trkpt lat="45.78226" lon="4.31658">
        <ele>508</ele>
      </trkpt>
      <trkpt lat="45.78062" lon="4.31542">
        <ele>527</ele>
      </trkpt>
      <trkpt lat="45.7804" lon="4.31767">
        <ele>550</ele>
      </trkpt>
      <trkpt lat="45.77927" lon="4.32026">
        <ele>562</ele>
      </trkpt>
      <trkpt lat="45.77784" lon="4.32221">
        <ele>567</ele>
      </trkpt>
      <trkpt lat="45.77634" lon="4.32324">
        <ele>582</ele>
      </trkpt>
      <trkpt lat="45.77562" lon="4.3256">
        <ele>596</ele>
      </trkpt>
      <trkpt lat="45.77443" lon="4.32684">
        <ele>586</ele>
      </trkpt>
      <trkpt lat="45.77405" lon="4.32824">
        <ele>583</ele>
      </trkpt>
      <trkpt lat="45.77334" lon="4.32982">
        <ele>578</ele>
      </trkpt>
      <trkpt lat="45.77359" lon="4.33138">
        <ele>575</ele>
      </trkpt>
      <trkpt lat="45.77316" lon="4.33226">
        <ele>582</ele>
      </trkpt>
      <trkpt lat="45.7695" lon="4.33335">
        <ele>563</ele>
      </trkpt>
      <trkpt lat="45.76723" lon="4.3343">
        <ele>538</ele>
      </trkpt>
      <trkpt lat="45.76483" lon="4.3326">
        <ele>540</ele>
        <time>2017-04-13T15:58:58Z</time>
      </trkpt>
    </trkseg>
  </trk>
</gpx>